Date StartTime U_cm/s V_cm/s W_cm/s Ustd_cm/s Vstd_cm/s Wstd_cm/s Uvar_(cm/s)^2 Vvar_(cm/s)^2 Wvar_(cm/s)^2 KE_(m/s)^2 TurbulentKE_(m/s)^2 HorizWindSpeed_cm/s FrictionSpeec_cm/s DragCoef SpeedOfSound_m/s SonicTemperature_C Pressure_mb 
07/04/2013  00:00:00     -124.890       36.735      -13.357       52.301       42.472       26.236     2735.395     1803.861      688.342        1.118        0.261      130.180       16.656        0.016      347.323       26.210      862.111
07/04/2013  00:01:00     -142.200       31.934      -13.955       36.079       33.957       23.458     1301.706     1153.081      550.290        1.222        0.150      145.741       15.206        0.011      347.361       26.274      862.106
07/04/2013  00:02:00     -130.295       37.701       -0.866       34.183       29.010       20.331     1168.463      841.574      413.365        1.041        0.121      135.640       14.883        0.012      347.291       26.153      862.096
07/04/2013  00:03:00     -123.181       47.576      -13.859       40.745       32.541       20.989     1660.132     1058.896      440.552        1.039        0.158      132.049        8.994        0.005      347.205       26.007      862.087
07/04/2013  00:04:00     -157.470       54.384      -13.705       46.709       38.750       24.436     2181.719     1501.588      597.099        1.611        0.214      166.597       17.363        0.011      347.154       25.916      862.094
07/04/2013  00:05:00     -161.442       43.780      -17.313       85.743       53.597       35.909     7351.805     2872.598     1289.449        1.989        0.576      167.273       41.307        0.061      346.897       25.472      862.099
07/04/2013  00:06:00     -125.761       92.977      -10.419       49.647       57.078       30.535     2464.845     3257.954      932.389        1.561        0.333      156.398       21.745        0.019      346.833       25.364      862.100
07/04/2013  00:07:00      -91.355       -1.127      -11.922       40.074       48.722       34.207     1605.897     2373.813     1170.118        0.682        0.257       91.362       23.974        0.069      346.794       25.299      862.110
07/04/2013  00:08:00     -131.813      -38.717       -7.639       55.521       51.556       34.303     3082.622     2658.040     1176.690        1.292        0.346      137.382       27.923        0.041      346.775       25.267      862.119
07/04/2013  00:09:00     -144.002      -22.912      -21.660       47.533       51.800       24.438     2259.375     2683.278      597.213        1.363        0.277      145.813       25.006        0.029      346.718       25.166      862.140
07/04/2013  00:10:00      -88.163        9.994      -16.423       29.355       41.229       19.754      861.716     1699.838      390.204        0.555        0.148       88.728       11.362        0.016      346.712       25.157      862.170
07/04/2013  00:11:00     -101.609       15.245      -14.729       36.224       54.105       27.020     1312.195     2927.319      730.070        0.787        0.248      102.746       15.653        0.023      346.891       25.464      862.180
07/04/2013  00:12:00      -48.905       -5.594       -7.421       39.002       36.841       19.658     1521.178     1357.251      386.442        0.287        0.163       49.224       20.953        0.181      346.943       25.555      862.187
07/04/2013  00:13:00      -11.892       -3.934       -4.467       20.719       19.452       14.514      429.280      378.398      210.653        0.060        0.051       12.526       10.741        0.735      346.932       25.535      862.192
07/04/2013  00:14:00      -63.477        9.454       -9.861       19.653       21.206       17.637      386.222      449.704      311.060        0.268        0.057       64.177       12.486        0.038      347.007       25.665      862.214
07/04/2013  00:15:00      -35.044      -13.060       -9.743       15.655       21.771       11.051      245.074      473.955      122.117        0.117        0.042       37.398        9.086        0.059      346.945       25.557      862.238
07/04/2013  00:16:00      -86.477       24.962      -14.700       33.039       28.913       17.697     1091.567      835.990      313.185        0.528        0.112       90.008       14.714        0.027      347.084       25.799      862.257
07/04/2013  00:17:00      -63.583       31.077       -9.055       25.169       24.577       12.345      633.493      604.045      152.402        0.324        0.069       70.771        9.075        0.016      347.048       25.735      862.281
07/04/2013  00:18:00      -78.983       60.057      -13.680       33.516       37.679       21.565     1123.344     1419.694      465.037        0.652        0.150       99.223       19.554        0.039      347.073       25.777      862.273
07/04/2013  00:19:00      -94.330       27.391      -15.091       29.609       52.025       18.894      876.711     2706.594      356.971        0.691        0.197       98.226       19.020        0.037      346.977       25.614      862.273
07/04/2013  00:20:00      -83.859       45.859      -14.146       24.628       19.078       16.601      606.542      363.977      275.593        0.529        0.062       95.579        4.945        0.003      347.070       25.772      862.274
07/04/2013  00:21:00      -94.466       33.649      -16.000       25.395       32.132       14.441      644.892     1032.476      208.534        0.610        0.094      100.280       12.241        0.015      346.966       25.594      862.260
07/04/2013  00:22:00     -114.981       57.942      -17.232       22.397       31.838       15.581      501.615     1013.685      242.769        0.932        0.088      128.755       10.165        0.006      347.064       25.761      862.253
07/04/2013  00:23:00     -117.656       54.885      -20.251       27.597       25.262       19.315      761.592      638.190      373.056        0.952        0.089      129.828       15.536        0.014      347.135       25.884      862.243
07/04/2013  00:24:00      -98.733       15.393      -12.607       22.483       36.018       18.926      505.486     1297.321      358.202        0.615        0.108       99.926       14.468        0.021      347.006       25.662      862.239
07/04/2013  00:25:00     -135.181       32.021      -11.366       32.958       39.832       23.441     1086.212     1586.604      549.496        1.132        0.161      138.922       20.084        0.021      347.085       25.798      862.248
07/04/2013  00:26:00     -135.775       16.064      -16.459       42.205       29.678       23.363     1781.257      880.769      545.842        1.109        0.160      136.722       22.072        0.026      347.086       25.803      862.252
07/04/2013  00:27:00     -134.793       -1.252      -17.791       28.873       32.760       19.073      833.662     1073.190      363.773        1.038        0.114      134.799       15.218        0.013      347.024       25.694      862.263
07/04/2013  00:28:00     -136.015       31.683      -12.428       45.325       35.353       20.914     2054.376     1249.816      437.406        1.170        0.187      139.656       17.503        0.016      347.270       26.118      862.279
07/04/2013  00:29:00     -111.610       57.192      -15.891       35.391       34.796       23.378     1252.510     1210.729      546.529        0.949        0.150      125.410       23.022        0.034      347.311       26.188      862.282
07/04/2013  00:30:00      -62.475       -6.586       -9.044       29.238       23.189       20.554      854.875      537.740      422.481        0.292        0.091       62.821       16.084        0.066      347.238       26.062      862.286
07/04/2013  00:31:00      -60.934        4.473       -6.519       25.052       25.461       19.164      627.579      648.260      367.275        0.271        0.082       61.098       11.244        0.034      347.170       25.945      862.289
07/04/2013  00:32:00     -110.063       -7.518      -13.505       21.096       29.365       15.589      445.031      862.321      243.010        0.695        0.078      110.320       16.999        0.024      347.146       25.903      862.276
07/04/2013  00:33:00      -93.028       -5.720      -10.467       34.077       48.191       22.904     1161.221     2322.356      524.581        0.640        0.200       93.203       23.609        0.064      347.056       25.749      862.275
07/04/2013  00:34:00     -111.791       52.112      -21.554       35.761       29.110       20.628     1278.864      847.420      425.525        0.911        0.128      123.341       19.631        0.025      347.315       26.195      862.249
07/04/2013  00:35:00     -117.581       51.360      -21.473       24.915       34.660       20.611      620.781     1201.320      424.817        0.959        0.112      128.309       15.952        0.015      347.406       26.353      862.222
07/04/2013  00:36:00     -120.434       -0.302      -14.879       36.052       46.813       17.619     1299.753     2191.486      310.446        0.926        0.190      120.435       14.029        0.014      347.296       26.161      862.213
07/04/2013  00:37:00     -137.955      -11.433      -16.666       47.368       35.482       24.151     2243.733     1258.980      583.278        1.176        0.204      138.427       18.813        0.018      346.958       25.581      862.197
07/04/2013  00:38:00     -130.572       51.452      -18.316       40.293       32.558       23.817     1623.549     1060.036      567.249        1.164        0.163      140.344       21.631        0.024      346.945       25.558      862.212
07/04/2013  00:39:00     -104.843       36.321       -7.310       30.162       30.308       20.246      909.722      918.569      409.881        0.730        0.112      110.956       19.217        0.030      347.153       25.916      862.218
07/04/2013  00:40:00     -133.174       17.297      -13.266       40.357       42.929       21.596     1628.716     1842.935      466.396        1.107        0.197      134.292       15.280        0.013      347.322       26.206      862.195
07/04/2013  00:41:00      -98.317       -0.147       -6.828       32.591       33.764       18.022     1062.153     1139.982      324.781        0.612        0.126       98.317       14.920        0.023      347.079       25.788      862.186
07/04/2013  00:42:00     -117.956      -15.137      -18.085       30.625       26.362       19.470      937.919      694.933      379.064        0.824        0.101      118.924       18.664        0.025      346.857       25.405      862.191
07/04/2013  00:43:00     -104.704       43.758       -7.765       39.372       40.078       28.492     1550.183     1606.284      811.778        0.845        0.198      113.480       22.294        0.039      347.000       25.654      862.192
07/04/2013  00:44:00     -110.892       57.629      -17.645       32.556       34.210       22.252     1059.892     1170.304      495.136        0.933        0.136      124.972       13.896        0.012      347.109       25.839      862.198
07/04/2013  00:45:00     -125.791       53.735       -8.352       44.659       32.760       26.766     1994.416     1073.243      716.429        1.128        0.189      136.788       19.140        0.020      347.168       25.941      862.230
07/04/2013  00:46:00     -116.156       70.351      -19.233       49.997       35.830       30.123     2499.692     1283.800      907.372        1.175        0.235      135.799       25.189        0.034      347.069       25.771      862.260
07/04/2013  00:47:00     -117.982       84.720      -19.407       59.774       52.055       32.543     3572.913     2709.683     1059.052        1.441        0.367      145.249       36.971        0.065      347.112       25.844      862.274
07/04/2013  00:48:00      -96.862       63.950      -10.971       38.401       34.151       30.016     1474.637     1166.311      900.939        0.857        0.177      116.068       21.288        0.034      347.076       25.784      862.301
07/04/2013  00:49:00     -132.701       71.501      -22.682       50.411       64.003       28.495     2541.306     4096.410      811.957        1.534        0.372      150.738       25.473        0.029      347.114       25.847      862.336
07/04/2013  00:50:00     -105.941      128.084      -22.556       51.997       66.249       34.339     2703.673     4388.962     1179.182        1.820        0.414      166.220       39.384        0.056      347.124       25.866      862.367
07/04/2013  00:51:00     -123.868      101.302      -20.944       53.105       52.858       31.968     2820.175     2793.970     1021.982        1.634        0.332      160.017       32.067        0.040      347.090       25.807      862.392
07/04/2013  00:52:00     -139.647      110.816      -21.970       63.899       69.278       31.377     4083.129     4799.373      984.545        2.106        0.493      178.273       36.669        0.042      347.048       25.733      862.392
07/04/2013  00:53:00     -116.988       70.240       -6.888       60.036       49.159       39.574     3604.381     2416.564     1566.115        1.313        0.379      136.454       29.730        0.047      347.023       25.692      862.383
07/04/2013  00:54:00     -159.306      110.309      -38.573       55.151       46.660       33.994     3041.593     2177.162     1155.565        2.270        0.319      193.769       29.077        0.023      347.023       25.690      862.385
07/04/2013  00:55:00     -136.845       60.245      -17.592       38.885       68.598       33.765     1512.055     4705.739     1140.064        1.501        0.368      149.519       27.949        0.035      347.001       25.654      862.376
07/04/2013  00:56:00     -111.985       37.259      -11.138       41.269       43.109       28.283     1703.133     1858.347      799.945        0.921        0.218      118.021       19.334        0.027      346.977       25.613      862.368
07/04/2013  00:57:00     -103.106      -23.260      -12.163       36.887       39.104       21.255     1360.668     1529.092      451.793        0.733        0.167      105.697       15.499        0.022      346.882       25.451      862.366
07/04/2013  00:58:00      -87.804        4.727       -4.848       21.811       33.686       25.918      475.713     1134.735      671.727        0.502        0.114       87.932       15.721        0.032      346.918       25.513      862.356
07/04/2013  00:59:00      -47.364        2.324       -0.440       30.839       38.398       19.840      951.041     1474.399      393.608        0.253        0.141       47.421       19.106        0.162      346.889       25.461      862.360
07/04/2013  01:00:00      -90.764      -13.998      -18.541       47.287       32.310       21.705     2236.038     1043.904      471.096        0.626        0.188       91.837       24.637        0.072      346.846       25.385      862.360
07/04/2013  01:01:00     -138.693       11.541      -10.443       35.483       32.948       23.391     1259.056     1085.567      547.134        1.118        0.145      139.172       19.289        0.019      346.798       25.303      862.359
07/04/2013  01:02:00     -115.522        1.383       -5.211       47.554       47.851       23.855     2261.363     2289.687      569.075        0.925        0.256      115.531       25.398        0.048      346.766       25.247      862.374
07/04/2013  01:03:00      -88.178       26.034       -6.115       51.343       43.575       27.503     2636.154     1898.740      756.435        0.689        0.265       91.940       31.270        0.116      346.731       25.191      862.369
07/04/2013  01:04:00     -109.297       28.632      -24.092       27.762       32.732       16.173      770.740     1071.415      261.581        0.772        0.105      112.985       14.461        0.016      346.741       25.206      862.354
07/04/2013  01:05:00     -137.826      -23.614      -21.138       46.440       42.898       25.567     2156.672     1840.268      653.662        1.232        0.233      139.834       21.684        0.024      346.695       25.128      862.356
07/04/2013  01:06:00     -117.727      -32.506      -15.823       39.136       47.883       20.659     1531.618     2292.808      426.809        0.971        0.213      122.132       17.256        0.020      346.635       25.024      862.351
07/04/2013  01:07:00     -122.769       12.678      -31.634       32.344       52.713       31.942     1046.160     2778.666     1020.315        1.054        0.242      123.422       18.233        0.022      346.729       25.184      862.345
07/04/2013  01:08:00     -183.950      -29.799      -26.039       63.777       84.235       28.359     4067.527     7095.455      804.250        2.368        0.598      186.348       21.342        0.013      346.546       24.871      862.359
07/04/2013  01:09:00     -134.852       28.723      -22.542       54.290       48.822       31.192     2947.363     2383.539      972.951        1.291        0.315      137.877       29.243        0.045      346.530       24.844      862.356
07/04/2013  01:10:00     -107.732      -16.322       -7.240       36.435       53.105       24.286     1327.543     2820.165      589.822        0.833        0.237      108.961       20.585        0.036      346.492       24.779      862.361
07/04/2013  01:11:00     -107.048      -15.456      -12.550       37.998       39.688       29.857     1443.860     1575.148      891.425        0.788        0.196      108.158       10.502        0.009      346.479       24.756      862.376
07/04/2013  01:12:00      -73.592      -12.176      -13.821       37.072       46.024       25.777     1374.338     2118.179      664.447        0.496        0.208       74.593        9.767        0.017      346.480       24.759      862.395
07/04/2013  01:13:00     -121.984       86.404      -22.948       39.013       43.708       29.476     1521.978     1910.431      868.845        1.359        0.215      149.485       19.902        0.018      346.520       24.827      862.421
07/04/2013  01:14:00      -96.965       80.825      -11.587       64.313       87.688       37.553     4136.159     7689.224     1410.198        1.465        0.662      126.234       45.652        0.131      346.534       24.849      862.445
07/04/2013  01:15:00     -136.493      138.709      -32.443       39.136       45.760       25.752     1531.592     2093.933      663.141        2.161        0.214      194.604       25.127        0.017      346.542       24.862      862.470
07/04/2013  01:16:00      -97.586       54.788      -19.295       38.867       38.096       17.046     1510.678     1451.340      290.555        0.807        0.163      111.915       12.192        0.012      346.417       24.649      862.484
07/04/2013  01:17:00      -86.977      156.081      -22.890       53.084       47.780       37.171     2817.953     2282.966     1381.655        1.947        0.324      178.679       35.636        0.040      346.624       25.004      862.470
07/04/2013  01:18:00      -81.592       75.945      -21.759       33.489       46.886       21.069     1121.518     2198.256      443.882        0.833        0.188      111.467       24.526        0.048      346.585       24.937      862.456
07/04/2013  01:19:00      -93.597       26.705      -20.861       26.984       35.301       26.625      728.141     1246.154      708.907        0.630        0.134       97.332       19.236        0.039      346.572       24.916      862.446
07/04/2013  01:20:00     -135.505        9.606      -22.439       35.756       24.966       16.175     1278.521      623.310      261.622        1.056        0.108      135.845       13.484        0.010      346.463       24.728      862.443
07/04/2013  01:21:00     -117.982       66.164      -17.709       54.844       45.251       25.762     3007.862     2047.697      663.677        1.216        0.286      135.268       18.837        0.019      346.417       24.649      862.434
07/04/2013  01:22:00     -170.947      109.938      -32.563       69.150       65.520       42.676     4781.725     4292.914     1821.244        2.663        0.545      203.247       42.901        0.045      346.542       24.862      862.427
07/04/2013  01:23:00     -161.642      102.876      -33.067       67.663       59.297       34.639     4578.258     3516.180     1199.849        2.355        0.465      191.603       41.689        0.047      346.516       24.817      862.426
07/04/2013  01:24:00     -186.994       67.890      -27.445       60.987       51.390       32.273     3719.393     2640.960     1041.535        2.386        0.370      198.936       29.338        0.022      346.403       24.624      862.422
07/04/2013  01:25:00     -171.011       81.741      -24.586       53.254       77.592       39.454     2836.041     6020.454     1556.638        2.347        0.521      189.542       34.774        0.034      346.551       24.878      862.426
07/04/2013  01:26:00     -123.146       47.416      -14.037       60.526       53.919       27.752     3663.363     2907.218      770.168        1.247        0.367      131.959       23.624        0.032      346.490       24.775      862.445
07/04/2013  01:27:00     -159.743      100.410      -16.707       67.281       60.847       42.431     4526.691     3702.412     1800.372        2.295        0.501      188.680       27.014        0.020      346.492       24.777      862.446
07/04/2013  01:28:00     -154.044      132.908      -24.299       68.953       69.479       41.664     4754.475     4827.397     1735.878        2.665        0.566      203.455       38.074        0.035      346.592       24.948      862.445
07/04/2013  01:29:00     -194.245      159.357      -31.260       68.762       62.349       45.337     4728.201     3887.406     2055.401        3.738        0.534      251.248       34.054        0.018      346.639       25.026      862.463
07/04/2013  01:30:00     -184.313      142.865      -35.761       93.866       88.767       45.148     8810.891     7879.622     2038.342        3.719        0.936      233.199       51.244        0.048      346.638       25.027      862.470
07/04/2013  01:31:00     -121.689      142.102      -24.482       58.472       68.518       36.264     3418.923     4694.750     1315.074        2.251        0.471      187.086       35.153        0.035      346.640       25.030      862.489
07/04/2013  01:32:00      -93.086       70.883       -5.892       52.400       42.296       30.810     2745.796     1788.928      949.283        0.960        0.274      117.002       26.719        0.052      346.568       24.908      862.495
07/04/2013  01:33:00     -109.751       27.585       -7.273       63.236       42.064       28.836     3998.776     1769.381      831.498        0.973        0.330      113.164       26.020        0.053      346.584       24.937      862.492
07/04/2013  01:34:00      -88.773       18.914       -2.794       50.185       67.034       33.687     2518.493     4493.594     1134.830        0.819        0.407       90.765        9.543        0.011      346.555       24.886      862.485
07/04/2013  01:35:00     -158.646       91.869      -38.141       91.207       75.121       40.490     8318.735     5643.221     1639.410        2.533        0.780      183.327       51.053        0.078      346.558       24.890      862.495
07/04/2013  01:36:00     -104.102       66.067      -16.750       34.011       43.219       22.132     1156.737     1867.919      489.841        0.950        0.176      123.297       21.890        0.032      346.439       24.687      862.512
07/04/2013  01:37:00     -118.589       74.325      -16.049       45.524       63.334       38.111     2072.471     4011.241     1452.467        1.369        0.377      139.955       35.322        0.064      346.460       24.722      862.508
07/04/2013  01:38:00     -134.285       80.815      -26.785       56.576       73.935       32.999     3200.834     5466.439     1088.936        1.752        0.488      156.727       33.405        0.045      346.428       24.668      862.507
07/04/2013  01:39:00     -216.330      138.738      -34.523       65.005       88.935       50.844     4225.659     7909.479     2585.070        4.098        0.736      256.996       41.900        0.027      346.536       24.850      862.512
07/04/2013  01:40:00     -180.719      107.812      -23.816       88.002       63.911       51.015     7744.280     4084.574     2602.571        2.964        0.722      210.435       50.624        0.058      346.519       24.823      862.509
07/04/2013  01:41:00     -186.676      132.740      -35.328       54.076       68.691       44.515     2924.239     4718.423     1981.608        3.167        0.481      229.059       32.228        0.020      346.515       24.814      862.508
07/04/2013  01:42:00     -214.040       74.876      -17.696       63.411       76.419       38.665     4020.913     5839.848     1495.004        3.154        0.568      226.759       20.895        0.008      346.583       24.934      862.512
07/04/2013  01:43:00     -130.349      102.988       -5.758       67.609       48.990       38.999     4571.032     2400.020     1520.916        1.806        0.425      166.125       27.638        0.028      346.548       24.874      862.494
07/04/2013  01:44:00     -135.012       54.359      -23.059       54.451       52.979       31.950     2964.914     2806.796     1020.793        1.425        0.340      145.545       20.906        0.021      346.594       24.953      862.483
07/04/2013  01:45:00      -81.897       98.386      -10.599       51.158       62.874       36.781     2617.116     3953.193     1352.850        1.221        0.396      128.012       31.676        0.061      346.516       24.818      862.468
07/04/2013  01:46:00     -169.322       27.660      -10.405       77.792      101.672       41.249     6051.560    10337.177     1701.480        2.381        0.905      171.567       34.046        0.039      346.544       24.867      862.450
07/04/2013  01:47:00     -164.709      127.700      -36.682       77.564       99.313       46.668     6016.117     9863.082     2177.875        3.142        0.903      208.414       49.544        0.057      346.594       24.951      862.466
07/04/2013  01:48:00     -141.136      101.459      -25.816       68.105       61.381       38.080     4638.236     3767.663     1450.101        2.037        0.493      173.820       31.508        0.033      346.563       24.900      862.467
07/04/2013  01:49:00     -142.888      178.008      -34.441       57.447       64.791       43.534     3300.143     4197.872     1895.171        3.134        0.470      228.262       37.889        0.028      346.556       24.886      862.480
07/04/2013  01:50:00     -150.521      151.095      -27.743       50.466       82.907       38.339     2546.812     6873.519     1469.853        2.857        0.545      213.275       37.115        0.030      346.550       24.876      862.492
07/04/2013  01:51:00     -149.781      162.440      -32.184       69.439       86.708       42.042     4821.781     7518.275     1767.533        3.198        0.705      220.955       48.655        0.048      346.528       24.837      862.487
07/04/2013  01:52:00     -141.174      129.062      -24.203       56.023       70.784       42.193     3138.546     5010.322     1780.264        2.355        0.496      191.278       40.410        0.045      346.515       24.817      862.492
07/04/2013  01:53:00     -158.031       97.997      -10.722       78.132       70.123       39.839     6104.608     4917.198     1587.128        2.365        0.630      185.950       36.138        0.038      346.510       24.807      862.499
07/04/2013  01:54:00     -188.802       98.314      -22.658       78.306       71.149       41.719     6131.817     5062.202     1740.493        2.938        0.647      212.866       34.777        0.027      346.530       24.841      862.489
07/04/2013  01:55:00     -203.031      150.242      -32.677      100.479       87.961       52.461    10095.944     7737.160     2752.106        4.272        1.029      252.575       58.375        0.053      346.586       24.937      862.498
07/04/2013  01:56:00     -207.263      140.669      -40.535       75.679       99.798       44.652     5727.347     9959.612     1993.757        4.103        0.884      250.491       29.348        0.014      346.621       24.997      862.511
07/04/2013  01:57:00     -161.263       73.743      -17.398       75.382       74.081       41.582     5682.514     5488.005     1729.063        2.232        0.645      177.324       48.545        0.075      346.610       24.981      862.497
07/04/2013  01:58:00     -127.665      108.883       -9.835       79.413       82.579       38.571     6306.454     6819.283     1487.708        2.143        0.731      167.791       33.405        0.040      346.587       24.940      862.467
07/04/2013  01:59:00     -205.758       91.210      -31.049       96.217       93.853       56.211     9257.635     8808.439     3159.691        3.642        1.061      225.068       56.716        0.064      346.702       25.138      862.460
07/04/2013  02:00:00     -150.590      120.839      -21.841       69.291       63.967       49.763     4801.272     4091.759     2476.359        2.456        0.568      193.079       47.154        0.060      346.696       25.127      862.436
07/04/2013  02:01:00     -139.185      135.819      -30.930       51.495      116.898       37.331     2651.786    13665.136     1393.571        2.824        0.886      194.471       48.265        0.062      346.705       25.144      862.413
07/04/2013  02:02:00     -128.858      120.094      -26.378       76.978       65.510       40.608     5925.662     4291.599     1648.988        2.179        0.593      176.145       32.739        0.035      346.722       25.172      862.410
07/04/2013  02:03:00     -152.324      177.284      -30.655       54.317       91.508       39.432     2950.363     8373.779     1554.919        3.422        0.644      233.735       34.041        0.021      346.782       25.275      862.403
07/04/2013  02:04:00      -62.376       67.310      -14.060       34.991       42.677       24.964     1224.378     1821.322      623.194        0.614        0.183       91.768       14.553        0.025      346.663       25.072      862.390
07/04/2013  02:05:00      -92.329       13.137      -20.003       37.695       53.174       26.429     1420.877     2827.450      698.496        0.702        0.247       93.259       28.907        0.096      346.731       25.190      862.394
07/04/2013  02:06:00     -101.489       66.854      -17.213       48.838       57.528       26.461     2385.128     3309.492      700.163        1.073        0.320      121.530       21.350        0.031      346.741       25.205      862.413
07/04/2013  02:07:00     -115.292      104.507      -19.285       54.248       64.765       34.551     2942.840     4194.488     1193.771        1.646        0.417      155.609       39.054        0.063      346.753       25.226      862.409
07/04/2013  02:08:00     -118.212      106.148      -21.486       56.716       59.858       33.611     3216.664     3583.000     1129.723        1.681        0.396      158.875       35.336        0.049      346.761       25.239      862.417
07/04/2013  02:09:00     -130.764      132.764      -25.947       60.593       52.606       37.731     3671.488     2767.432     1423.663        2.163        0.393      186.348       26.913        0.021      346.770       25.255      862.417
07/04/2013  02:10:00     -123.854       86.870      -30.693       31.703       39.178       27.754     1005.050     1534.884      770.272        1.357        0.166      151.282       21.550        0.020      346.762       25.243      862.408
07/04/2013  02:11:00      -48.800       32.719        4.192       49.447       88.596       28.460     2445.026     7849.293      809.968        0.728        0.555       58.754       25.734        0.192      346.672       25.087      862.393
07/04/2013  02:12:00      -85.230       51.727      -11.758       42.736       38.758       21.118     1826.357     1502.188      445.978        0.693        0.189       99.699       20.605        0.043      346.730       25.187      862.399
07/04/2013  02:13:00      -71.000       52.006      -12.943       35.536       43.869       19.603     1262.817     1924.496      384.269        0.574        0.179       88.009       21.488        0.060      346.677       25.096      862.391
07/04/2013  02:14:00     -144.316       84.772      -36.546       38.763       45.599       18.160     1502.577     2079.275      329.777        1.663        0.196      167.372       15.717        0.009      346.712       25.156      862.392
07/04/2013  02:15:00      -79.860      -31.801        4.138       78.222       44.690       28.990     6118.734     1997.236      840.416        0.818        0.448       85.959       30.347        0.125      346.653       25.056      862.389
07/04/2013  02:16:00      -73.766       12.415       -6.287       53.900       31.870       23.485     2905.196     1015.687      551.566        0.505        0.224       74.803       22.665        0.092      346.639       25.031      862.384
07/04/2013  02:17:00     -142.359       65.491      -25.386       47.068       65.242       28.051     2215.373     4256.464      786.855        1.623        0.363      156.701       28.651        0.033      346.737       25.199      862.375
07/04/2013  02:18:00      -52.930       34.568       -2.386       43.018       33.433       23.248     1850.577     1117.785      540.468        0.375        0.175       63.218       15.172        0.058      346.646       25.042      862.366
07/04/2013  02:19:00      -83.779       -4.658       -6.659       38.337       42.070       21.718     1469.731     1769.925      471.669        0.540        0.186       83.908       18.316        0.048      346.538       24.857      862.367
07/04/2013  02:20:00      -86.468      -46.187        0.105       35.758       43.804       19.348     1278.609     1918.776      374.354        0.659        0.179       98.031       18.401        0.035      346.528       24.840      862.365
07/04/2013  02:21:00      -28.678      -29.173       -0.636       31.641       22.361       14.431     1001.162      499.993      208.261        0.169        0.085       40.908       11.695        0.082      346.543       24.866      862.368
07/04/2013  02:22:00      -51.411      -34.437        0.635       30.158       26.033       18.020      909.480      677.741      324.724        0.287        0.096       61.879       11.843        0.037      346.514       24.815      862.369
07/04/2013  02:23:00      -63.731      -60.177       -4.196       47.005       36.316       30.045     2209.444     1318.876      902.675        0.606        0.222       87.652       27.571        0.099      346.397       24.614      862.372
07/04/2013  02:24:00      -88.043      -79.437       -6.564       47.475       35.042       29.154     2253.880     1227.921      849.934        0.922        0.217      118.583       21.655        0.033      346.395       24.612      862.358
07/04/2013  02:25:00      -47.907      -51.611       14.549       54.454       48.413       32.618     2965.218     2343.813     1063.947        0.577        0.319       70.418       34.474        0.240      346.413       24.642      862.352
07/04/2013  02:26:00     -120.533      -92.216        2.881       54.120       43.113       24.794     2928.973     1858.768      614.763        1.422        0.270      151.762       25.169        0.028      346.382       24.589      862.360
07/04/2013  02:27:00      -97.062      -85.133       -4.268       38.494       48.881       27.007     1481.811     2389.306      729.363        1.064        0.230      129.107       24.251        0.035      346.322       24.486      862.378
07/04/2013  02:28:00      -68.293      -74.994       -3.461       51.379       47.628       19.401     2639.849     2268.421      376.418        0.779        0.264      101.430       18.998        0.035      346.294       24.437      862.395
07/04/2013  02:29:00      -77.510      -48.903       -0.782       44.686       45.069       30.283     1996.881     2031.219      917.086        0.667        0.247       91.647       24.243        0.070      346.268       24.393      862.415
07/04/2013  02:30:00      -13.585      -39.837        9.009       39.358       32.548       23.425     1549.028     1059.342      548.745        0.250        0.158       42.089       20.084        0.228      346.345       24.526      862.425
07/04/2013  02:31:00      -30.860      -29.361        1.130       23.116       20.928       12.043      534.352      437.985      145.026        0.147        0.056       42.596       14.701        0.119      346.338       24.514      862.424
07/04/2013  02:32:00      -88.489      -47.945      -11.551       20.328       13.923       12.648      413.237      193.849      159.983        0.551        0.038      100.643       10.367        0.011      346.390       24.603      862.419
07/04/2013  02:33:00      -63.175      -38.001       -7.723       28.123       10.289       10.503      790.892      105.862      110.317        0.325        0.050       73.723        9.944        0.018      346.412       24.640      862.411
07/04/2013  02:34:00      -76.489       -3.323       -2.964       26.809       26.423       14.266      718.739      698.173      203.523        0.375        0.081       76.561        9.660        0.016      346.502       24.796      862.388
07/04/2013  02:35:00     -104.617       -5.444      -11.019       20.243       22.168       14.077      409.765      491.417      198.172        0.610        0.055      104.758        8.202        0.006      346.541       24.862      862.375
07/04/2013  02:36:00     -129.260      -23.841      -13.611       22.814       31.885       13.391      520.495     1016.684      179.318        0.959        0.086      131.441       11.979        0.008      346.519       24.826      862.359
07/04/2013  02:37:00      -84.756      -20.220       -1.427       26.663       20.397       14.134      710.898      416.053      199.779        0.446        0.066       87.135       12.219        0.020      346.416       24.648      862.344
07/04/2013  02:38:00     -149.442       -7.199      -12.438       45.732       25.692       20.580     2091.452      660.087      423.527        1.286        0.159      149.615       21.792        0.021      346.465       24.732      862.322
07/04/2013  02:39:00     -162.212      -48.397       -5.307       31.129       34.615       21.564      969.008     1198.187      464.987        1.566        0.132      169.278       18.387        0.012      346.538       24.858      862.301
07/04/2013  02:40:00     -128.446      -41.738       -0.919       31.264       32.925       15.079      977.438     1084.070      227.386        1.026        0.114      135.057       13.511        0.010      346.454       24.712      862.289
07/04/2013  02:41:00     -134.121      -35.028      -16.426       22.078       18.332       14.917      487.448      336.059      222.512        1.027        0.052      138.620       11.509        0.007      346.442       24.692      862.281
07/04/2013  02:42:00      -75.648      -11.815       -3.058       25.247       21.665       15.920      637.433      469.367      253.436        0.362        0.068       76.565        9.539        0.016      346.343       24.521      862.279
07/04/2013  02:43:00      -49.881      -13.087       -0.537       22.173       19.602       11.089      491.637      384.242      122.975        0.183        0.050       51.569       11.580        0.050      346.341       24.519      862.282
07/04/2013  02:44:00      -49.556       -0.706       -0.063       16.737       14.886        9.201      280.114      221.582       84.662        0.152        0.029       49.561        8.402        0.029      346.316       24.476      862.281
07/04/2013  02:45:00      -76.640      -20.802       -4.877       29.883       18.097       13.929      892.995      327.499      194.018        0.387        0.071       79.413       14.829        0.035      346.377       24.580      862.273
07/04/2013  02:46:00      -67.363      -22.878      -10.956       18.375       14.875       15.769      337.628      221.259      248.666        0.299        0.040       71.142        7.281        0.010      346.396       24.615      862.271
07/04/2013  02:47:00      -57.742      -12.816       -1.566       11.482       15.498        9.461      131.827      240.175       89.509        0.198        0.023       59.147        5.251        0.008      346.320       24.483      862.275
07/04/2013  02:48:00      -52.480      -15.493       -0.906       30.086       16.381       14.017      905.169      268.329      196.472        0.218        0.068       54.719       17.309        0.100      346.336       24.510      862.283
07/04/2013  02:49:00      -66.174      -23.475      -11.071       16.224       10.703       11.031      263.206      114.554      121.690        0.278        0.025       70.215        7.415        0.011      346.336       24.509      862.295
07/04/2013  02:50:00      -15.236      -26.255       -2.091       22.454       22.367       10.665      504.178      500.273      113.746        0.102        0.056       30.356       11.562        0.145      346.229       24.326      862.292
07/04/2013  02:51:00       -5.986      -32.447        6.892        8.578       10.755       10.048       73.586      115.673      100.963        0.071        0.015       32.995        3.748        0.013      346.281       24.416      862.277
07/04/2013  02:52:00       -6.218      -10.777        0.720        4.714       10.692        4.844       22.223      114.328       23.463        0.016        0.008       12.442        5.409        0.189      346.386       24.598      862.268
07/04/2013  02:53:00      -24.839        4.689        1.179        6.825        4.881        4.422       46.574       23.827       19.554        0.037        0.004       25.277        3.777        0.022      346.412       24.641      862.263
07/04/2013  02:54:00      -52.145      -21.072       -6.557       11.628       14.876        6.704      135.214      221.287       44.942        0.180        0.020       56.242        4.211        0.006      346.246       24.355      862.253
07/04/2013  02:55:00       -6.400      -20.503       -1.724       17.284        8.291        7.553      298.727       68.748       57.041        0.044        0.021       21.479        4.994        0.054      346.232       24.329      862.252
07/04/2013  02:56:00        7.305      -31.741       -6.082       12.408       18.428        8.579      153.962      339.577       73.599        0.083        0.028       32.571        5.003        0.024      346.379       24.583      862.250
07/04/2013  02:57:00       37.905      -57.448      -14.054       14.986       14.258        9.080      224.595      203.277       82.441        0.272        0.026       68.827        7.457        0.012      346.170       24.225      862.258
07/04/2013  02:58:00       27.324      -22.836       -2.325       17.639       23.158       16.563      311.134      536.300      274.321        0.120        0.056       35.611       11.954        0.113      346.097       24.100      862.264
07/04/2013  02:59:00        5.850      -13.618        8.924       12.742       25.740       16.576      162.346      662.556      274.750        0.070        0.055       14.821       12.465        0.707      346.033       23.991      862.271
07/04/2013  03:00:00       21.691       10.491       11.868       14.481       14.511       13.619      209.698      210.577      185.482        0.066        0.030       24.095       11.819        0.241      345.919       23.794      862.276
07/04/2013  03:01:00       24.333       16.944       12.940       14.036       12.748       14.141      197.004      162.507      199.964        0.080        0.028       29.651        8.415        0.081      345.984       23.905      862.279
07/04/2013  03:02:00        9.944       17.830       26.220       13.805       12.773        8.253      190.591      163.141       68.105        0.076        0.021       20.416        9.044        0.196      346.055       24.028      862.276
07/04/2013  03:03:00        1.872       -9.716        7.649        7.296       10.643        7.318       53.224      113.265       53.556        0.019        0.011        9.895        6.448        0.425      346.088       24.085      862.266
07/04/2013  03:04:00        0.112      -33.339       -7.318        9.434        9.060        7.056       88.991       82.089       49.780        0.069        0.011       33.339        4.821        0.021      346.103       24.108      862.259
07/04/2013  03:05:00        1.006      -29.318       -2.400        8.903        6.699        7.066       79.269       44.874       49.928        0.052        0.009       29.335        1.177        0.002      346.158       24.207      862.243
07/04/2013  03:06:00        8.777      -17.965       -1.239       10.205       16.605        8.335      104.145      275.711       69.477        0.043        0.022       19.994       10.037        0.252      346.124       24.143      862.235
07/04/2013  03:07:00        6.033        3.818        9.119        6.136        3.989        4.239       37.647       15.909       17.972        0.010        0.004        7.139        1.039        0.021      345.996       23.925      862.223
07/04/2013  03:08:00       32.868        5.771        3.654       12.591        8.251        6.992      158.535       68.080       48.883        0.070        0.014       33.370        6.595        0.039      345.969       23.881      862.214
07/04/2013  03:09:00       17.063       10.795        4.241       11.434       12.887       12.568      130.738      166.065      157.958        0.044        0.023       20.191        5.895        0.085      345.870       23.710      862.203
07/04/2013  03:10:00       26.747       33.043       36.643       21.549       17.466       11.084      464.359      305.057      122.846        0.202        0.045       42.512        4.058        0.009      345.986       23.908      862.196
07/04/2013  03:11:00       -5.614       -2.725       34.435       12.414       28.380       10.987      154.110      805.413      120.718        0.115        0.054        6.241        7.632        1.496      345.970       23.881      862.197
07/04/2013  03:12:00       -0.267      -41.546       19.977       16.496       27.590       18.698      272.108      761.208      349.597        0.175        0.069       41.547       11.585        0.078      346.061       24.037      862.192
07/04/2013  03:13:00        3.120       -6.619       24.244       12.532       23.494       11.665      157.041      551.979      136.080        0.074        0.042        7.318       11.009        2.264      345.970       23.882      862.187
07/04/2013  03:14:00       -7.276       17.469       45.499        8.412       14.553       10.203       70.754      211.791      104.109        0.141        0.019       18.923        9.718        0.264      346.026       23.977      862.201
07/04/2013  03:15:00       16.566      -41.584       16.674       24.474       38.026       21.861      598.975     1445.974      477.914        0.240        0.126       44.763       24.657        0.303      346.127       24.151      862.202
07/04/2013  03:16:00        3.329      -12.507       27.367       16.411       27.406       13.013      269.326      751.088      169.334        0.105        0.059       12.943       11.676        0.814      346.204       24.283      862.215
07/04/2013  03:17:00       19.041      -20.347       15.536       17.625       27.657       17.833      310.647      764.898      318.000        0.121        0.070       27.867       20.603        0.547      346.196       24.270      862.218
07/04/2013  03:18:00       15.675      -50.426       -1.182       11.964       14.866        8.050      143.138      220.988       64.803        0.161        0.021       52.807        6.341        0.014      346.209       24.294      862.217
07/04/2013  03:19:00       20.365      -59.331        3.343       24.743       13.842       16.572      612.214      191.601      274.626        0.251        0.054       62.729        9.617        0.024      346.132       24.161      862.217
07/04/2013  03:20:00       11.051      -53.248        6.078       23.154       31.600       23.905      536.110      998.542      571.460        0.255        0.105       54.383       21.291        0.153      346.113       24.127      862.217
07/04/2013  03:21:00       39.071      -78.136       -0.046       28.955       20.427       18.650      838.415      417.268      347.840        0.462        0.080       87.361       14.863        0.029      346.107       24.116      862.227
07/04/2013  03:22:00       33.879      -71.287       -0.579       21.968       32.720       22.107      482.614     1070.620      488.729        0.414        0.102       78.928       14.491        0.034      346.147       24.186      862.235
07/04/2013  03:23:00       27.105      -30.904       22.615       31.716       35.677       23.112     1005.878     1272.859      534.173        0.251        0.141       41.106       21.489        0.273      346.117       24.133      862.246
07/04/2013  03:24:00       28.842      -67.769       10.608       26.308       33.204       29.344      692.127     1102.510      861.044        0.410        0.133       73.651       22.547        0.094      346.177       24.237      862.237
07/04/2013  03:25:00       26.156      -60.019       16.463       24.009       33.723       22.741      576.408     1137.227      517.158        0.339        0.112       65.470       19.668        0.090      346.147       24.186      862.229
07/04/2013  03:26:00       28.085        9.198       19.156       16.106       17.056       14.229      259.414      290.916      202.472        0.100        0.038       29.552        7.303        0.061      345.914       23.786      862.222
07/04/2013  03:27:00       11.637       -0.630       22.110       16.685       15.251       17.841      278.378      232.585      318.315        0.073        0.041       11.654       12.211        1.098      345.960       23.864      862.218
07/04/2013  03:28:00       11.763       11.286       20.063       15.225       12.147       10.453      231.796      147.546      109.273        0.058        0.024       16.301        7.068        0.188      345.915       23.789      862.205
07/04/2013  03:29:00        1.929      -19.208       12.906        7.795       21.968       12.352       60.755      482.612      152.573        0.062        0.035       19.305       10.795        0.313      345.945       23.837      862.182
07/04/2013  03:30:00       -5.174       -4.657       20.359        7.305       14.563        7.502       53.363      212.085       56.278        0.039        0.016        6.961        4.137        0.353      345.918       23.791      862.154
07/04/2013  03:31:00       -1.047      -11.965       12.365       11.705       18.298        8.385      137.015      334.826       70.300        0.042        0.027       12.011        9.493        0.625      345.906       23.774      862.147
07/04/2013  03:32:00       12.900       -2.001       19.795        9.513       14.998        8.800       90.489      224.935       77.436        0.048        0.020       13.054        7.287        0.312      345.901       23.764      862.126
07/04/2013  03:33:00       -9.619      -10.483       -0.427       13.473       10.300       12.672      181.527      106.093      160.583        0.033        0.022       14.227       11.095        0.608      345.810       23.606      862.107
07/04/2013  03:34:00      -39.386       -6.617       -9.143        6.374        4.980        6.544       40.627       24.802       42.827        0.089        0.005       39.938        2.947        0.005      345.755       23.512      862.093
07/04/2013  03:35:00      -49.648       -6.985       -5.120        7.170        7.783        5.481       51.415       60.572       30.042        0.134        0.007       50.137        3.894        0.006      345.635       23.304      862.079
07/04/2013  03:36:00      -45.547      -16.952       -7.478       15.254       10.195        7.158      232.693      103.944       51.236        0.140        0.019       48.599        5.508        0.013      345.577       23.206      862.062
07/04/2013  03:37:00      -29.609      -18.627        0.915       33.840       23.645       13.945     1145.160      559.092      194.450        0.156        0.095       34.981        9.375        0.072      345.566       23.187      862.037
07/04/2013  03:38:00      -27.856      -36.998        6.266       34.887       19.319       14.619     1217.093      373.221      213.701        0.199        0.090       46.312       12.229        0.070      345.571       23.196      862.012
07/04/2013  03:39:00      -69.536      -44.906       -6.567       23.315       18.393       11.302      543.568      338.320      127.744        0.395        0.050       82.776        8.732        0.011      345.609       23.261      861.984
07/04/2013  03:40:00      -74.421      -33.287       -4.216       17.703       20.910       16.283      313.386      437.246      265.151        0.384        0.051       81.526       14.362        0.031      345.539       23.143      861.957
07/04/2013  03:41:00      -84.023      -37.434       -5.716       11.664       12.484        8.614      136.056      155.842       74.202        0.443        0.018       91.984        6.220        0.005      345.534       23.133      861.937
07/04/2013  03:42:00      -83.624      -28.890       -9.022       10.752       15.529       11.235      115.610      241.154      126.235        0.420        0.024       88.474        7.348        0.007      345.479       23.038      861.927
07/04/2013  03:43:00     -112.544       -7.932      -11.507       17.313       13.533       12.015      299.735      183.154      144.354        0.674        0.031      112.823       10.355        0.008      345.385       22.876      861.914
07/04/2013  03:44:00     -109.613      -20.524      -11.476       19.713       15.711       14.290      388.610      246.840      204.204        0.670        0.042      111.518       10.512        0.009      345.291       22.715      861.902
07/04/2013  03:45:00      -99.599      -16.643       -7.726       30.665       19.694       16.586      940.332      387.852      275.098        0.593        0.080      100.980       14.560        0.021      345.224       22.599      861.893
07/04/2013  03:46:00      -93.199      -27.413        3.697       28.773       25.184       18.195      827.913      634.219      331.057        0.562        0.090       97.146       19.155        0.039      345.193       22.548      861.888
07/04/2013  03:47:00      -77.157      -32.285        1.875       25.435       21.871       12.131      646.927      478.336      147.163        0.414        0.064       83.640       10.358        0.015      345.164       22.499      861.897
07/04/2013  03:48:00      -94.222      -33.199       -9.061       23.123       18.104       12.308      534.665      327.754      151.493        0.554        0.051       99.900       11.261        0.013      345.169       22.508      861.910
07/04/2013  03:49:00      -86.971      -16.425       -4.276       29.037       22.733       18.163      843.141      516.787      329.905        0.477        0.084       88.508       17.690        0.040      345.060       22.321      861.914
07/04/2013  03:50:00      -87.765      -36.562       -2.239       20.037       18.291       13.212      401.499      334.567      174.560        0.498        0.046       95.076        9.560        0.010      345.037       22.282      861.911
07/04/2013  03:51:00     -110.044      -42.286       -6.608       29.250       19.735       13.360      855.538      389.459      178.499        0.768        0.071      117.888        8.455        0.005      345.057       22.316      861.903
07/04/2013  03:52:00     -120.835      -54.337       -8.721       23.376       21.414       17.958      546.460      458.546      322.492        0.948        0.066      132.490       12.660        0.009      345.072       22.342      861.908
07/04/2013  03:53:00      -30.776      -43.746        9.977       39.424       31.298       22.425     1554.223      979.545      502.873        0.300        0.152       53.487       14.314        0.072      345.086       22.365      861.909
07/04/2013  03:54:00      -98.651      -71.546       -3.295       60.020       51.509       25.376     3602.384     2653.209      643.939        1.088        0.345      121.864       31.471        0.067      345.106       22.400      861.901
07/04/2013  03:55:00     -130.312      -61.759        3.096       43.880       36.748       26.030     1925.457     1350.427      677.541        1.238        0.198      144.206       18.689        0.017      345.072       22.343      861.898
07/04/2013  03:56:00      -87.359      -52.190       -4.158       45.454       31.409       20.518     2066.111      986.545      420.970        0.692        0.174      101.762       18.948        0.035      345.052       22.306      861.902
07/04/2013  03:57:00      -81.963      -84.593      -13.671       41.534       33.632       26.337     1725.105     1131.134      693.647        0.880        0.177      117.788       25.782        0.048      345.121       22.425      861.907
07/04/2013  03:58:00     -129.099      -76.956       -4.986       36.690       37.413       22.587     1346.183     1399.747      510.189        1.293        0.163      150.296       15.963        0.011      345.097       22.386      861.908
07/04/2013  03:59:00     -139.935      -47.510       -3.957       53.188       34.836       26.660     2828.914     1213.515      710.767        1.330        0.238      147.780       28.527        0.037      345.099       22.388      861.903
07/04/2013  04:00:00      -90.908      -46.317       -0.697       44.814       45.043       27.219     2008.287     2028.844      740.881        0.759        0.239      102.027       25.471        0.062      345.079       22.354      861.907
07/04/2013  04:01:00     -105.917      -58.290        3.219       37.313       35.879       20.775     1392.231     1287.285      431.608        0.887        0.156      120.897       17.854        0.022      345.082       22.359      861.918
07/04/2013  04:02:00      -78.452      -72.792        7.422       52.606       36.142       25.690     2767.413     1306.277      659.964        0.812        0.237      107.021       32.727        0.094      345.114       22.415      861.922
07/04/2013  04:03:00      -97.042      -59.227       -7.143       33.032       46.197       19.271     1091.107     2134.157      371.387        0.829        0.180      113.688       12.634        0.012      345.120       22.424      861.924
07/04/2013  04:04:00     -111.426      -30.732       -1.406       25.916       32.596       19.555      671.638     1062.514      382.409        0.774        0.106      115.586       15.874        0.019      345.103       22.394      861.935
07/04/2013  04:05:00     -114.154      -38.652       -0.193       28.832       32.322       20.057      831.277     1044.726      402.289        0.840        0.114      120.520       12.242        0.010      345.012       22.239      861.962
07/04/2013  04:06:00      -75.129      -52.116        1.196       56.862       32.498       25.981     3233.322     1056.111      675.007        0.666        0.248       91.435       27.258        0.089      345.058       22.318      861.984
07/04/2013  04:07:00     -117.239      -80.036       -9.281       50.521       31.554       21.519     2552.342      995.647      463.075        1.212        0.201      141.953        7.567        0.003      345.120       22.425      861.994
07/04/2013  04:08:00      -83.152      -59.533        4.852       53.673       37.059       22.378     2880.763     1373.400      500.774        0.762        0.238      102.267       21.871        0.046      345.120       22.425      862.010
07/04/2013  04:09:00      -61.945      -27.512        0.547       25.799       22.994       17.451      665.600      528.721      304.542        0.305        0.075       67.779       13.651        0.041      345.058       22.316      862.034
07/04/2013  04:10:00     -100.830       -3.021       -5.942       28.297       23.279       20.173      800.721      541.914      406.969        0.598        0.087      100.875       18.270        0.033      344.898       22.045      862.035
07/04/2013  04:11:00      -87.553      -35.655        1.803       35.006       29.529       18.669     1225.423      871.986      348.549        0.569        0.122       94.535       18.056        0.036      344.973       22.173      862.029
07/04/2013  04:12:00     -119.012      -49.561        2.096       35.325       25.559       20.733     1247.842      653.238      429.867        0.948        0.117      128.919       17.360        0.018      344.941       22.117      862.025
07/04/2013  04:13:00     -112.441      -63.583        5.738       46.513       28.450       21.567     2163.416      809.428      465.153        1.008        0.172      129.173       17.636        0.019      344.991       22.204      862.017
07/04/2013  04:14:00     -103.514      -66.053       -3.026       44.194       31.745       20.918     1953.130     1007.745      437.550        0.924        0.170      122.793       12.700        0.011      344.995       22.209      861.991
07/04/2013  04:15:00      -59.785      -75.723        0.073       33.991       30.838       20.754     1155.395      951.008      430.719        0.592        0.127       96.479       20.519        0.045      345.059       22.320      861.979
07/04/2013  04:16:00      -71.610      -77.539       -6.831       48.363       24.458       23.087     2339.017      598.180      533.014        0.733        0.174      105.547       26.473        0.063      345.116       22.417      861.970
07/04/2013  04:17:00      -87.440      -54.631        4.419       48.254       26.330       18.029     2328.410      693.263      325.029        0.700        0.167      103.104       16.162        0.025      345.094       22.379      861.961
07/04/2013  04:18:00      -81.727      -72.602       -3.304       41.277       28.946       24.010     1703.771      837.860      576.485        0.754        0.156      109.318       21.546        0.039      345.103       22.395      861.961
07/04/2013  04:19:00      -62.713      -51.313        8.383       47.429       32.591       22.295     2249.506     1062.142      497.068        0.522        0.190       81.030       22.678        0.078      345.067       22.334      861.969
07/04/2013  04:20:00      -73.608      -26.726        2.220       26.032       21.778       19.003      677.682      474.287      361.125        0.382        0.076       78.309       16.691        0.045      345.073       22.346      861.992
07/04/2013  04:21:00      -89.148      -24.112       -2.122       20.107       20.889       13.083      404.283      436.349      171.170        0.477        0.051       92.351       10.392        0.013      345.052       22.307      862.006
07/04/2013  04:22:00      -60.470      -42.510       -0.247       24.518       12.271       13.129      601.123      150.582      172.381        0.319        0.046       73.917       13.270        0.032      345.079       22.354      862.011
07/04/2013  04:23:00      -44.550      -38.940        2.202       32.631       20.258       18.755     1064.759      410.388      351.753        0.267        0.091       59.169       16.981        0.082      345.106       22.401      862.013
07/04/2013  04:24:00      -49.210      -49.579        6.712       36.588       31.511       22.974     1338.673      992.939      527.797        0.389        0.143       69.855       19.591        0.079      345.163       22.498      862.009
07/04/2013  04:25:00      -20.674      -28.662       15.470       43.914       34.255       23.780     1928.466     1173.397      565.479        0.258        0.183       35.340       23.957        0.460      345.101       22.391      862.006
07/04/2013  04:26:00      -39.649      -53.636        7.888       35.940       32.585       24.329     1291.719     1061.776      591.922        0.373        0.147       66.700       23.180        0.121      345.190       22.544      861.997
07/04/2013  04:27:00      -68.253      -69.121       -6.790       35.038       20.388       18.726     1227.683      415.667      350.661        0.574        0.100       97.140       16.895        0.030      345.177       22.521      861.989
07/04/2013  04:28:00      -74.026      -63.325       -1.737       18.829       21.674       12.981      354.537      469.772      168.503        0.524        0.050       97.416        5.993        0.004      345.197       22.554      861.983
07/04/2013  04:29:00      -93.678      -53.059       -9.855       18.786       18.000       10.514      352.931      324.004      110.544        0.624        0.039      107.661        1.716        0.000      345.188       22.538      861.983
07/04/2013  04:30:00      -80.929      -73.812       -5.275       12.065       12.865        6.918      145.558      165.517       47.853        0.619        0.018      109.534        5.696        0.003      345.181       22.525      861.988
07/04/2013  04:31:00      -62.515      -86.458      -11.090       26.538       22.495       16.112      704.261      506.011      259.606        0.649        0.073      106.692        6.480        0.004      345.189       22.543      861.980
07/04/2013  04:32:00      -59.389      -65.144        2.713       42.701       25.419       17.463     1823.347      646.139      304.961        0.528        0.139       88.152       19.883        0.051      345.286       22.706      861.977
07/04/2013  04:33:00      -91.432      -52.607        0.310       30.485       28.971       19.205      929.344      839.308      368.821        0.663        0.107      105.486       19.054        0.033      345.183       22.530      861.977
07/04/2013  04:34:00      -93.709      -45.342       -4.443       19.518       18.849       14.782      380.943      355.269      218.517        0.591        0.048      104.102       12.282        0.014      345.015       22.245      861.984
07/04/2013  04:35:00      -65.536      -62.642       -4.895       41.689       30.637       20.509     1737.966      938.632      420.616        0.567        0.155       90.659       18.889        0.043      345.081       22.357      861.986
07/04/2013  04:36:00      -35.534      -48.556        3.110       40.185       34.891       28.605     1614.808     1217.354      818.254        0.364        0.183       60.169       25.775        0.183      345.221       22.597      861.979
07/04/2013  04:37:00      -53.037      -56.626        3.966       49.807       38.314       26.355     2480.688     1467.952      694.569        0.534        0.232       77.585       28.718        0.137      345.238       22.625      861.972
07/04/2013  04:38:00      -84.415      -90.620       -6.487       40.937       45.214       27.180     1675.862     2044.271      738.754        0.992        0.223      123.846       22.915        0.034      345.035       22.279      861.962
07/04/2013  04:39:00      -81.740      -55.118       -8.893       43.271       33.708       17.842     1872.404     1136.232      318.334        0.656        0.166       98.587       11.450        0.013      344.933       22.104      861.937
07/04/2013  04:40:00     -127.070      -60.437       -4.724       49.632       43.815       28.423     2463.317     1919.768      807.839        1.251        0.260      140.711       29.013        0.043      344.883       22.019      861.912
07/04/2013  04:41:00     -132.580      -87.167       -5.066       51.749       47.462       28.091     2677.917     2252.682      789.077        1.546        0.286      158.668       30.207        0.036      344.807       21.887      861.894
07/04/2013  04:42:00      -83.271      -55.768       -7.531       33.672       35.936       22.172     1133.791     1291.400      491.611        0.651        0.146      100.220       20.286        0.041      344.798       21.873      861.876
07/04/2013  04:43:00      -71.895      -47.118      -13.398       27.400       22.647       12.788      750.733      512.903      163.536        0.450        0.071       85.959        6.469        0.006      344.836       21.937      861.849
07/04/2013  04:44:00      -74.354      -18.687       -7.734       24.884       15.577       10.422      619.233      242.645      108.617        0.345        0.049       76.667        9.670        0.016      344.841       21.945      861.826
07/04/2013  04:45:00      -62.090      -33.817       -3.980       31.274       20.784       14.821      978.036      431.973      219.669        0.332        0.081       70.702       13.200        0.035      344.775       21.833      861.818
07/04/2013  04:46:00      -90.040      -33.531       -9.501       39.426       24.403       12.348     1554.377      595.483      152.485        0.581        0.115       96.081       13.620        0.020      344.812       21.895      861.816
07/04/2013  04:47:00      -75.349      -56.021       -3.813       41.574       21.118       19.621     1728.398      445.965      384.993        0.569        0.128       93.892       20.483        0.048      344.827       21.923      861.818
07/04/2013  04:48:00      -49.201      -41.020       14.092       51.811       25.274       23.774     2684.372      638.762      565.224        0.409        0.194       64.058       31.989        0.249      344.785       21.850      861.814
07/04/2013  04:49:00      -82.814      -30.106       -0.866       26.857       25.439       17.585      721.294      647.148      309.246        0.472        0.084       88.116       15.661        0.032      344.796       21.867      861.810
07/04/2013  04:50:00      -68.804       -8.373       -0.059       36.567       21.982       19.118     1337.122      483.224      365.489        0.349        0.109       69.311       19.030        0.075      344.659       21.636      861.819
07/04/2013  04:51:00      -91.173      -36.385       -1.770       23.858       24.261       13.439      569.186      588.605      180.604        0.549        0.067       98.165       10.907        0.012      344.646       21.612      861.823
07/04/2013  04:52:00      -63.694      -88.614      -11.373       23.100       31.715       21.257      533.588     1005.836      451.867        0.701        0.100      109.130       12.131        0.012      344.690       21.688      861.824
07/04/2013  04:53:00      -55.896      -76.619        8.842       59.976       48.015       31.986     3597.092     2305.399     1023.124        0.800        0.346       94.841       33.640        0.126      344.605       21.542      861.825
07/04/2013  04:54:00     -122.782      -94.676        0.089       45.617       35.843       30.164     2080.946     1284.721      909.884        1.416        0.214      155.045       28.629        0.034      344.430       21.243      861.828
07/04/2013  04:55:00     -121.150      -95.001       -6.242       33.608       30.749       22.181     1129.469      945.517      492.002        1.315        0.128      153.956       21.192        0.019      344.427       21.237      861.838
07/04/2013  04:56:00     -111.548      -82.006       -1.589       40.787       24.669       22.481     1663.550      608.561      505.413        1.097        0.139      138.448       20.674        0.022      344.435       21.251      861.823
07/04/2013  04:57:00     -114.412      -61.006       -3.331       26.350       29.569       16.738      694.303      874.355      280.162        0.934        0.092      129.661       15.915        0.015      344.479       21.328      861.816
07/04/2013  04:58:00      -74.036      -36.776        0.647       49.719       20.630       22.391     2472.022      425.593      501.357        0.512        0.170       82.667       26.334        0.101      344.483       21.334      861.821
07/04/2013  04:59:00      -96.694      -23.087       -1.854       27.887       26.237       15.762      777.685      688.361      248.427        0.580        0.086       99.412       12.418        0.016      344.472       21.313      861.839
07/04/2013  05:00:00      -91.550      -33.216       -1.977       26.227       26.169       18.296      687.874      684.794      334.733        0.560        0.085       97.390       14.018        0.021      344.420       21.227      861.853
07/04/2013  05:01:00     -115.126      -50.496       -7.837       28.956       26.217       16.238      838.457      687.332      263.677        0.883        0.089      125.714       13.986        0.012      344.414       21.217      861.870
07/04/2013  05:02:00      -94.205      -31.752       -6.318       27.254       31.258       16.374      742.755      977.066      268.123        0.595        0.099       99.412        9.156        0.008      344.367       21.135      861.890
07/04/2013  05:03:00     -109.202      -37.540       -6.614       24.811       20.988       14.646      615.565      440.483      214.515        0.732        0.064      115.474        6.119        0.003      344.360       21.124      861.916
07/04/2013  05:04:00      -70.613      -64.190       -6.008       31.920       32.599       14.697     1018.856     1062.713      215.989        0.572        0.115       95.429       13.730        0.021      344.412       21.212      861.930
07/04/2013  05:05:00      -37.178      -34.953        3.571       24.340       31.835       12.674      592.456     1013.441      160.635        0.219        0.088       51.029       14.212        0.078      344.433       21.247      861.936
07/04/2013  05:06:00      -32.001      -36.117        5.685       25.347       19.058       15.057      642.490      363.195      226.711        0.180        0.062       48.255       13.505        0.078      344.425       21.235      861.949
07/04/2013  05:07:00      -11.764      -45.376        0.406       21.656       19.307       14.571      468.973      372.773      212.328        0.163        0.053       46.877        8.501        0.033      344.459       21.290      861.943
07/04/2013  05:08:00      -38.212      -25.311        3.984       24.688       21.967       14.471      609.482      482.569      209.424        0.171        0.065       45.835       10.939        0.057      344.447       21.273      861.926
07/04/2013  05:09:00      -34.503      -33.631        1.249       16.231       22.236       11.717      263.460      494.444      137.290        0.161        0.045       48.182       10.379        0.046      344.437       21.254      861.908
07/04/2013  05:10:00      -59.843      -34.126       -2.346       24.828       19.078       16.468      616.450      363.979      271.208        0.300        0.063       68.889       11.951        0.030      344.452       21.280      861.897
07/04/2013  05:11:00      -38.792      -31.732        3.400       33.592       17.121       12.369     1128.420      293.144      152.992        0.205        0.079       50.117       13.684        0.075      344.460       21.294      861.878
07/04/2013  05:12:00      -77.301      -49.822       -2.186       28.103       25.186       17.272      789.754      634.353      298.316        0.509        0.086       91.966       11.804        0.016      344.382       21.160      861.864
07/04/2013  05:13:00      -97.302      -43.757       -6.052       23.752       17.822       15.343      564.167      317.636      235.420        0.627        0.056      106.688        6.495        0.004      344.316       21.048      861.854
07/04/2013  05:14:00      -24.652      -30.603       11.486       42.452       26.943       21.003     1802.178      725.910      441.113        0.232        0.148       39.297       23.684        0.363      344.354       21.114      861.861
07/04/2013  05:15:00      -38.613      -40.331        8.802       37.862       28.134       16.738     1433.511      791.540      280.171        0.285        0.125       55.836       18.290        0.107      344.347       21.101      861.866
07/04/2013  05:16:00      -43.701      -41.703        9.992       32.701       25.501       19.557     1069.331      650.325      382.482        0.293        0.105       60.406       17.735        0.086      344.406       21.201      861.870
07/04/2013  05:17:00      -62.483      -52.742        5.598       31.921       23.543       18.813     1018.923      554.269      353.945        0.432        0.096       81.767       18.335        0.050      344.372       21.142      861.869
07/04/2013  05:18:00      -51.314      -48.879       12.781       41.888       27.553       22.705     1754.635      759.194      515.502        0.411        0.151       70.868       22.650        0.102      344.383       21.163      861.872
07/04/2013  05:19:00      -86.434      -80.413       -6.039       42.749       29.706       23.853     1827.501      882.431      568.950        0.863        0.164      118.056       24.614        0.043      344.361       21.124      861.854
07/04/2013  05:20:00     -100.246      -72.044       -3.483       40.896       25.876       23.500     1672.483      669.586      552.253        0.907        0.145      123.449       15.032        0.015      344.308       21.035      861.829
07/04/2013  05:21:00     -106.613      -54.229       -6.157       51.340       20.052       19.558     2635.808      402.068      382.502        0.888        0.171      119.612       21.086        0.031      344.239       20.916      861.810
07/04/2013  05:22:00     -119.351      -36.133       -7.729       21.744       20.816       18.755      472.808      433.308      351.742        0.843        0.063      124.701       12.452        0.010      344.193       20.838      861.804
07/04/2013  05:23:00      -80.438      -40.785       -5.862       30.422       26.871       15.658      925.477      722.068      245.159        0.503        0.095       90.187       13.650        0.023      344.184       20.823      861.800
07/04/2013  05:24:00      -78.319      -21.507        1.393       34.237       20.010       16.705     1172.193      400.399      279.057        0.422        0.093       81.219       16.493        0.041      344.154       20.771      861.787
07/04/2013  05:25:00      -95.899       -5.943       -2.844       33.115       17.735       19.119     1096.608      314.529      365.554        0.551        0.089       96.083       19.286        0.040      344.087       20.658      861.782
07/04/2013  05:26:00      -78.038      -14.312        2.989       34.376       21.925       16.113     1181.680      480.687      259.630        0.411        0.096       79.340       11.552        0.021      344.038       20.574      861.786
07/04/2013  05:27:00      -93.911      -35.873       -0.512       41.386       36.269       19.888     1712.825     1315.435      395.525        0.676        0.171      100.529       22.491        0.050      344.062       20.614      861.780
07/04/2013  05:28:00     -107.361      -57.140        0.881       41.523       27.013       20.374     1724.119      729.694      415.094        0.883        0.143      121.620       21.416        0.031      344.085       20.653      861.782
07/04/2013  05:29:00     -101.826      -55.236        3.145       34.586       31.733       19.902     1196.195     1007.004      396.074        0.801        0.130      115.842       14.546        0.016      344.132       20.734      861.789
07/04/2013  05:30:00     -134.498      -39.123       -5.750       40.264       38.596       21.041     1621.220     1489.688      442.708        1.160        0.178      140.073       20.140        0.021      344.086       20.656      861.788
07/04/2013  05:31:00     -102.261      -24.994        0.321       33.005       29.778       22.992     1089.338      886.750      528.647        0.679        0.125      105.271       19.205        0.033      344.035       20.570      861.792
07/04/2013  05:32:00     -113.404      -81.653        0.610       25.740       31.162       22.097      662.560      971.091      488.261        1.082        0.106      139.741       11.711        0.007      344.087       20.658      861.797
07/04/2013  05:33:00     -104.122      -72.062        3.666       54.831       36.055       28.843     3006.458     1299.999      831.916        1.059        0.257      126.627       30.280        0.057      344.018       20.540      861.809
07/04/2013  05:34:00     -146.970      -72.615       -9.795       52.379       31.372       26.668     2743.600      984.227      711.187        1.570        0.222      163.931       27.314        0.028      344.015       20.531      861.823
07/04/2013  05:35:00     -115.220      -70.529       -4.382       35.823       32.518       21.975     1283.306     1057.444      482.892        1.055        0.141      135.092       19.074        0.020      344.004       20.515      861.837
07/04/2013  05:36:00      -88.726      -81.443       -2.510       41.176       30.271       23.099     1695.496      916.343      533.544        0.883        0.157      120.438       16.496        0.019      343.992       20.494      861.863
07/04/2013  05:37:00      -96.748      -84.645       -8.254       52.047       43.582       23.484     2708.939     1899.394      551.513        1.088        0.258      128.550       28.316        0.049      343.972       20.460      861.882
07/04/2013  05:38:00     -126.832      -94.826      -15.329       23.738       25.938       17.929      563.484      672.763      321.457        1.344        0.078      158.361       10.028        0.004      343.967       20.451      861.890
07/04/2013  05:39:00     -116.433      -82.541      -16.940       26.387       26.691       17.771      696.294      712.414      315.825        1.119        0.086      142.722       11.019        0.006      343.978       20.472      861.903
07/04/2013  05:40:00      -78.732      -76.108      -10.887       25.824       22.039       16.708      666.856      485.727      279.153        0.677        0.072      109.504       10.788        0.010      343.979       20.475      861.919
07/04/2013  05:41:00      -76.070      -87.483      -12.599       26.199       26.403       14.494      686.381      697.142      210.087        0.760        0.080      115.930       10.618        0.008      344.005       20.516      861.926
07/04/2013  05:42:00      -88.720      -78.677      -22.069       30.348       23.923       18.940      920.995      572.329      358.711        0.820        0.093      118.580       11.792        0.010      344.025       20.550      861.922
07/04/2013  05:43:00      -36.185      -48.869        7.165       36.559       31.476       22.207     1336.593      990.745      493.130        0.328        0.141       60.807       15.639        0.066      344.016       20.538      861.914
07/04/2013  05:44:00      -45.959      -93.517        2.853       37.543       35.705       29.461     1409.485     1274.833      867.931        0.721        0.178      104.200       24.771        0.057      344.036       20.569      861.916
07/04/2013  05:45:00      -27.429     -110.260       11.239       42.043       62.841       27.115     1767.590     3948.988      735.219        0.974        0.323      113.621       31.188        0.075      344.065       20.620      861.913
07/04/2013  05:46:00      -46.834      -97.634       -3.904       41.066       59.046       28.129     1686.425     3486.409      791.233        0.885        0.298      108.285       28.740        0.070      344.054       20.603      861.892
07/04/2013  05:47:00      -69.342      -45.518        4.820       56.484       36.550       21.526     3190.473     1335.883      463.390        0.595        0.249       82.947       24.564        0.088      344.000       20.507      861.869
07/04/2013  05:48:00      -29.715      -16.512       10.465       41.359       35.369       27.046     1710.565     1250.953      731.508        0.248        0.185       33.995       29.768        0.767      343.993       20.496      861.841
07/04/2013  05:49:00      -40.357      -34.758        5.920       55.184       31.127       26.351     3045.245      968.892      694.379        0.379        0.235       53.261       15.799        0.088      343.968       20.455      861.835
07/04/2013  05:50:00      -19.658      -43.929       -3.353       30.661       37.851       21.645      940.111     1432.699      468.520        0.258        0.142       48.127       18.507        0.148      343.973       20.463      861.830
07/04/2013  05:51:00      -47.248      -41.758        4.379       62.744       38.149       20.943     3936.810     1455.340      438.619        0.491        0.292       63.057       25.740        0.167      343.924       20.379      861.829
07/04/2013  05:52:00      -47.972      -39.537        3.721       54.031       37.628       31.010     2919.331     1415.864      961.592        0.459        0.265       62.165       29.575        0.226      343.878       20.299      861.838
07/04/2013  05:53:00      -69.823      -48.775        0.480       50.304       43.102       27.281     2530.519     1857.811      744.230        0.619        0.257       85.171       28.868        0.115      343.875       20.296      861.839
07/04/2013  05:54:00     -100.726      -78.665        1.205       49.852       42.208       25.662     2485.212     1781.496      658.537        1.063        0.246      127.804       27.231        0.045      343.846       20.245      861.841
07/04/2013  05:55:00     -115.906      -69.395       -0.429       41.654       32.138       20.719     1735.061     1032.858      429.295        1.072        0.160      135.092       18.664        0.019      343.863       20.274      861.845
07/04/2013  05:56:00     -108.189      -76.099        0.206       49.752       39.333       31.184     2475.268     1547.048      972.426        1.124        0.250      132.272       33.059        0.062      343.877       20.299      861.845
07/04/2013  05:57:00     -161.016      -63.658      -17.321       26.750       23.990       22.220      715.544      575.541      493.748        1.603        0.089      173.143       15.137        0.008      343.890       20.321      861.855
07/04/2013  05:58:00     -122.515      -50.259       -8.115       36.951       44.712       18.504     1365.376     1999.187      342.400        1.065        0.185      132.423       12.796        0.009      343.908       20.350      861.866
07/04/2013  05:59:00     -111.451      -26.666       -6.893       37.532       31.839       17.392     1408.686     1013.726      302.479        0.795        0.136      114.596       14.613        0.016      343.915       20.364      861.880
07/04/2013  06:00:00      -93.567      -24.897       -2.886       37.278       27.621       18.632     1389.686      762.898      347.154        0.594        0.125       96.823       13.597        0.020      343.917       20.366      861.897
07/04/2013  06:01:00      -30.352      -33.780        4.175       51.628       33.070       25.005     2665.486     1093.636      625.240        0.323        0.219       45.413       21.183        0.218      344.012       20.528      861.912
07/04/2013  06:02:00      -75.739      -21.347        6.769       75.920       33.656       24.650     5763.915     1132.707      607.600        0.687        0.375       78.690       37.934        0.232      343.949       20.420      861.936
07/04/2013  06:03:00     -104.060      -24.758       -3.486       40.184       41.992       20.247     1614.767     1763.365      409.949        0.762        0.189      106.964       19.616        0.034      343.809       20.182      861.958
07/04/2013  06:04:00     -129.487       -4.580       -4.841       41.997       24.757       22.182     1763.725      612.900      492.055        0.984        0.143      129.568       23.614        0.033      343.708       20.011      861.981
07/04/2013  06:05:00      -94.464      -19.391        1.727       43.524       25.122       17.443     1894.333      631.094      304.274        0.607        0.141       96.434       17.391        0.033      343.720       20.029      861.985
07/04/2013  06:06:00     -109.757        1.715       -7.968       40.537       26.962       20.735     1643.280      726.929      429.931        0.746        0.140      109.771       20.239        0.034      343.672       19.948      861.999
07/04/2013  06:07:00     -144.317       -8.475       -4.553       46.309       29.122       27.552     2144.523      848.072      759.121        1.234        0.188      144.565       26.430        0.033      343.629       19.875      862.007
07/04/2013  06:08:00     -124.515      -37.110       -0.148       36.270       38.820       21.202     1315.533     1506.980      449.536        1.008        0.164      129.928       22.110        0.029      343.653       19.915      862.015
07/04/2013  06:09:00      -96.347      -21.916       -2.201       34.338       34.326       21.808     1179.090     1178.262      475.576        0.630        0.142       98.808       13.214        0.018      343.709       20.011      862.028
07/04/2013  06:10:00      -95.377        2.871       -4.948       28.626       18.165       14.526      819.436      329.978      210.991        0.524        0.068       95.420        9.207        0.009      343.707       20.008      862.038
07/04/2013  06:11:00     -107.869      -11.457      -11.461       23.453       14.256       14.397      550.051      203.224      207.267        0.643        0.048      108.476       14.100        0.017      343.736       20.057      862.034
07/04/2013  06:12:00     -108.613      -40.674       -2.353       26.057       26.618       17.141      678.986      708.518      293.827        0.757        0.084      115.979       10.212        0.008      343.785       20.141      862.023
07/04/2013  06:13:00      -99.651        1.288       -9.246       28.027       22.338       18.871      785.498      499.006      356.133        0.583        0.082       99.659       13.898        0.019      343.807       20.179      861.998
07/04/2013  06:14:00     -145.973      -16.949       -8.796       31.169       38.453       20.624      971.504     1478.651      425.345        1.227        0.144      146.953       17.384        0.014      343.764       20.106      861.969
07/04/2013  06:15:00     -157.816      -12.023      -15.538       40.810       40.243       25.074     1665.445     1619.508      628.720        1.460        0.196      158.273       14.437        0.008      343.759       20.095      861.936
07/04/2013  06:16:00     -192.695       19.820      -22.317       30.124       25.519       21.739      907.479      651.243      472.599        2.003        0.102      193.711       17.698        0.008      343.774       20.122      861.918
07/04/2013  06:17:00     -156.993       13.824      -19.620       33.314       25.351       19.693     1109.792      642.660      387.808        1.368        0.107      157.601       15.834        0.010      343.808       20.179      861.914
07/04/2013  06:18:00      -99.211       -1.492       -5.935       33.535       26.716       16.512     1124.592      713.751      272.652        0.600        0.106       99.222       14.786        0.022      343.798       20.163      861.926
07/04/2013  06:19:00      -31.006        7.841        4.464       31.169       29.373       19.521      971.477      862.765      381.054        0.163        0.111       31.983        8.987        0.079      343.874       20.293      861.951
07/04/2013  06:20:00      -68.120       23.831        1.233       39.479       27.022       20.075     1558.601      730.212      402.997        0.395        0.135       72.168       10.280        0.020      344.012       20.528      861.971
07/04/2013  06:21:00     -104.721       17.674       -7.486       22.519       19.528       14.146      507.105      381.357      200.100        0.621        0.054      106.202       12.464        0.014      344.114       20.703      861.973
07/04/2013  06:22:00     -103.705        5.360       -6.147       37.396       30.373       15.946     1398.456      922.495      254.282        0.670        0.129      103.843       16.923        0.027      344.111       20.700      861.961
07/04/2013  06:23:00     -118.037      -43.073       -6.333       39.833       26.878       23.117     1586.691      722.433      534.386        0.934        0.142      125.650       21.189        0.028      344.103       20.685      861.940
07/04/2013  06:24:00      -98.291      -22.117        0.773       54.508       37.781       21.596     2971.146     1427.409      466.401        0.751        0.243      100.748       25.580        0.064      344.080       20.645      861.918
07/04/2013  06:25:00     -150.735      -56.029       -9.402       23.153       21.370       18.642      536.050      456.681      347.528        1.364        0.067      160.811       11.579        0.005      344.130       20.731      861.916
07/04/2013  06:26:00     -118.198      -24.787        0.028       31.934       25.478       17.452     1019.767      649.104      304.577        0.828        0.099      120.769       16.332        0.018      344.194       20.840      861.913
07/04/2013  06:27:00      -69.664      -66.421       -1.577       39.478       29.871       16.983     1558.520      892.266      288.406        0.600        0.137       96.254       19.144        0.040      344.267       20.966      861.904
07/04/2013  06:28:00      -90.437      -65.147       -2.266       27.946       30.142       16.543      780.985      908.562      273.663        0.720        0.098      111.458       15.984        0.021      344.300       21.022      861.897
07/04/2013  06:29:00      -94.140      -45.576       -8.571       19.524       35.846       11.600      381.179     1284.921      134.554        0.641        0.090      104.592        9.345        0.008      344.341       21.091      861.887
07/04/2013  06:30:00      -85.008      -29.237       -1.680       30.427       16.490       14.284      925.821      271.918      204.041        0.474        0.070       89.896       11.178        0.015      344.375       21.150      861.871
07/04/2013  06:31:00      -41.462      -31.132        7.425       38.189       36.174       21.750     1458.422     1308.578      473.054        0.299        0.162       51.849       18.304        0.125      344.502       21.367      861.862
07/04/2013  06:32:00     -105.524      -59.430        3.451       45.722       30.869       19.269     2090.509      952.867      371.303        0.905        0.171      121.109       20.691        0.029      344.384       21.163      861.852
07/04/2013  06:33:00      -79.669      -53.639        0.308       51.923       33.286       26.237     2695.996     1107.945      688.366        0.686        0.225       96.043       19.996        0.043      344.334       21.081      861.839
07/04/2013  06:34:00      -79.937      -78.428        4.345       54.504       40.061       29.597     2970.669     1604.894      875.995        0.900        0.273      111.986       35.444        0.100      344.300       21.022      861.825
07/04/2013  06:35:00      -88.380      -62.224        6.348       45.339       43.101       26.982     2055.581     1857.724      728.020        0.818        0.232      108.087       27.341        0.064      344.254       20.943      861.815
07/04/2013  06:36:00      -74.706      -68.909        7.360       46.386       44.322       24.207     2151.698     1964.403      586.002        0.754        0.235      101.634       23.789        0.055      344.332       21.075      861.815
07/04/2013  06:37:00      -95.235      -72.661        1.707       36.670       39.545       23.496     1344.671     1563.807      552.044        0.891        0.173      119.789       21.429        0.032      344.283       20.994      861.829
07/04/2013  06:38:00      -94.136      -81.885        1.254       33.775       30.731       24.258     1140.738      944.404      588.466        0.912        0.134      124.767       20.628        0.027      344.329       21.072      861.846
07/04/2013  06:39:00      -53.844      -68.253        4.980       41.804       34.901       22.527     1747.539     1218.068      507.466        0.553        0.174       86.935       28.306        0.106      344.367       21.136      861.864
07/04/2013  06:40:00      -66.804      -76.183       -8.605       27.092       33.032       14.681      733.992     1091.090      215.537        0.619        0.102      101.325       12.048        0.014      344.332       21.075      861.897
07/04/2013  06:41:00      -48.388      -55.489      -14.203       36.418       17.661       19.418     1326.306      311.907      377.059        0.382        0.101       73.623        6.557        0.008      344.378       21.155      861.921
07/04/2013  06:42:00        1.570      -28.850        3.536       15.971       26.640       16.345      255.077      709.673      267.159        0.104        0.062       28.893        8.831        0.093      344.474       21.319      861.926
07/04/2013  06:43:00       -3.681      -28.480       21.138       29.178       43.303       24.667      851.342     1875.165      608.444        0.230        0.167       28.717       28.042        0.954      344.522       21.400      861.923
07/04/2013  06:44:00      -47.393      -44.208        5.908       50.850       46.209       33.097     2585.685     2135.280     1095.424        0.502        0.291       64.811       32.408        0.250      344.417       21.220      861.918
07/04/2013  06:45:00      -50.500      -58.777       14.071       57.054       56.711       27.184     3255.161     3216.175      738.972        0.671        0.361       77.492       27.864        0.129      344.305       21.032      861.903
07/04/2013  06:46:00      -42.139      -52.319        5.172       55.624       58.440       32.759     3094.031     3415.233     1073.126        0.606        0.379       67.179       32.475        0.234      344.361       21.125      861.892
07/04/2013  06:47:00      -46.273      -53.216        8.963       62.710       51.312       33.337     3932.530     2632.934     1111.357        0.636        0.384       70.521       29.764        0.178      344.401       21.193      861.885
07/04/2013  06:48:00      -65.765      -60.025        9.599       88.162       57.842       33.619     7772.475     3345.733     1130.220        1.013        0.612       89.039       32.102        0.130      344.295       21.013      861.871
07/04/2013  06:49:00      -55.982     -129.117       19.449       59.883       84.434       46.691     3586.005     7129.170     2180.032        1.654        0.645      140.731       41.105        0.085      344.223       20.888      861.879
07/04/2013  06:50:00      -72.341     -137.858       14.485       76.290       73.354       48.386     5820.140     5380.740     2341.161        1.899        0.677      155.685       45.896        0.087      344.161       20.782      861.874
07/04/2013  06:51:00      -76.110      -67.212       16.342       79.585       62.639       36.948     6333.777     3923.689     1365.164        1.110        0.581      101.539       41.293        0.165      344.210       20.866      861.855
07/04/2013  06:52:00      -63.014      -33.544        6.906       63.271       46.599       26.987     4003.180     2171.468      728.308        0.602        0.345       71.386       25.673        0.129      344.263       20.957      861.845
07/04/2013  06:53:00     -111.428      -75.537        4.708       59.653       53.815       31.597     3558.479     2896.068      998.388        1.280        0.373      134.618       20.209        0.023      344.234       20.908      861.818
07/04/2013  06:54:00     -145.941     -139.191       -7.078       74.166       55.062       33.621     5500.658     3031.801     1130.339        2.519        0.483      201.676       37.837        0.035      344.205       20.856      861.811
07/04/2013  06:55:00     -113.160      -80.189       -8.303       39.324       41.816       22.206     1546.346     1748.570      493.108        1.155        0.189      138.692       20.488        0.022      344.232       20.904      861.809
07/04/2013  06:56:00      -62.564      -79.852       -1.496       28.921       28.774       18.165      836.413      827.928      329.952        0.614        0.100      101.442       18.505        0.033      344.348       21.104      861.819
07/04/2013  06:57:00      -21.290      -57.811        1.568       16.772       17.258       10.467      281.314      297.822      109.549        0.224        0.034       61.606        8.540        0.019      344.302       21.023      861.838
07/04/2013  06:58:00       -9.610      -69.086        3.086       12.180       17.064       13.316      148.341      291.183      177.307        0.275        0.031       69.751        2.490        0.001      344.373       21.147      861.852
07/04/2013  06:59:00      -20.515      -48.602        3.973       17.673       12.568       11.094      312.337      157.965      123.077        0.170        0.030       52.755        6.944        0.017      344.388       21.171      861.872
07/04/2013  07:00:00      -28.597      -39.716       -0.386       19.749       18.525       12.345      390.011      343.165      152.391        0.164        0.044       48.941       13.436        0.075      344.404       21.200      861.864
07/04/2013  07:01:00      -52.397      -58.557       -7.862       20.883       22.912       12.220      436.118      524.956      149.323        0.367        0.056       78.577       11.841        0.023      344.341       21.091      861.854
07/04/2013  07:02:00      -58.653      -82.121       -6.634       21.160       18.584       16.313      447.752      345.376      266.120        0.564        0.053      100.916       16.543        0.027      344.320       21.054      861.846
07/04/2013  07:03:00      -75.788      -62.647       -2.152       33.372       27.468       22.551     1113.710      754.496      508.552        0.602        0.119       98.328       22.916        0.054      344.333       21.077      861.824
07/04/2013  07:04:00      -70.943      -48.054       -7.596       19.478       17.110       16.243      379.393      292.751      263.842        0.417        0.047       85.686       10.591        0.015      344.297       21.015      861.823
07/04/2013  07:05:00      -63.393      -54.020       -6.266       28.407       22.681       16.492      806.960      514.405      271.978        0.428        0.080       83.287       15.905        0.036      344.384       21.163      861.823
07/04/2013  07:06:00      -58.911      -74.637       -3.283       27.708       18.669       18.011      767.730      348.529      324.401        0.525        0.072       95.085       14.938        0.025      344.376       21.148      861.821
07/04/2013  07:07:00      -41.491      -57.373        4.911       21.411       31.121       14.808      458.421      968.507      219.283        0.334        0.082       70.804       11.248        0.025      344.387       21.170      861.826
07/04/2013  07:08:00      -31.571      -74.487       -5.150       20.732       22.718       16.791      429.795      516.105      281.951        0.390        0.061       80.902       12.456        0.024      344.399       21.190      861.840
07/04/2013  07:09:00      -43.062      -71.654        2.151       18.555       20.906       15.757      344.286      437.066      248.273        0.401        0.051       83.598        9.865        0.014      344.419       21.224      861.841
07/04/2013  07:10:00      -20.244      -42.047        6.319       38.366       35.293       19.309     1471.914     1245.606      372.856        0.265        0.155       46.666       22.109        0.224      344.529       21.413      861.847
07/04/2013  07:11:00      -30.655      -27.649        5.551       25.726       25.911       15.322      661.853      671.387      234.773        0.165        0.078       41.282       15.902        0.148      344.486       21.338      861.864
07/04/2013  07:12:00      -24.927      -50.101        7.684       21.284       28.987       13.561      452.994      840.254      183.889        0.233        0.074       55.960        9.383        0.028      344.486       21.339      861.865
07/04/2013  07:13:00      -60.373      -57.152       -9.163       16.056       12.340       11.182      257.794      152.264      125.026        0.377        0.027       83.134        8.583        0.011      344.464       21.302      861.859
07/04/2013  07:14:00      -52.783      -59.709      -10.680       18.362       13.230       10.381      337.150      175.044      107.762        0.354        0.031       79.694        8.574        0.012      344.483       21.334      861.859
07/04/2013  07:15:00      -19.464      -44.912       -3.730       28.267       17.125       14.027      799.006      293.254      196.758        0.185        0.064       48.948       13.468        0.076      344.515       21.388      861.850
07/04/2013  07:16:00      -25.916      -42.651       -3.280       19.364       13.164        9.656      374.949      173.301       93.239        0.157        0.032       49.908        7.960        0.025      344.528       21.412      861.835
07/04/2013  07:17:00      -15.054      -36.933        0.506       13.244        9.114        8.563      175.394       83.058       73.325        0.096        0.017       39.883        5.688        0.020      344.533       21.418      861.829
07/04/2013  07:18:00       -5.860      -26.363        0.878        6.550       10.388        6.342       42.897      107.903       40.216        0.046        0.010       27.007        5.793        0.046      344.601       21.537      861.832
07/04/2013  07:19:00       -1.501      -16.512        3.204        4.321       11.473       10.134       18.667      131.630      102.706        0.027        0.013       16.580        7.632        0.212      344.693       21.692      861.836
07/04/2013  07:20:00       -4.433        5.333       19.018        8.808        8.827        7.766       77.580       77.919       60.303        0.031        0.011        6.935        5.540        0.638      344.916       22.074      861.837
07/04/2013  07:21:00        3.259      -19.079       16.926       15.817       23.173       18.750      250.193      536.981      351.561        0.090        0.057       19.355       12.337        0.406      344.840       21.943      861.838
07/04/2013  07:22:00        5.148      -22.733       22.301       14.746       32.317       22.018      217.454     1044.416      484.811        0.139        0.087       23.309       17.310        0.552      344.750       21.790      861.843
07/04/2013  07:23:00       11.338      -39.327       16.399       27.336       36.330       23.409      747.234     1319.892      547.997        0.228        0.131       40.929       18.178        0.197      344.689       21.686      861.852
07/04/2013  07:24:00       -0.821      -22.937       15.832       16.758       20.948       11.522      280.839      438.832      132.765        0.081        0.043       22.951        9.309        0.164      344.677       21.666      861.850
07/04/2013  07:25:00       -4.578       -4.895       14.789        6.270       10.931        8.020       39.318      119.483       64.322        0.024        0.011        6.702        4.475        0.446      344.787       21.854      861.832
07/04/2013  07:26:00       -7.212       15.882        8.526       12.265       11.984        9.136      150.440      143.606       83.466        0.038        0.019       17.443        7.787        0.199      344.686       21.680      861.813
07/04/2013  07:27:00      -16.040       19.248       -3.647        7.923       11.711        5.491       62.770      137.138       30.155        0.044        0.012       25.055        3.008        0.014      344.569       21.483      861.805
07/04/2013  07:28:00      -30.307       -7.640       -2.611        6.669        7.641        5.367       44.481       58.380       28.803        0.056        0.007       31.255        0.992        0.001      344.603       21.540      861.801
07/04/2013  07:29:00      -55.031      -11.266       -7.505        8.467        7.983        5.685       71.685       63.733       32.315        0.169        0.008       56.172        4.505        0.006      344.551       21.453      861.798
07/04/2013  07:30:00      -52.797      -24.124       -3.264       10.339       11.069        8.649      106.894      122.518       74.801        0.184        0.015       58.047        4.976        0.007      344.600       21.533      861.794
07/04/2013  07:31:00      -44.882      -16.115       -0.273        9.065       11.720        7.710       82.183      137.364       59.451        0.128        0.014       47.687        4.019        0.007      344.608       21.549      861.796
07/04/2013  07:32:00      -31.671      -12.084       -2.123       16.305       12.662        8.862      265.853      160.332       78.536        0.083        0.025       33.898        8.518        0.063      344.633       21.591      861.794
07/04/2013  07:33:00      -22.621        1.321        3.545       10.601       10.349        7.572      112.390      107.100       57.330        0.040        0.014       22.660        7.750        0.117      344.655       21.628      861.793
07/04/2013  07:34:00       -8.734        2.754        9.735        7.381        6.676        9.232       54.481       44.565       85.236        0.018        0.009        9.158        6.148        0.451      344.843       21.948      861.802
07/04/2013  07:35:00       -7.997        6.921        6.477        7.194        6.705        8.992       51.759       44.959       80.853        0.017        0.009       10.576        2.101        0.039      344.882       22.016      861.808
07/04/2013  07:36:00       -5.570        2.854        7.302        9.477        6.679        8.937       89.810       44.603       79.878        0.015        0.011        6.259        5.294        0.715      344.902       22.051      861.819
07/04/2013  07:37:00       14.340       24.140        3.971       20.084       14.629       12.424      403.347      213.996      154.360        0.079        0.039       28.078        7.390        0.069      344.857       21.974      861.827
07/04/2013  07:38:00       45.375       24.099       11.751       17.627       16.998       16.673      310.726      288.917      277.978        0.183        0.044       51.377       13.080        0.065      344.880       22.012      861.833
07/04/2013  07:39:00        1.182       -3.379       14.589       15.880       15.992       10.492      252.176      255.737      110.072        0.042        0.031        3.580        8.401        5.507      345.082       22.360      861.831
07/04/2013  07:40:00       12.130       -0.447       14.852       10.051        6.898        9.457      101.028       47.589       89.437        0.030        0.012       12.138        5.921        0.238      345.119       22.421      861.819
07/04/2013  07:41:00        0.750       12.158       14.435        9.664       12.866        8.236       93.402      165.539       67.827        0.034        0.016       12.181        4.091        0.113      345.190       22.544      861.807
07/04/2013  07:42:00        0.093        1.613       15.311        6.428        8.831        4.471       41.318       77.984       19.991        0.019        0.007        1.615        2.913        3.254      345.342       22.802      861.800
07/04/2013  07:43:00       -8.136        4.508        5.144        9.426        5.762       10.713       88.845       33.198      114.775        0.017        0.012        9.302        9.014        0.939      345.215       22.588      861.794
07/04/2013  07:44:00      -13.394       12.114        4.836        8.779       10.111       11.555       77.063      102.225      133.524        0.033        0.016       18.060        6.769        0.140      345.182       22.530      861.787
07/04/2013  07:45:00        6.473       13.431       10.222       19.657       14.640       10.554      386.383      214.340      111.378        0.052        0.036       14.910        8.709        0.341      345.255       22.656      861.789
07/04/2013  07:46:00       61.954       40.313       14.595       23.968       17.503       15.408      574.482      306.358      237.394        0.340        0.056       73.915       12.139        0.027      345.104       22.395      861.790
07/04/2013  07:47:00       95.840       55.018        9.181       26.024       33.649       22.200      677.255     1132.225      492.856        0.730        0.115      110.509       17.087        0.024      345.131       22.442      861.789
07/04/2013  07:48:00       98.084       57.011       -0.266       20.225       22.731       17.150      409.038      516.698      294.124        0.705        0.061      113.450       11.829        0.011      345.146       22.468      861.789
07/04/2013  07:49:00       80.238       55.572       10.570       17.305       16.336       20.335      299.463      266.871      413.497        0.531        0.049       97.603       14.024        0.021      345.039       22.285      861.787
07/04/2013  07:50:00       78.878       56.050       20.963       33.334       33.361       20.763     1111.174     1112.983      431.092        0.623        0.133       96.764        8.578        0.008      345.129       22.440      861.785
07/04/2013  07:51:00       67.846       50.440       11.130       21.864       12.479       14.370      478.052      155.715      206.507        0.406        0.042       84.541        6.142        0.005      345.061       22.323      861.770
07/04/2013  07:52:00       69.443       63.330        1.042       23.344       16.920       18.452      544.922      286.300      340.494        0.500        0.059       93.984        7.927        0.007      345.059       22.320      861.748
07/04/2013  07:53:00       43.088       39.159       17.222       22.738       19.334       17.064      517.015      373.790      291.163        0.243        0.059       58.224       11.407        0.038      345.082       22.359      861.728
07/04/2013  07:54:00       18.949        8.772       24.773       26.514       11.129       12.864      702.976      123.859      165.479        0.102        0.050       20.881        9.520        0.208      345.265       22.672      861.718
07/04/2013  07:55:00      -24.880        8.544       -0.952       11.131       11.383        9.025      123.890      129.579       81.449        0.051        0.017       26.306        5.997        0.052      345.115       22.416      861.717
07/04/2013  07:56:00       -7.627        7.913        5.356       12.652       10.664       17.981      160.070      113.714      323.301        0.037        0.030       10.991       11.230        1.044      345.442       22.975      861.703
07/04/2013  07:57:00        2.626       21.078       18.710       25.771       16.407       20.177      664.170      269.187      407.122        0.107        0.067       21.241       15.723        0.548      345.428       22.950      861.722
07/04/2013  07:58:00       25.755       -3.867       27.666       26.469       30.194       19.105      700.604      911.705      364.984        0.171        0.099       26.044       13.940        0.286      345.470       23.024      861.716
07/04/2013  07:59:00       47.208       24.409        8.335       26.727       25.606       23.530      714.347      655.675      553.639        0.241        0.096       53.145       22.521        0.180      345.524       23.115      861.727
07/04/2013  08:00:00       47.154       33.836       11.862       33.132       31.869       24.050     1097.757     1015.645      578.406        0.310        0.135       58.038        9.126        0.025      345.555       23.169      861.715
07/04/2013  08:01:00       80.442       58.387       18.636       29.311       23.291       22.504      859.130      542.461      506.444        0.607        0.095       99.398        6.317        0.004      345.364       22.841      861.702
07/04/2013  08:02:00       46.619       29.829       14.970       33.938       19.482       20.959     1151.819      379.539      439.299        0.263        0.099       55.345       11.157        0.041      345.515       23.099      861.704
07/04/2013  08:03:00       80.149       65.167        4.255       24.813       27.107       29.981      615.696      734.778      898.831        0.647        0.112      103.298       20.074        0.038      345.399       22.901      861.696
07/04/2013  08:04:00       75.631       66.264        4.804       29.539       25.576       23.979      872.530      654.142      574.992        0.612        0.105      100.553       17.336        0.030      345.428       22.952      861.700
07/04/2013  08:05:00       51.228       66.020       39.405       38.553       31.081       24.067     1486.313      966.054      579.208        0.578        0.152       83.563       22.573        0.073      345.457       23.001      861.698
07/04/2013  08:06:00       18.932       29.009       39.666       34.014       25.134       15.081     1156.927      631.722      227.445        0.239        0.101       34.641        9.437        0.074      345.676       23.379      861.698
07/04/2013  08:07:00       58.230       27.945       12.524       27.242       24.294       21.276      742.144      590.184      452.677        0.306        0.089       64.589       10.801        0.028      345.422       22.943      861.676
07/04/2013  08:08:00        5.588        9.366       23.192       16.689       15.634       12.500      278.533      244.411      156.240        0.067        0.034       10.907       11.268        1.067      346.056       24.029      861.665
07/04/2013  08:09:00       -4.889       22.213       20.226       29.610       19.981       15.895      876.730      399.233      252.660        0.123        0.076       22.744        9.620        0.179      346.047       24.013      861.654
07/04/2013  08:10:00       -3.867       39.139       12.332       19.724       37.306       20.501      389.054     1391.703      420.289        0.195        0.110       39.330       18.928        0.232      346.032       23.987      861.652
07/04/2013  08:11:00       25.505       29.683        9.489       20.132       22.856       18.494      405.309      522.405      342.013        0.145        0.063       39.135       14.181        0.131      345.799       23.587      861.644
07/04/2013  08:12:00        7.790        3.424       17.876       13.020        9.355       13.462      169.519       87.520      181.224        0.042        0.022        8.509        8.763        1.061      346.327       24.496      861.647
07/04/2013  08:13:00      -22.906        9.683        4.799       12.357       10.587       16.560      152.696      112.094      274.217        0.059        0.027       24.868       11.276        0.206      345.885       23.736      861.654
07/04/2013  08:14:00      -33.935       -4.466        3.853       11.732        6.260        6.398      137.644       39.188       40.930        0.070        0.011       34.228        3.009        0.008      345.496       23.066      861.649
07/04/2013  08:15:00       -2.896        4.615       16.193       11.348       14.273       11.752      128.773      203.714      138.108        0.038        0.024        5.448        3.534        0.421      346.304       24.456      861.646
07/04/2013  08:16:00        1.924        2.779       29.549       17.881       13.491       10.472      319.730      181.999      109.667        0.075        0.031        3.380        7.739        5.242      346.610       24.981      861.646
07/04/2013  08:17:00       31.604       21.845        7.177       16.224       17.488       22.559      263.214      305.836      508.895        0.130        0.054       38.419       14.917        0.151      345.850       23.675      861.641
07/04/2013  08:18:00        4.382       -0.448        6.508       12.550       11.443       18.036      157.491      130.953      325.302        0.034        0.031        4.405        6.387        2.103      346.276       24.408      861.637
07/04/2013  08:19:00       43.093       34.811       30.106       25.237       25.118       23.818      636.898      630.909      567.280        0.290        0.092       55.397       11.265        0.041      345.968       23.880      861.633
07/04/2013  08:20:00       48.426       20.871        5.244       11.567       14.740       18.612      133.795      217.279      346.402        0.175        0.035       52.732        7.642        0.021      345.566       23.187      861.622
07/04/2013  08:21:00       30.381       45.841       -5.281       18.044       29.237       16.728      325.581      854.812      279.834        0.226        0.073       54.994       12.805        0.054      345.594       23.235      861.612
07/04/2013  08:22:00       29.652       21.879      -10.304       16.194       25.276       12.773      262.235      638.859      163.151        0.126        0.053       36.851       12.127        0.108      345.670       23.365      861.604
07/04/2013  08:23:00        9.609        5.117        9.105       29.689       16.846       15.600      881.415      283.800      243.363        0.080        0.070       10.886        8.276        0.578      346.027       23.980      861.594
07/04/2013  08:24:00      -13.562       22.752       10.384       16.816       16.215       12.414      282.791      262.913      154.119        0.075        0.035       26.488        4.351        0.027      346.157       24.204      861.585
07/04/2013  08:25:00        0.193       64.424       -5.273       16.388       35.393       17.760      268.556     1252.664      315.418        0.301        0.092       64.424       13.712        0.045      346.061       24.038      861.573
07/04/2013  08:26:00        4.409       11.701       18.564       17.010       17.564       20.073      289.353      308.495      402.922        0.075        0.050       12.504       14.086        1.269      346.558       24.892      861.564
07/04/2013  08:27:00       13.944       18.553       14.328       13.262       12.268       15.850      175.879      150.507      251.212        0.066        0.029       23.208        3.260        0.020      346.164       24.216      861.558
07/04/2013  08:28:00        4.700       -0.661       22.833       18.302       13.620       15.121      334.959      185.492      228.654        0.065        0.037        4.747        9.938        4.384      346.801       25.311      861.548
07/04/2013  08:29:00       32.942       29.063       24.657       30.793       31.680       20.516      948.237     1003.641      420.924        0.245        0.119       43.930        8.300        0.036      346.567       24.908      861.535
07/04/2013  08:30:00       65.143       67.091       41.823       26.626       20.707       20.708      708.938      428.780      428.830        0.603        0.078       93.514       12.344        0.017      345.988       23.913      861.540
07/04/2013  08:31:00       40.301       39.380       45.555       24.873       20.723       17.265      618.642      429.448      298.080        0.330        0.067       56.347       11.825        0.044      346.232       24.331      861.551
07/04/2013  08:32:00       16.576       38.207        6.555       35.601       27.654       16.466     1267.423      764.726      271.123        0.204        0.115       41.648       11.133        0.071      346.460       24.725      861.545
07/04/2013  08:33:00       -3.059      -39.510       23.728       29.581       46.543       25.118      875.009     2166.223      630.911        0.290        0.184       39.628       22.917        0.334      346.600       24.964      861.541
07/04/2013  08:34:00        9.386      -45.887       14.706       28.743       68.504       32.875      826.136     4692.737     1080.791        0.450        0.330       46.837       14.975        0.102      346.383       24.591      861.535
07/04/2013  08:35:00       35.142       31.192       59.122       35.557       37.084       20.675     1264.298     1375.232      427.469        0.438        0.153       46.988       21.387        0.207      346.581       24.932      861.540
07/04/2013  08:36:00       34.855       53.767       55.134       37.277       31.348       29.908     1389.594      982.700      894.483        0.521        0.163       64.076       21.060        0.108      346.586       24.941      861.541
07/04/2013  08:37:00       28.386       42.812       49.595       33.478       37.322       28.644     1120.778     1392.956      820.466        0.422        0.167       51.368        8.745        0.029      346.799       25.307      861.549
07/04/2013  08:38:00       42.882       25.935      -10.379       40.226       17.167       24.327     1618.115      294.723      591.779        0.256        0.125       50.115       14.822        0.087      346.148       24.186      861.556
07/04/2013  08:39:00        4.741       -0.863       16.763       28.686       28.128       21.113      822.887      791.198      445.772        0.118        0.103        4.819       14.931        9.598      346.716       25.164      861.553
07/04/2013  08:40:00      -23.561      -15.215       26.277       20.808       35.692       24.536      432.964     1273.895      602.009        0.189        0.115       28.047       14.620        0.272      346.721       25.173      861.556
07/04/2013  08:41:00       20.941       39.788       42.284       42.132       38.353       32.987     1775.110     1470.955     1088.151        0.407        0.217       44.962       27.432        0.372      346.581       24.931      861.561
07/04/2013  08:42:00       38.782       53.150       66.352       24.157       28.242       12.081      583.550      797.611      145.956        0.513        0.076       65.795        9.484        0.021      346.460       24.723      861.566
07/04/2013  08:43:00       19.150       25.484       63.284       24.474       19.017       13.336      598.995      361.646      177.837        0.308        0.057       31.877       10.259        0.104      346.711       25.156      861.577
07/04/2013  08:44:00       66.890       55.045       46.306       36.482       23.332       24.910     1330.955      544.387      620.498        0.607        0.125       86.627       23.037        0.071      346.324       24.489      861.598
07/04/2013  08:45:00       63.322       60.597        0.743       24.550       14.071       17.175      602.704      198.007      294.984        0.439        0.055       87.645        8.233        0.009      346.132       24.159      861.604
07/04/2013  08:46:00       59.353       46.566       -6.734       20.228       17.939       17.029      409.176      321.801      289.976        0.338        0.051       75.440        9.326        0.015      346.256       24.374      861.606
07/04/2013  08:47:00       24.590       33.964       41.928       32.186       32.286       24.929     1035.959     1042.376      621.479        0.311        0.135       41.931       18.433        0.193      346.849       25.394      861.613
07/04/2013  08:48:00       22.442        2.949       42.294       29.341       55.567       29.304      860.922     3087.725      858.731        0.355        0.240       22.634       31.307        1.913      346.662       25.071      861.614
07/04/2013  08:49:00       25.942       25.522       61.663       28.097       19.521       17.043      789.426      381.065      290.475        0.329        0.073       36.391       15.114        0.172      346.735       25.197      861.612
07/04/2013  08:50:00       30.949      -19.396       30.731       25.746       46.991       38.165      662.882     2208.119     1456.560        0.330        0.216       36.525       30.183        0.683      346.739       25.202      861.611
07/04/2013  08:51:00       -1.692       38.666       17.792       22.855       67.225       30.220      522.372     4519.144      913.263        0.388        0.298       38.703       25.425        0.432      347.009       25.670      861.614
07/04/2013  08:52:00       43.927       74.994       15.949       40.019       34.909       28.988     1601.531     1218.637      840.299        0.573        0.183       86.912       24.235        0.078      346.866       25.422      861.624
07/04/2013  08:53:00        3.368       46.638       -9.226       44.085       29.980       23.155     1943.496      898.818      536.171        0.282        0.169       46.759       11.465        0.060      346.782       25.277      861.625
07/04/2013  08:54:00      -48.095       24.001        0.489       21.350       25.820       16.516      455.810      666.691      272.787        0.214        0.070       53.752        9.289        0.030      346.678       25.099      861.625
07/04/2013  08:55:00      -24.529       39.415        8.470       29.370       35.463       25.672      862.573     1257.607      659.049        0.250        0.139       46.424       25.750        0.308      347.446       26.422      861.620
07/04/2013  08:56:00      -25.263       33.902       13.290       29.250       38.173       28.307      855.586     1457.144      801.307        0.254        0.156       42.279       25.767        0.371      347.513       26.538      861.606
07/04/2013  08:57:00      -22.908       26.216       10.621       34.916       20.116       26.665     1219.147      404.657      710.999        0.183        0.117       34.815       26.257        0.569      347.474       26.471      861.593
07/04/2013  08:58:00      -12.628       43.740       15.861       26.278       35.719       25.550      690.559     1275.852      652.807        0.247        0.131       45.526       16.824        0.137      347.569       26.634      861.578
07/04/2013  08:59:00       -6.916        8.407       19.633       17.894       22.821       22.493      320.207      520.811      505.913        0.093        0.067       10.886       13.811        1.610      347.573       26.639      861.554
07/04/2013  09:00:00       -4.381      -18.908       -7.381       16.459       15.739       14.293      270.904      247.711      204.302        0.058        0.036       19.409       10.167        0.274      346.969       25.599      861.545
07/04/2013  09:01:00       -5.373       39.194       23.804       18.828       46.861       23.383      354.480     2195.943      546.749        0.261        0.155       39.561       17.022        0.185      347.752       26.950      861.538
07/04/2013  09:02:00        0.873       21.883       20.327       26.617       19.219       27.485      708.451      369.379      755.420        0.136        0.092       21.900       24.293        1.230      347.515       26.540      861.540
07/04/2013  09:03:00       14.592       51.020        0.478       27.738       33.351       25.613      769.389     1112.262      656.013        0.268        0.127       53.066       22.250        0.176      347.150       25.911      861.539
07/04/2013  09:04:00      -18.324       10.240        2.126       36.212       16.233       19.369     1311.307      263.500      375.163        0.120        0.097       20.991       12.232        0.340      347.406       26.352      861.542
07/04/2013  09:05:00      -17.516       15.609        9.039       26.004       16.317       22.135      676.183      266.241      489.954        0.103        0.072       23.462       17.384        0.549      347.370       26.291      861.541
07/04/2013  09:06:00      -24.251      -30.276        1.729       32.641       27.974       23.457     1065.459      782.539      550.235        0.195        0.120       38.791       21.839        0.317      347.192       25.984      861.531
07/04/2013  09:07:00      -29.669      -43.874       -1.429       24.330       16.376       15.364      591.949      268.181      236.041        0.195        0.055       52.964       13.630        0.066      346.766       25.250      861.525
07/04/2013  09:08:00       -9.374      -27.615       -8.103       11.966       20.452       15.255      143.187      418.276      232.719        0.085        0.040       29.163        6.371        0.048      346.886       25.457      861.507
07/04/2013  09:09:00       -8.177      -18.934       -7.361       14.898       16.906       17.184      221.946      285.809      295.280        0.064        0.040       20.625       11.177        0.294      347.088       25.806      861.493
07/04/2013  09:10:00      -18.731       -7.609       11.820       20.892       13.810       18.754      436.474      190.724      351.707        0.076        0.049       20.218       17.687        0.765      347.533       26.574      861.479
07/04/2013  09:11:00      -27.146      -34.630       -0.533       14.465       13.425       10.370      209.243      180.232      107.534        0.122        0.025       44.002        5.768        0.017      346.939       25.548      861.470
07/04/2013  09:12:00      -38.526      -49.164        2.410       23.315       21.583       16.602      543.588      465.823      275.631        0.260        0.064       62.461       12.498        0.040      347.089       25.806      861.463
07/04/2013  09:13:00      -53.055      -33.651        4.907       20.850       42.171       26.429      434.714     1778.354      698.495        0.344        0.146       62.827       12.097        0.037      347.047       25.733      861.443
07/04/2013  09:14:00      -31.517      -18.611        6.637       28.676       22.933       17.405      822.336      525.933      302.951        0.152        0.083       36.602       16.511        0.203      347.453       26.435      861.430
07/04/2013  09:15:00        2.125      -49.333       23.402       27.121       40.244       29.534      735.528     1619.540      872.251        0.311        0.161       49.379       21.508        0.190      347.603       26.693      861.408
07/04/2013  09:16:00        7.438      -71.881        7.938       30.791       49.615       34.945      948.081     2461.689     1221.147        0.496        0.232       72.264       17.670        0.060      347.386       26.319      861.387
07/04/2013  09:17:00       42.922      -82.065       -3.404       43.940       31.544       23.077     1930.702      995.046      532.533        0.602        0.173       92.612       12.418        0.018      347.094       25.814      861.381
07/04/2013  09:18:00       14.989      -49.999       12.749       27.994       38.148       22.405      783.679     1455.264      501.962        0.281        0.137       52.197       17.269        0.109      347.511       26.533      861.362
07/04/2013  09:19:00        1.675      -50.768        7.868       34.966       52.246       27.272     1222.637     2729.679      743.755        0.367        0.235       50.796       27.237        0.288      347.417       26.372      861.344
07/04/2013  09:20:00       42.020      -57.990        7.313       47.885       61.523       33.591     2292.927     3785.136     1128.383        0.619        0.360       71.614       42.577        0.353      347.821       27.070      861.328
07/04/2013  09:21:00      -41.741      -67.579        0.564       31.476       49.066       24.423      990.736     2407.427      596.483        0.515        0.200       79.431       19.781        0.062      347.413       26.366      861.306
07/04/2013  09:22:00      -34.487      -49.872       12.326       41.080       48.491       29.133     1687.603     2351.370      848.741        0.436        0.244       60.634       35.720        0.347      347.614       26.712      861.283
07/04/2013  09:23:00      -29.922      -16.136        1.611       20.441       21.847       25.530      417.841      477.283      651.780        0.135        0.077       33.996       18.850        0.307      347.582       26.657      861.270
07/04/2013  09:24:00      -44.803      -13.036        1.382       25.871       26.726       15.072      669.317      714.254      227.170        0.189        0.081       46.661       10.829        0.054      347.336       26.231      861.254
07/04/2013  09:25:00       -8.963        0.862       40.473       33.021       28.680       29.347     1090.405      822.550      861.265        0.225        0.139        9.004       22.831        6.430      348.371       28.019      861.240
07/04/2013  09:26:00       13.139       40.394       53.672       26.140       36.687       24.935      683.300     1345.942      621.749        0.367        0.133       42.477       14.622        0.118      348.130       27.602      861.230
07/04/2013  09:27:00       52.416       58.798       52.438       53.865       46.598       31.251     2901.421     2171.392      976.626        0.750        0.302       78.770        5.973        0.006      348.116       27.579      861.219
07/04/2013  09:28:00       32.383       51.045       -2.936       48.487       72.572       33.147     2350.950     5266.720     1098.747        0.619        0.436       60.450       17.538        0.084      347.193       25.985      861.212
07/04/2013  09:29:00       11.111       -0.185       53.886       45.234       69.879       37.255     2046.150     4883.114     1387.922        0.567        0.416       11.112       33.641        9.165      347.550       26.600      861.195
07/04/2013  09:30:00       35.748      -14.285       26.799       36.620       36.411       38.743     1340.999     1325.784     1500.986        0.318        0.208       38.497       26.721        0.482      347.427       26.388      861.186
07/04/2013  09:31:00       28.711       16.742       25.061       66.129       58.965       37.867     4373.095     3476.884     1433.872        0.551        0.464       33.236       40.784        1.506      347.431       26.396      861.173
07/04/2013  09:32:00       44.214       54.436       51.474       40.395       42.606       29.734     1631.752     1815.272      884.106        0.595        0.217       70.130       18.845        0.072      347.605       26.695      861.160
07/04/2013  09:33:00      110.995       71.438        4.515       52.897       44.559       38.040     2798.049     1985.501     1447.023        1.184        0.312      131.997       21.528        0.027      347.507       26.526      861.153
07/04/2013  09:34:00       31.431       42.045        6.358       43.231       32.014       32.019     1868.951     1024.886     1025.235        0.336        0.196       52.495       18.326        0.122      347.606       26.698      861.154
07/04/2013  09:35:00        3.484       26.817      -13.005       29.091       40.297       21.599      846.302     1623.858      466.510        0.192        0.147       27.043       16.662        0.380      347.541       26.586      861.144
07/04/2013  09:36:00      120.563       78.804       52.452       60.555       40.083       38.247     3666.956     1606.669     1462.801        1.512        0.337      144.033       19.524        0.018      347.586       26.661      861.118
07/04/2013  09:37:00       47.465       59.151       37.868       38.980       37.218       39.443     1519.472     1385.178     1555.723        0.582        0.223       75.841        8.573        0.013      347.549       26.599      861.117
07/04/2013  09:38:00       -2.447      -11.160       22.492       29.337       28.533       24.115      860.635      814.155      581.515        0.145        0.113       11.425       14.787        1.675      347.894       27.194      861.095
07/04/2013  09:39:00       14.897      -65.235       11.983       31.057       47.684       33.034      964.545     2273.787     1091.254        0.447        0.216       66.914       22.877        0.117      347.776       26.991      861.080
07/04/2013  09:40:00        8.199       -4.765       29.039       27.008       30.872       26.719      729.456      953.104      713.929        0.166        0.120        9.483       24.700        6.785      348.729       28.641      861.059
07/04/2013  09:41:00       13.825        1.172       31.322       24.130       39.260       27.365      582.267     1541.321      748.842        0.202        0.144       13.875       20.311        2.143      348.350       27.982      861.042
07/04/2013  09:42:00       23.380      -35.746       22.787       37.228       41.151       26.569     1385.916     1693.411      705.894        0.306        0.189       42.713       25.235        0.349      347.810       27.049      861.030
07/04/2013  09:43:00        1.552       39.103       52.018       27.200       36.994       21.403      739.858     1368.530      458.090        0.340        0.128       39.134       14.116        0.130      348.493       28.231      861.003
07/04/2013  09:44:00       38.354      -17.095       31.299       55.155       84.358       44.885     3042.064     7116.303     2014.664        0.746        0.609       41.991       31.270        0.555      348.083       27.522      860.984
07/04/2013  09:45:00       19.330       82.792       81.464       54.922       49.768       37.873     3016.427     2476.853     1434.360        1.039        0.346       85.018       20.455        0.058      348.197       27.718      860.958
07/04/2013  09:46:00       42.631       47.672       48.524       52.866       38.024       31.293     2794.789     1445.801      979.232        0.583        0.261       63.953       17.321        0.073      348.151       27.639      860.972
07/04/2013  09:47:00       45.674       38.722       38.232       65.771       37.435       28.006     4325.861     1401.401      784.333        0.578        0.326       59.879       23.881        0.159      348.228       27.770      860.965
07/04/2013  09:48:00       44.286       43.602       45.525       41.117       55.643       32.764     1690.590     3096.194     1073.498        0.590        0.293       62.148       24.700        0.158      347.788       27.011      860.959
07/04/2013  09:49:00       10.097        9.530       43.191       32.682       34.026       29.261     1068.137     1157.740      856.199        0.257        0.154       13.884       25.446        3.359      348.577       28.375      860.949
07/04/2013  09:50:00       19.452       -3.732       38.404       39.629       48.762       35.066     1570.463     2377.741     1229.599        0.352        0.259       19.807       32.230        2.648      348.670       28.538      860.933
07/04/2013  09:51:00        3.437      -17.834       26.326       24.794       44.569       33.583      614.758     1986.414     1127.806        0.238        0.186       18.162       17.882        0.969      348.713       28.610      860.913
07/04/2013  09:52:00       11.594      -45.798       29.845       30.917       40.080       27.489      955.851     1606.412      755.657        0.322        0.166       47.242       19.363        0.168      348.720       28.624      860.897
07/04/2013  09:53:00        0.038      -26.282       25.300       30.381       43.536       33.548      923.033     1895.387     1125.456        0.264        0.197       26.282       32.486        1.528      348.763       28.698      860.879
07/04/2013  09:54:00       18.047       20.179       60.462       30.368       44.592       29.105      922.235     1988.416      847.123        0.407        0.188       27.072       16.082        0.353      348.859       28.863      860.856
07/04/2013  09:55:00       35.501      -13.347       40.239       35.780       32.703       37.021     1280.233     1069.514     1370.558        0.339        0.186       37.927       18.474        0.237      348.642       28.488      860.845
07/04/2013  09:56:00       15.179      -51.325       13.128       36.007       55.757       31.127     1296.507     3108.799      968.919        0.420        0.269       53.523       19.214        0.129      348.134       27.610      860.826
07/04/2013  09:57:00       19.568      -14.845       19.413       34.322       31.879       36.739     1178.027     1016.239     1349.772        0.226        0.177       24.562       24.584        1.002      348.325       27.940      860.835
07/04/2013  09:58:00      -15.106      -13.280       15.437       21.213       23.186       22.900      449.998      537.602      524.410        0.108        0.076       20.113       16.173        0.647      348.551       28.332      860.826
07/04/2013  09:59:00       -6.641       -3.493       42.421       26.749       56.126       29.466      715.503     3150.152      868.274        0.329        0.237        7.503        7.359        0.962      348.665       28.528      860.817
07/04/2013  10:00:00        1.657       33.582       38.467       43.167       37.075       26.600     1863.353     1374.592      707.582        0.328        0.197       33.623       17.653        0.276      348.560       28.345      860.809
07/04/2013  10:01:00        2.196        1.000       24.187       30.719       23.702       25.477      943.680      561.805      649.084        0.137        0.108        2.413       21.207       77.236      348.792       28.748      860.810
07/04/2013  10:02:00      -20.182       55.872        1.018       25.079       39.353       29.419      628.954     1548.661      865.467        0.329        0.152       59.405       20.242        0.116      348.539       28.310      860.807
07/04/2013  10:03:00       34.148       19.006       35.515       41.489       34.289       35.981     1721.367     1175.763     1294.630        0.349        0.210       39.081       26.840        0.472      348.651       28.503      860.816
07/04/2013  10:04:00       61.620       58.351       45.902       83.527       45.432       36.039     6976.706     2064.079     1298.775        0.982        0.517       84.864       28.473        0.113      348.533       28.299      860.802
07/04/2013  10:05:00       71.192       61.456       41.332       44.561       40.108       42.429     1985.707     1608.680     1800.243        0.797        0.270       94.048       18.693        0.040      348.420       28.103      860.804
07/04/2013  10:06:00       71.925       53.460       31.673       79.800       64.913       49.782     6368.055     4213.659     2478.276        1.104        0.653       89.617       34.704        0.150      348.655       28.508      860.785
07/04/2013  10:07:00      136.414      108.989       17.388       45.357       43.562       42.019     2057.255     1897.611     1765.589        1.825        0.286      174.606       29.391        0.028      348.091       27.533      860.782
07/04/2013  10:08:00       81.223       88.349       46.985       36.885       36.796       46.313     1360.523     1353.930     2144.926        1.073        0.243      120.011       28.833        0.058      348.048       27.461      860.764
07/04/2013  10:09:00      110.109       86.535       36.896       85.579       58.315       70.703     7323.737     3400.617     4998.881        1.835        0.786      140.044       62.861        0.201      348.147       27.630      860.765
07/04/2013  10:10:00      124.275       88.175       25.004       65.948       49.280       48.949     4349.078     2428.558     2395.960        1.651        0.459      152.378       31.231        0.042      348.129       27.599      860.756
07/04/2013  10:11:00       84.486       83.155       12.185       42.874       35.636       34.965     1838.200     1269.902     1222.558        0.927        0.217      118.544       14.724        0.015      348.105       27.558      860.754
07/04/2013  10:12:00       39.897       65.212        1.192       36.495       72.649       27.884     1331.916     5277.877      777.545        0.662        0.369       76.449       37.773        0.244      348.250       27.811      860.738
07/04/2013  10:13:00      -22.512      108.245       -1.964       35.435       40.232       29.339     1255.667     1618.622      860.759        0.798        0.187      110.561       20.554        0.035      348.394       28.059      860.734
07/04/2013  10:14:00      -17.435      100.634       -1.338       20.050       52.188       26.176      401.999     2723.550      685.170        0.712        0.191      102.133       27.333        0.072      348.390       28.051      860.726
07/04/2013  10:15:00      -25.152       13.272       13.584       32.242       29.282       19.535     1039.530      857.430      381.635        0.164        0.114       28.439       10.660        0.140      349.022       29.145      860.716
07/04/2013  10:16:00      -75.909       92.671      -17.816       30.087       55.629       31.762      905.257     3094.604     1008.848        0.984        0.250      119.791       23.444        0.038      348.079       27.513      860.694
07/04/2013  10:17:00      -24.217       22.748       -5.255       32.239       22.329       32.611     1039.332      498.570     1063.497        0.187        0.130       33.225       26.473        0.635      348.334       27.955      860.695
07/04/2013  10:18:00       32.753       18.308        9.136       23.701       27.166       32.231      561.714      737.997     1038.855        0.191        0.117       37.522       15.067        0.161      348.298       27.891      860.690
07/04/2013  10:19:00       89.178       79.083       30.492       60.233       43.993       39.324     3628.021     1935.396     1546.404        1.112        0.355      119.193       31.159        0.068      348.232       27.778      860.688
07/04/2013  10:20:00      103.679       85.045        4.396       43.712       52.300       36.419     1910.735     2735.258     1326.380        1.199        0.299      134.097       24.770        0.034      348.249       27.807      860.686
07/04/2013  10:21:00      111.216       85.286       13.077       46.061       28.308       27.849     2121.654      801.348      775.582        1.176        0.185      140.153       20.813        0.022      348.220       27.758      860.700
07/04/2013  10:22:00       89.361       82.931        2.507       62.210       47.548       31.373     3870.140     2260.774      984.289        1.099        0.356      121.914       27.181        0.050      348.161       27.655      860.707
07/04/2013  10:23:00      -10.862       41.347       -5.872       31.749       32.205       23.139     1008.020     1037.172      535.401        0.222        0.129       42.750       21.619        0.256      348.372       28.021      860.721
07/04/2013  10:24:00       43.247       75.655        9.138       38.444       66.773       34.005     1477.978     4458.682     1156.371        0.738        0.355       87.144       38.968        0.200      348.516       28.269      860.727
07/04/2013  10:25:00       84.852       62.690       18.629       61.414       45.645       40.500     3771.627     2083.511     1640.265        0.948        0.375      105.498       21.542        0.042      348.555       28.336      860.732
07/04/2013  10:26:00       75.718       75.681       30.374       42.421       29.193       39.683     1799.501      852.225     1574.731        0.830        0.211      107.055       30.207        0.080      348.532       28.297      860.751
07/04/2013  10:27:00       58.149       49.481        8.914       49.268       40.507       40.041     2427.379     1640.811     1603.315        0.579        0.284       76.353       22.622        0.088      348.437       28.132      860.753
07/04/2013  10:28:00        3.700       -4.886       22.179       25.609       12.021       14.435      655.843      144.495      208.383        0.077        0.050        6.128       10.276        2.812      349.080       29.246      860.755
07/04/2013  10:29:00       13.586      -94.477       -2.977       22.880       44.351       20.958      523.496     1967.013      439.258        0.602        0.146       95.449        6.529        0.005      348.365       28.007      860.753
07/04/2013  10:30:00       26.206       -7.202       19.925       35.187       43.726       39.076     1238.094     1911.966     1526.898        0.291        0.234       27.177       31.836        1.372      348.904       28.940      860.735
07/04/2013  10:31:00        8.895       22.028       27.095       27.334       24.106       23.395      747.175      581.122      547.313        0.159        0.094       23.756       19.718        0.689      348.875       28.891      860.734
07/04/2013  10:32:00       61.332       36.043       29.535       53.274       44.577       36.912     2838.125     1987.136     1362.498        0.606        0.309       71.139       19.599        0.076      348.916       28.962      860.717
07/04/2013  10:33:00       29.444       21.260       23.302       40.460       32.054       29.083     1637.019     1027.469      845.828        0.269        0.176       36.317       20.512        0.319      349.111       29.301      860.705
07/04/2013  10:34:00      -12.353        0.393       29.495       31.699       52.841       22.584     1004.801     2792.185      510.017        0.266        0.215       12.360       23.700        3.677      349.089       29.260      860.707
07/04/2013  10:35:00      -37.555      -13.169       21.010       23.706       33.803       21.507      561.959     1142.675      462.556        0.210        0.108       39.797       13.499        0.115      348.872       28.885      860.692
07/04/2013  10:36:00       -2.128       22.909       42.715       16.360       42.850       18.413      267.665     1836.156      339.033        0.240        0.122       23.008       15.128        0.432      349.142       29.352      860.666
07/04/2013  10:37:00       22.285       15.718       12.934       25.471       24.428       26.694      648.762      596.710      712.577        0.143        0.098       27.270       13.034        0.228      349.144       29.357      860.659
07/04/2013  10:38:00       17.197        1.215       27.947       21.674       28.826       28.740      469.761      830.922      826.004        0.160        0.106       17.240       17.644        1.047      349.535       30.035      860.646
07/04/2013  10:39:00       -4.574       46.283       12.126       23.386       38.068       22.012      546.892     1449.174      484.532        0.239        0.124       46.508       21.325        0.210      349.373       29.755      860.625
07/04/2013  10:40:00      -16.153       34.877        5.427       15.607       35.814       19.616      243.594     1282.616      384.795        0.171        0.096       38.436       17.130        0.199      349.249       29.538      860.621
07/04/2013  10:41:00      -22.120      -18.750        5.001       23.149       20.564       12.861      535.889      422.859      165.410        0.099        0.056       28.997        7.899        0.074      348.769       28.709      860.607
07/04/2013  10:42:00      -18.340      -12.655       19.549       20.247       12.884       18.777      409.938      165.999      352.594        0.090        0.046       22.283       12.682        0.324      349.304       29.635      860.589
07/04/2013  10:43:00      -12.450       -2.615        4.261       20.991       36.465       24.301      440.619     1329.664      590.532        0.127        0.118       12.721       13.842        1.184      348.943       29.008      860.581
07/04/2013  10:44:00       -1.648       27.460        8.090       20.008       26.744       19.974      400.319      715.230      398.975        0.117        0.076       27.510       11.418        0.172      349.120       29.316      860.571
07/04/2013  10:45:00        4.232       12.745       16.095       41.046       25.781       24.054     1684.806      664.659      578.600        0.168        0.146       13.429        7.389        0.303      349.013       29.128      860.554
07/04/2013  10:46:00       -2.185        7.788       20.714       12.839       14.873       15.002      164.833      221.193      225.058        0.055        0.031        8.089        8.284        1.049      349.806       30.505      860.546
07/04/2013  10:47:00       -7.612       33.541       12.823       27.611       34.418       25.467      762.380     1184.612      648.552        0.197        0.130       34.394       17.938        0.272      348.997       29.102      860.544
07/04/2013  10:48:00        8.498       13.747       29.244       19.053       20.100       10.000      363.004      404.009       99.997        0.099        0.043       16.162        5.158        0.102      349.436       29.862      860.548
07/04/2013  10:49:00        5.996       -8.419       18.961       15.929       16.385       17.389      253.730      268.479      302.375        0.065        0.041       10.337       12.776        1.528      348.951       29.022      860.540
07/04/2013  10:50:00        4.432        2.227       36.730       14.370       11.617        9.427      206.489      134.966       88.868        0.090        0.022        4.960        4.487        0.818      349.452       29.890      860.541
07/04/2013  10:51:00        1.707        1.703       24.653       11.280       24.192       11.011      127.239      585.231      121.243        0.072        0.042        2.411        9.487       15.480      349.281       29.596      860.548
07/04/2013  10:52:00        3.888       28.197       18.550       17.949       23.764       24.451      322.184      564.738      597.849        0.132        0.074       28.464       17.913        0.396      349.235       29.514      860.552
07/04/2013  10:53:00       11.561       26.726       30.765       24.582       19.198       17.992      604.276      368.546      323.724        0.155        0.065       29.119        9.753        0.112      349.241       29.525      860.544
07/04/2013  10:54:00       -2.495        1.821       24.137       11.164       13.548       11.499      124.631      183.538      132.236        0.052        0.022        3.089        5.533        3.207      349.837       30.559      860.548
07/04/2013  10:55:00      -19.050       10.850       18.798       12.522       16.797       18.597      156.805      282.129      345.846        0.081        0.039       21.923       10.463        0.228      349.360       29.732      860.558
07/04/2013  10:56:00      -21.731        5.396        9.269       22.450       25.015       22.660      503.997      625.726      513.478        0.111        0.082       22.391       15.371        0.471      348.838       28.826      860.550
07/04/2013  10:57:00      -29.907       -4.989        1.361       15.777       20.408       16.194      248.907      416.500      262.238        0.092        0.046       30.320       13.804        0.207      348.933       28.989      860.546
07/04/2013  10:58:00      -24.950       19.868       12.645       21.592       17.877       13.399      466.223      319.587      179.546        0.107        0.048       31.895        8.165        0.066      348.949       29.019      860.535
07/04/2013  10:59:00      -21.025        3.653        9.938       19.860       19.405       14.867      394.430      376.568      221.034        0.077        0.050       21.340       11.685        0.300      348.875       28.890      860.528
07/04/2013  11:00:00        7.919      -16.103        6.911       45.634       37.223       26.811     2082.506     1385.557      718.848        0.228        0.209       17.944        8.933        0.248      348.844       28.837      860.527
07/04/2013  11:01:00       -7.904       -6.350       23.196       19.086       15.211       15.829      364.258      231.366      250.552        0.074        0.042       10.139        8.304        0.671      349.274       29.583      860.534
07/04/2013  11:02:00       34.104      -38.631      -20.801       20.850       27.116       23.508      434.731      735.272      552.625        0.241        0.086       51.531       10.716        0.043      348.387       28.045      860.531
07/04/2013  11:03:00       20.545       -2.402       17.381       20.593       20.349       18.378      424.073      414.064      337.738        0.095        0.059       20.685       15.356        0.551      348.847       28.843      860.520
07/04/2013  11:04:00       35.686       -0.378        8.427       26.416       20.464       29.694      697.782      418.766      881.721        0.167        0.100       35.688        6.808        0.036      348.813       28.782      860.510
07/04/2013  11:05:00      -32.223      -29.179       -5.410       32.062       19.429       13.882     1027.981      377.501      192.713        0.176        0.080       43.471        4.752        0.012      348.769       28.707      860.505
07/04/2013  11:06:00      -62.217      -57.976       -5.328       18.521       20.026       14.121      343.040      401.024      199.413        0.410        0.047       85.043        9.123        0.012      348.614       28.439      860.503
07/04/2013  11:07:00      -10.035      -22.666        1.036       17.296       10.655       11.322      299.156      113.520      128.178        0.058        0.027       24.788        4.709        0.036      348.629       28.465      860.500
07/04/2013  11:08:00      -18.244      -32.238        5.691       13.714       11.741       15.128      188.067      137.857      228.861        0.098        0.028       37.042        9.281        0.063      348.759       28.690      860.488
07/04/2013  11:09:00      -40.883      -16.190        5.605       18.949       23.565       14.529      359.081      555.287      211.097        0.154        0.056       43.972        6.319        0.021      348.813       28.783      860.477
07/04/2013  11:10:00      -49.922      -11.830        4.554       31.237       19.413       17.943      975.745      376.879      321.954        0.216        0.084       51.305       19.018        0.137      349.042       29.181      860.465
07/04/2013  11:11:00      -18.775      -26.206      -14.347       33.864       50.528       21.405     1146.746     2553.086      458.172        0.270        0.208       32.238       21.100        0.428      348.532       28.297      860.456
07/04/2013  11:12:00       -9.063      -13.182        0.567       19.164       39.217       30.463      367.270     1537.943      928.008        0.154        0.142       15.997       30.757        3.697      348.957       29.033      860.452
07/04/2013  11:13:00      -40.014      -29.550        0.768       16.383       30.474       15.322      268.403      928.663      234.770        0.195        0.072       49.743        7.763        0.024      348.774       28.717      860.450
07/04/2013  11:14:00      -42.804      -85.357       10.284       39.429       36.528       24.720     1554.671     1334.302      611.065        0.636        0.175       95.489       10.305        0.012      348.866       28.875      860.455
07/04/2013  11:15:00      -30.915     -106.566        5.173       34.368       22.332       17.147     1181.188      498.711      294.024        0.716        0.099      110.960       13.627        0.015      348.790       28.744      860.461
07/04/2013  11:16:00      -38.836      -52.941        4.307       23.732       26.503       16.260      563.231      702.408      264.402        0.293        0.077       65.658        8.754        0.018      348.914       28.958      860.459
07/04/2013  11:17:00      -55.830      -53.918        8.219       63.649       34.388       32.904     4051.243     1182.545     1082.688        0.620        0.316       77.615       42.121        0.295      349.058       29.207      860.459
07/04/2013  11:18:00      -30.134      -59.797        9.840       33.122       34.768       21.563     1097.056     1208.781      464.981        0.368        0.139       66.960       20.174        0.091      348.969       29.053      860.458
07/04/2013  11:19:00      -62.181      -68.024       -0.010       32.793       20.899       16.329     1075.370      436.774      266.634        0.514        0.089       92.162       16.932        0.034      348.754       28.682      860.459
07/04/2013  11:20:00      -69.447      -63.673        3.883       46.089       36.532       29.609     2124.221     1334.590      876.700        0.661        0.217       94.219       29.691        0.099      348.906       28.944      860.456
07/04/2013  11:21:00     -102.472      -94.282       -4.846       62.621       53.274       31.087     3921.410     2838.132      966.400        1.357        0.386      139.247       35.913        0.067      348.844       28.834      860.452
07/04/2013  11:22:00      -44.261     -112.986       -1.105       34.149       43.632       21.667     1166.171     1903.712      469.447        0.913        0.177      121.346       12.569        0.011      348.772       28.712      860.447
07/04/2013  11:23:00      -23.693      -84.554       27.685       47.251       50.918       29.450     2232.620     2592.609      867.323        0.708        0.285       87.811       26.224        0.089      349.018       29.138      860.433
07/04/2013  11:24:00      -27.538     -108.301        4.379       31.949       31.726       28.027     1020.710     1006.531      785.487        0.766        0.141      111.747       18.953        0.029      348.922       28.971      860.431
07/04/2013  11:25:00      -36.705      -65.899       19.085       29.628       30.553       23.058      877.794      933.511      531.668        0.420        0.117       75.432       17.984        0.057      349.044       29.183      860.431
07/04/2013  11:26:00     -146.179      -42.152      -10.925       40.540       32.150       25.985     1643.472     1033.601      675.234        1.331        0.168      152.135       21.003        0.019      349.002       29.110      860.439
07/04/2013  11:27:00      -43.656      -30.067        7.066       48.923       21.961       21.371     2393.446      482.288      456.700        0.310        0.167       53.008       28.794        0.295      349.071       29.231      860.437
07/04/2013  11:28:00     -108.186      -20.061       -7.476       47.960       53.516       27.249     2300.177     2863.944      742.488        0.903        0.295      110.030       21.790        0.039      348.991       29.092      860.419
07/04/2013  11:29:00      -69.346      -67.465        6.485       61.172       48.138       32.557     3741.962     2317.224     1059.964        0.826        0.356       96.749       29.441        0.093      349.179       29.417      860.414
07/04/2013  11:30:00     -138.579     -112.618       14.073       68.271       72.073       41.877     4660.945     5194.520     1753.707        2.184        0.580      178.570       37.685        0.045      349.048       29.189      860.413
07/04/2013  11:31:00     -100.507      -73.183        6.815       72.518       57.426       37.121     5258.881     3297.709     1377.934        1.272        0.497      124.328       39.257        0.100      349.143       29.354      860.420
07/04/2013  11:32:00     -103.262        5.658      -10.468       59.198       35.878       25.283     3504.405     1287.212      639.254        0.812        0.272      103.417       24.239        0.055      348.977       29.066      860.432
07/04/2013  11:33:00      -96.648       -8.313       -9.792       30.668       20.273       18.636      940.550      410.985      347.313        0.560        0.085       97.005       15.251        0.025      348.930       28.985      860.427
07/04/2013  11:34:00      -92.852        8.569      -11.450       29.772       22.382       13.006      886.399      500.935      169.169        0.519        0.078       93.246        8.446        0.008      348.937       28.999      860.413
07/04/2013  11:35:00      -33.898       23.204       -3.812       32.868       27.987       20.456     1080.296      783.299      418.444        0.199        0.114       41.080       12.838        0.098      349.372       29.752      860.408
07/04/2013  11:36:00       -9.004       32.658       10.073       25.057       24.660       19.934      627.876      608.128      397.350        0.144        0.082       33.877       17.511        0.267      349.396       29.794      860.404
07/04/2013  11:37:00        4.580       75.754       15.802       23.971       47.297       30.893      574.632     2236.961      954.351        0.489        0.188       75.893       22.906        0.091      349.362       29.736      860.396
07/04/2013  11:38:00      -23.148       50.862        9.381       35.524       37.338       32.668     1261.957     1394.097     1067.174        0.347        0.186       55.882       24.268        0.189      349.635       30.210      860.388
07/04/2013  11:39:00      -52.859      -17.506        6.844       36.406       29.107       22.967     1325.383      847.241      527.504        0.292        0.135       55.682       25.928        0.217      349.428       29.851      860.381
07/04/2013  11:40:00      -79.431      -30.575        4.875       40.051       23.476       21.777     1604.065      551.109      474.254        0.495        0.131       85.113       12.040        0.020      349.210       29.471      860.372
07/04/2013  11:41:00      -99.920      -26.235       -4.933       34.527       29.568       20.704     1192.136      874.244      428.653        0.660        0.125      103.306        9.935        0.009      349.148       29.364      860.365
07/04/2013  11:42:00      -90.678       22.278       -9.799       26.951       24.146       16.799      726.355      583.041      282.201        0.520        0.080       93.375       13.455        0.021      349.141       29.351      860.364
07/04/2013  11:43:00      -28.971       36.661        1.375       20.565       14.473       23.346      422.926      209.478      545.052        0.168        0.059       46.726       15.800        0.114      349.459       29.905      860.358
07/04/2013  11:44:00      -26.752      -20.922        9.492       22.538       28.025       14.036      507.950      785.396      196.999        0.137        0.075       33.961       10.596        0.097      349.543       30.050      860.347
07/04/2013  11:45:00      -49.697      -37.254       -1.948       31.289       21.668       17.715      978.981      469.493      313.813        0.281        0.088       62.110       13.052        0.044      349.232       29.509      860.326
07/04/2013  11:46:00        0.746        8.311       22.325       27.556       16.825       17.728      759.328      283.094      314.272        0.096        0.068        8.344        8.834        1.121      350.059       30.944      860.298
07/04/2013  11:47:00       22.277       15.122       20.264       20.121       24.353       23.206      404.844      593.047      538.523        0.134        0.077       26.925       11.155        0.172      349.988       30.820      860.269
07/04/2013  11:48:00       -4.862      117.810        3.940       38.462       52.066       31.116     1479.307     2710.910      968.210        0.954        0.258      117.910       31.966        0.073      349.586       30.124      860.259
07/04/2013  11:49:00      -13.163       40.337       22.930       24.432       50.981       26.109      596.933     2599.028      681.682        0.310        0.194       42.431       30.330        0.511      350.135       31.077      860.253
07/04/2013  11:50:00      -19.568      -10.523       -1.051       33.705       21.616       26.115     1136.059      467.247      681.967        0.139        0.114       22.218       18.607        0.701      349.715       30.348      860.240
07/04/2013  11:51:00       13.821       19.477       16.410       22.742       17.566       20.360      517.212      308.560      414.526        0.104        0.062       23.882       14.833        0.386      350.163       31.126      860.225
07/04/2013  11:52:00       17.530       54.206       -1.821       19.814       36.149       22.348      392.591     1306.772      499.447        0.272        0.110       56.970       21.646        0.144      349.763       30.432      860.215
07/04/2013  11:53:00        6.728       31.689       25.147       26.267       32.440       27.617      689.958     1052.356      762.711        0.209        0.125       32.395       19.991        0.381      350.424       31.580      860.213
07/04/2013  11:54:00       58.529       38.385       13.279       36.900       27.892       28.805     1361.618      777.987      829.709        0.402        0.148       69.993       22.434        0.103      349.822       30.534      860.201
07/04/2013  11:55:00       69.739       60.546        5.600       33.180       38.014       29.558     1100.888     1445.036      873.663        0.599        0.171       92.354       21.558        0.054      349.755       30.415      860.192
07/04/2013  11:56:00       11.054      100.436       -0.967       26.594       42.699       23.179      707.248     1823.240      537.283        0.664        0.153      101.043       20.198        0.040      349.611       30.166      860.190
07/04/2013  11:57:00       34.598       37.153       24.093       22.220       30.210       28.133      493.722      912.665      791.451        0.268        0.110       50.768        9.621        0.036      349.757       30.419      860.186
07/04/2013  11:58:00      -13.742        8.648       -3.922       30.094       33.640       28.361      905.641     1131.627      804.356        0.156        0.142       16.237       15.469        0.908      349.568       30.091      860.176
07/04/2013  11:59:00      -23.503      -13.286       -9.820       26.865       15.962       21.923      721.714      254.788      480.606        0.114        0.073       26.998       17.251        0.408      349.493       29.961      860.177
07/04/2013  12:00:00       10.992      -17.327      -17.011       18.376       20.687       12.312      337.680      427.948      151.594        0.081        0.046       20.520       10.831        0.279      349.579       30.110      860.165
07/04/2013  12:01:00       16.184      -38.170        2.563       18.562       29.745       30.159      344.540      884.753      909.589        0.193        0.107       41.459       22.656        0.299      349.791       30.478      860.152
07/04/2013  12:02:00       -8.131      -28.758       15.485       27.316       31.660       22.615      746.180     1002.353      511.451        0.170        0.113       29.885       17.403        0.339      349.785       30.468      860.150
07/04/2013  12:03:00      -24.749      -26.043        1.348       16.572       27.415       11.782      274.641      751.602      138.807        0.123        0.058       35.927        8.356        0.054      349.643       30.223      860.132
07/04/2013  12:04:00      -46.146        1.429       -0.150       26.366       24.112       19.789      695.155      581.407      391.613        0.190        0.083       46.168       14.476        0.098      349.827       30.540      860.134
07/04/2013  12:05:00      -69.719       -0.846       -3.783       16.934       17.648       15.976      286.766      311.459      255.246        0.286        0.043       69.724       10.174        0.021      349.484       29.946      860.117
07/04/2013  12:06:00      -29.770        3.432        1.250       16.819       20.299       22.997      282.891      412.055      528.851        0.106        0.061       29.967       11.573        0.149      349.766       30.435      860.108
07/04/2013  12:07:00        8.633       -8.029       11.440       26.288       19.708       17.591      691.070      388.405      309.432        0.083        0.069       11.789       15.747        1.784      349.836       30.556      860.100
07/04/2013  12:08:00      -51.772        9.856       -4.719       28.558       19.981       14.882      815.543      399.238      221.487        0.212        0.072       52.702       14.745        0.078      349.815       30.522      860.085
07/04/2013  12:09:00      -63.122       13.593       -3.222       13.029       11.822       10.069      169.766      139.758      101.380        0.230        0.021       64.569        5.952        0.008      349.497       29.967      860.076
07/04/2013  12:10:00      -85.981        0.961      -10.200       22.264       26.711       14.027      495.688      713.491      196.762        0.445        0.070       85.986       11.292        0.017      349.461       29.908      860.072
07/04/2013  12:11:00      -85.365       -5.555        1.701       26.534       28.936       23.119      704.068      837.292      534.472        0.470        0.104       85.546       14.880        0.030      349.622       30.185      860.061
07/04/2013  12:12:00      -78.457      -22.923       -9.092       25.994       26.800       25.654      675.691      718.262      658.106        0.441        0.103       81.737       12.972        0.025      349.624       30.188      860.063
07/04/2013  12:13:00       21.846       36.212        7.179       38.552       27.388       38.952     1486.294      750.101     1517.219        0.280        0.188       42.292       21.032        0.247      349.911       30.687      860.065
07/04/2013  12:14:00       65.202       43.147       18.122       21.377       18.888       21.174      456.980      356.753      448.344        0.385        0.063       78.186       10.945        0.020      349.652       30.237      860.060
07/04/2013  12:15:00       16.596       23.165        8.678       39.100       33.697       11.008     1528.814     1135.504      121.176        0.184        0.139       28.496        3.409        0.014      349.819       30.528      860.064
07/04/2013  12:16:00      -45.525      -39.959        2.619       31.047       23.429       22.000      963.916      548.905      484.008        0.284        0.100       60.574       16.160        0.071      349.817       30.523      860.057
07/04/2013  12:17:00      -33.372      -55.673        0.246       20.568       28.181       16.869      423.024      794.186      284.572        0.286        0.075       64.909       10.002        0.024      349.707       30.333      860.062
07/04/2013  12:18:00      -37.800      -36.100        2.872       29.679       23.161       20.809      880.839      536.428      432.996        0.229        0.093       52.269       21.676        0.172      349.791       30.479      860.056
07/04/2013  12:19:00      -27.245      -26.157        9.144       29.895       33.276       20.062      893.716     1107.263      402.492        0.196        0.120       37.769       19.089        0.255      349.851       30.583      860.038
07/04/2013  12:20:00      -68.895      -45.828        5.498       49.671       37.602       25.320     2467.249     1413.940      641.099        0.570        0.226       82.745       26.274        0.101      349.752       30.411      860.030
07/04/2013  12:21:00      -70.425      -59.205        6.050       41.430       29.620       24.519     1716.446      877.357      601.203        0.585        0.160       92.005       22.123        0.058      349.690       30.302      860.027
07/04/2013  12:22:00      -39.743      -43.816        8.370       35.315       27.982       19.649     1247.150      782.968      386.066        0.299        0.121       59.155       20.031        0.115      349.824       30.536      860.014
07/04/2013  12:23:00      -42.454      -28.845       10.254       39.395       30.019       21.111     1551.947      901.170      445.666        0.282        0.145       51.326       19.084        0.138      350.061       30.948      859.998
07/04/2013  12:24:00      -75.824      -34.787       -2.175       23.543       27.719       16.963      554.259      768.323      287.744        0.429        0.081       83.423        6.062        0.005      349.670       30.269      859.989
07/04/2013  12:25:00      -30.404        2.895        5.897       16.254       13.455       14.008      264.181      181.042      196.225        0.080        0.032       30.542       12.188        0.159      350.034       30.900      859.974
07/04/2013  12:26:00      -10.330        4.467       21.192       15.928       12.216       11.842      253.691      149.241      140.236        0.056        0.027       11.254       10.118        0.808      350.517       31.740      859.943
07/04/2013  12:27:00       63.286      -15.480       -2.857       53.903       33.443       19.305     2905.581     1118.466      372.667        0.432        0.220       65.152       17.291        0.070      349.170       29.402      859.928
07/04/2013  12:28:00       30.315        7.375       26.394       30.041       19.724       22.797      902.433      389.024      519.694        0.174        0.091       31.200       17.477        0.314      349.454       29.893      859.920
07/04/2013  12:29:00       22.312        8.229       37.445       35.594       23.924       17.746     1266.958      572.347      314.912        0.206        0.108       23.781       17.824        0.562      349.625       30.190      859.903
07/04/2013  12:30:00      -43.359      -20.550        9.907       43.378       35.272       20.827     1881.663     1244.146      433.772        0.298        0.178       47.983       20.712        0.186      350.011       30.860      859.870
07/04/2013  12:31:00      -45.917      -40.248        5.748       46.349       40.595       24.722     2148.223     1647.950      611.158        0.408        0.220       61.060       24.336        0.159      350.007       30.853      859.845
07/04/2013  12:32:00      -66.829      -12.438       -6.488       15.141       28.451       12.458      229.240      809.465      155.211        0.293        0.060       67.977        8.282        0.015      349.757       30.420      859.812
07/04/2013  12:33:00      -84.537        7.165      -13.938       18.906       23.586       14.873      357.421      556.317      221.221        0.426        0.057       84.840        9.079        0.011      349.695       30.312      859.778
07/04/2013  12:34:00      -73.434       45.265      -13.854       18.687       13.189       11.820      349.204      173.956      139.719        0.415        0.033       86.263        7.027        0.007      349.700       30.323      859.745
07/04/2013  12:35:00      -73.171       41.044       -9.090       19.151       26.556       16.082      366.751      705.234      258.633        0.423        0.067       83.896        8.567        0.010      349.703       30.324      859.703
07/04/2013  12:36:00      -23.984       43.329        4.257       25.337       31.370       25.954      641.980      984.069      673.601        0.238        0.115       49.524       19.589        0.156      350.079       30.978      859.664
07/04/2013  12:37:00       -6.842        7.176       17.672       18.033       13.098       15.413      325.193      171.567      237.562        0.057        0.037        9.916        7.923        0.639      350.395       31.529      859.633
07/04/2013  12:38:00      -20.834        4.739        5.824       23.815       12.100       11.990      567.168      146.413      143.756        0.067        0.043       21.366        7.890        0.136      349.912       30.689      859.610
07/04/2013  12:39:00       -9.504        7.099        4.577       21.585        8.833       22.647      465.918       78.023      512.906        0.061        0.053       11.862       18.422        2.412      350.033       30.899      859.605
07/04/2013  12:40:00       21.785       17.410       32.472       22.296       13.300       11.728      497.129      176.894      137.545        0.132        0.041       27.887        7.501        0.072      350.176       31.147      859.607
07/04/2013  12:41:00       26.141       19.316       21.039       18.256       12.238       12.013      333.271      149.761      144.301        0.106        0.031       32.503        5.693        0.031      349.964       30.779      859.624
07/04/2013  12:42:00       11.857       21.546       20.047       15.574       15.772       13.588      242.542      248.743      184.630        0.084        0.034       24.593        9.941        0.163      350.260       31.294      859.630
07/04/2013  12:43:00       24.723       34.975        9.151       24.111       24.045       24.596      581.345      578.163      604.939        0.184        0.088       42.830       17.493        0.167      349.983       30.813      859.641
07/04/2013  12:44:00       59.238       37.095       -4.428       21.689       14.260       21.221      470.396      203.356      450.351        0.301        0.056       69.894       10.618        0.023      349.662       30.255      859.653
07/04/2013  12:45:00       54.470       17.025        6.573       25.564       24.534       19.261      653.499      601.929      370.984        0.246        0.081       57.068       15.011        0.069      349.898       30.664      859.669
07/04/2013  12:46:00       -6.441      -34.584       16.767       15.937       20.292       20.371      253.980      411.746      414.988        0.130        0.054       35.178       10.031        0.081      349.755       30.415      859.669
07/04/2013  12:47:00       15.043     -103.566      -12.095       40.709       42.017       29.750     1657.193     1765.454      885.071        0.770        0.215      104.653       20.077        0.037      349.818       30.526      859.673
07/04/2013  12:48:00       13.753      -53.212       12.974       22.323       29.713       24.940      498.320      882.853      622.018        0.260        0.100       54.960       20.860        0.144      349.997       30.836      859.673
07/04/2013  12:49:00       10.648      -68.669       14.903       21.387       24.829       24.326      457.403      616.462      591.761        0.336        0.083       69.489       18.002        0.067      350.116       31.043      859.666
07/04/2013  12:50:00       48.371      -86.403        4.756       63.773       71.726       52.141     4066.958     5144.561     2718.700        1.088        0.597       99.021       55.806        0.318      350.287       31.341      859.651
07/04/2013  12:51:00       10.931       25.452       35.776       38.175       41.211       25.879     1457.310     1698.373      669.735        0.294        0.191       27.700       19.852        0.514      350.260       31.293      859.643
07/04/2013  12:52:00       10.976       -0.794       27.576       23.345       29.618       22.727      544.991      877.235      516.535        0.141        0.097       11.005       19.461        3.127      350.365       31.476      859.620
07/04/2013  12:53:00       30.581       -9.002       18.373       40.659       22.665       24.161     1653.135      513.694      583.757        0.205        0.138       31.878       20.371        0.408      350.488       31.692      859.598
07/04/2013  12:54:00        6.432       14.598       16.472       17.421       16.710       28.435      303.505      279.210      808.555        0.096        0.070       15.952       19.484        1.492      350.751       32.147      859.575
07/04/2013  12:55:00       10.068       16.855       19.123       17.637       16.084       18.993      311.049      258.694      360.737        0.084        0.047       19.634        9.085        0.214      350.719       32.093      859.559
07/04/2013  12:56:00       19.971      -74.543        7.096       54.340       39.644       39.349     2952.833     1571.621     1548.320        0.604        0.304       77.172       22.339        0.084      350.210       31.207      859.541
07/04/2013  12:57:00        7.543        3.205       42.908       40.924       45.403       29.656     1674.788     2061.458      879.481        0.326        0.231        8.196       19.190        5.482      350.859       32.336      859.518
07/04/2013  12:58:00        7.219       -1.798       32.994       27.291       44.816       23.054      744.826     2008.484      531.467        0.221        0.164        7.440       14.467        3.781      350.808       32.246      859.508
07/04/2013  12:59:00       33.655      -11.430       19.475       51.159       57.893       39.042     2617.234     3351.629     1524.290        0.457        0.375       35.543       36.827        1.074      350.529       31.763      859.492
07/04/2013  13:00:00       25.060      -14.011       23.129       45.771       45.381       41.350     2095.016     2059.457     1709.852        0.361        0.293       28.711       28.030        0.953      350.753       32.152      859.477
07/04/2013  13:01:00      -22.439      -16.752       -0.108       38.843       45.682       32.487     1508.783     2086.865     1055.390        0.272        0.233       28.002       27.577        0.970      350.538       31.777      859.462
07/04/2013  13:02:00      -18.744       17.687       17.551       29.907       31.706       26.786      894.457     1005.284      717.501        0.179        0.131       25.771       14.887        0.334      350.831       32.288      859.458
07/04/2013  13:03:00       18.397      -61.245       10.055       36.457       54.020       49.323     1329.119     2918.138     2432.770        0.543        0.334       63.949       40.628        0.404      350.794       32.222      859.438
07/04/2013  13:04:00       -4.711      -20.572       28.308       40.198       71.364       38.289     1615.906     5092.772     1466.033        0.471        0.409       21.105       36.685        3.021      351.031       32.636      859.435
07/04/2013  13:05:00       -8.993      -35.673       17.800       31.785       38.347       31.365     1010.296     1470.475      983.767        0.257        0.173       36.790       19.118        0.270      350.976       32.540      859.412
07/04/2013  13:06:00      -34.129       36.501       31.292       31.809       29.882       34.436     1011.844      892.905     1185.856        0.328        0.155       49.972       24.622        0.243      351.168       32.874      859.403
07/04/2013  13:07:00       74.129     -144.360        6.295       72.266      108.713       52.259     5222.417    11818.492     2731.054        2.307        0.989      162.280       58.977        0.132      350.659       31.986      859.392
07/04/2013  13:08:00       75.328     -136.722       -5.672       47.132       40.916       29.577     2221.437     1674.115      874.796        1.458        0.239      156.100       21.725        0.019      350.366       31.475      859.390
07/04/2013  13:09:00       25.044      -21.894       38.850       40.445       83.517       48.511     1635.789     6975.100     2353.317        0.679        0.548       33.265       54.183        2.653      350.684       32.032      859.364
07/04/2013  13:10:00       34.309      -45.614       11.398       43.413       65.949       38.951     1884.662     4349.247     1517.180        0.557        0.388       57.076       40.369        0.500      350.683       32.030      859.351
07/04/2013  13:11:00       -4.539      -60.896        3.282       23.538       42.700       24.533      554.037     1823.281      601.853        0.336        0.149       61.065       28.169        0.213      350.418       31.568      859.332
07/04/2013  13:12:00      -37.276      -33.168       -3.449       28.232       24.941       19.304      797.049      622.053      372.651        0.215        0.090       49.896       16.332        0.107      350.399       31.535      859.311
07/04/2013  13:13:00        7.055      -10.338       12.407       16.292       21.954       23.623      265.416      481.975      558.052        0.081        0.065       12.516       10.994        0.772      351.390       33.263      859.296
07/04/2013  13:14:00       -4.096       14.054       32.188       45.664       25.659       21.070     2085.202      658.400      443.933        0.222        0.159       14.639       17.313        1.399      351.486       33.430      859.279
07/04/2013  13:15:00       -9.782      -26.554       25.283       33.787       54.406       40.080     1141.570     2960.001     1606.427        0.357        0.285       28.298       39.051        1.904      351.130       32.809      859.262
07/04/2013  13:16:00       34.561      -37.885       29.492       62.885       64.225       39.373     3954.541     4124.837     1550.260        0.656        0.481       51.281       40.264        0.616      350.891       32.391      859.251
07/04/2013  13:17:00       67.066      -43.181        8.597       41.268       43.265       32.292     1703.061     1871.886     1042.772        0.553        0.231       79.765       27.483        0.119      350.378       31.499      859.238
07/04/2013  13:18:00       67.654       14.530       20.646       45.241       45.708       41.254     2046.741     2089.191     1701.881        0.552        0.292       69.197       37.097        0.287      350.374       31.491      859.230
07/04/2013  13:19:00      124.592       75.305       13.532       42.817       51.834       26.662     1833.281     2686.757      710.864        1.330        0.262      145.582       19.099        0.017      350.350       31.449      859.200
07/04/2013  13:20:00      125.719       80.829       26.040       96.108       70.888       56.729     9236.767     5025.111     3218.185        2.024        0.874      149.461       47.168        0.100      350.897       32.400      859.166
07/04/2013  13:21:00      146.881      101.945       31.462       53.938       49.071       43.827     2909.293     2407.983     1920.800        2.010        0.362      178.793       14.896        0.007      350.621       31.918      859.154
07/04/2013  13:22:00       82.965       82.251        4.709       60.741       49.584       38.984     3689.521     2458.534     1519.738        1.067        0.383      116.827       17.331        0.022      350.738       32.124      859.138
07/04/2013  13:23:00      119.001       79.550       16.759       90.368       57.286       54.681     8166.440     3281.718     2990.046        1.760        0.722      143.141       39.151        0.075      350.840       32.301      859.105
07/04/2013  13:24:00       77.922      125.511      132.725       85.917       64.769       59.168     7381.764     4195.031     3500.880        2.726        0.754      147.732       42.690        0.084      350.512       31.729      859.083
07/04/2013  13:25:00       59.676       72.131       89.087       77.675       93.109       66.974     6033.374     8669.308     4485.478        1.794        0.959       93.617       70.761        0.571      350.549       31.795      859.058
07/04/2013  13:26:00       92.467       48.171       35.017       57.497       53.626       52.192     3305.912     2875.747     2724.052        1.050        0.445      104.263       28.242        0.073      350.955       32.503      859.039
07/04/2013  13:27:00      122.463       55.464       24.260       78.628       59.562       56.035     6182.371     3547.605     3139.935        1.576        0.643      134.437       45.209        0.113      351.174       32.884      859.010
07/04/2013  13:28:00       73.647       84.085        3.667       81.902       95.139       64.521     6707.986     9051.470     4162.896        1.621        0.996      111.777       57.920        0.269      351.190       32.912      858.975
07/04/2013  13:29:00       81.779      115.181        9.402       66.947       77.313       53.899     4481.965     5977.322     2905.120        1.670        0.668      141.261       45.218        0.102      350.972       32.530      858.942
07/04/2013  13:30:00      166.956       92.412       22.255       60.977       64.038       48.846     3718.201     4100.839     2385.957        2.356        0.510      190.825       25.562        0.018      350.776       32.189      858.913
07/04/2013  13:31:00       56.983       55.165       12.256       44.318       42.477       32.891     1964.059     1804.298     1081.805        0.564        0.243       79.311       20.364        0.066      351.005       32.590      858.871
07/04/2013  13:32:00       72.228       51.138       21.533       45.579       33.019       35.705     2077.410     1090.271     1274.819        0.637        0.222       88.499       19.996        0.051      351.099       32.755      858.843
07/04/2013  13:33:00       39.823       55.595       14.302       72.092       41.545       35.145     5197.194     1725.961     1235.152        0.652        0.408       68.386       27.477        0.161      351.115       32.783      858.802
07/04/2013  13:34:00       31.675       95.573       12.675       75.006       75.245       41.143     5625.836     5661.797     1692.709        1.164        0.649      100.685       35.667        0.125      351.349       33.189      858.753
07/04/2013  13:35:00      155.618       96.654       19.153      103.830       89.106       51.312    10780.583     7939.871     2632.953        2.764        1.068      183.191       34.685        0.036      351.075       32.708      858.704
07/04/2013  13:36:00      218.679      195.582        6.094      124.893       81.918       62.154    15598.318     6710.570     3863.068        5.614        1.309      293.382       39.651        0.018      350.645       31.959      858.667
07/04/2013  13:37:00       45.704      122.011        1.260       62.750       64.249       54.694     3937.507     4127.918     2991.478        1.401        0.553      130.290       46.839        0.129      351.006       32.592      858.641
07/04/2013  13:38:00        0.411      135.383      -10.062       45.083       93.642       33.179     2032.503     8768.780     1100.823        1.516        0.595      135.383       40.234        0.088      351.121       32.792      858.624
07/04/2013  13:39:00      -11.083      194.554       -7.793       54.511       91.065       34.218     2971.463     8292.826     1170.883        2.523        0.622      194.869       34.653        0.032      351.025       32.622      858.597
07/04/2013  13:40:00       -9.260       76.052       15.427       27.380       58.005       31.736      749.686     3364.566     1007.161        0.561        0.256       76.614       34.415        0.202      351.657       33.729      858.584
07/04/2013  13:41:00       -1.069      -25.175       16.709       26.083       30.579       21.244      680.334      935.072      451.313        0.149        0.103       25.197       15.121        0.360      351.525       33.498      858.577
07/04/2013  13:42:00       11.003      -15.139       18.942       37.112       21.747       17.675     1377.300      472.939      312.413        0.144        0.108       18.715       12.460        0.443      351.313       33.129      858.564
07/04/2013  13:43:00       28.183       -4.727       13.372       43.920       38.521       28.637     1928.985     1483.851      820.102        0.261        0.212       28.576       21.789        0.581      350.887       32.384      858.559
07/04/2013  13:44:00       26.855      -35.993        3.287       45.281       61.556       48.932     2050.326     3789.096     2394.297        0.513        0.412       44.908       44.014        0.961      350.944       32.484      858.537
07/04/2013  13:45:00       18.211      -13.386       48.107       33.351       56.390       45.319     1112.321     3179.874     2053.772        0.458        0.317       22.602       37.250        2.716      351.454       33.373      858.511
07/04/2013  13:46:00       90.233     -118.308      -21.478       58.481       74.751       40.800     3420.014     5587.647     1664.656        1.663        0.534      148.791       31.737        0.045      351.089       32.737      858.511
07/04/2013  13:47:00      -46.197      -83.663        2.072       56.916       49.253       33.532     3239.438     2425.828     1124.408        0.796        0.339       95.570       29.019        0.092      351.220       32.966      858.512
07/04/2013  13:48:00      -70.145      -65.078        2.520       44.601       38.374       25.956     1989.235     1472.566      673.714        0.665        0.207       95.684       17.470        0.033      351.089       32.735      858.520
07/04/2013  13:49:00      -23.966       -7.813       14.533       20.797       43.746       26.247      432.532     1913.676      688.922        0.194        0.152       25.208       25.954        1.060      351.552       33.544      858.497
07/04/2013  13:50:00      -75.622        2.634        2.533       30.573       34.281       21.325      934.717     1175.158      454.751        0.415        0.128       75.668       15.118        0.040      351.342       33.176      858.498
07/04/2013  13:51:00       -3.790       10.071       31.732       22.353       25.806       28.693      499.658      665.961      823.317        0.156        0.099       10.761       14.431        1.799      352.319       34.885      858.468
07/04/2013  13:52:00      -19.692       18.915       33.462       50.226       32.459       31.907     2522.604     1053.556     1018.053        0.323        0.230       27.305       10.774        0.156      351.483       33.423      858.445
07/04/2013  13:53:00       10.537      -67.465       12.659       33.532       85.430       42.440     1124.384     7298.306     1801.150        0.752        0.511       68.283       53.548        0.615      351.021       32.617      858.429
07/04/2013  13:54:00       43.733      -78.382        0.605       56.682       44.710       43.461     3212.867     1998.994     1888.819        0.758        0.355       89.757       31.361        0.122      351.051       32.669      858.403
07/04/2013  13:55:00       21.637        5.943       28.008       21.988       38.326       19.527      483.488     1468.917      381.301        0.181        0.117       22.439       17.996        0.643      351.361       33.211      858.382
07/04/2013  13:56:00        0.595      -21.529        0.701       18.827       52.258       25.740      354.471     2730.848      662.569        0.211        0.187       21.537       13.435        0.389      350.811       32.253      858.352
07/04/2013  13:57:00      -15.633      -20.894        3.520       31.475       47.564       23.773      990.682     2262.321      565.158        0.225        0.191       26.095       18.477        0.501      351.225       32.973      858.310
07/04/2013  13:58:00        2.767      -94.192        8.510       71.277       66.620       49.500     5080.396     4438.230     2450.275        1.046        0.598       94.232       36.809        0.153      351.463       33.388      858.277
07/04/2013  13:59:00       92.390      -73.237        0.358       68.114       78.829       47.756     4639.504     6214.052     2280.673        1.351        0.657      117.897       53.138        0.203      351.456       33.375      858.237
07/04/2013  14:00:00       65.380      -26.299       60.149       71.329      106.244       66.200     5087.785    11287.830     4382.451        1.467        1.038       70.471       66.659        0.895      351.332       33.159      858.196
07/04/2013  14:01:00      130.483     -132.835      -25.027       78.156      103.028       59.817     6108.312    10614.820     3578.025        2.780        1.015      186.201       61.989        0.111      351.154       32.847      858.172
07/04/2013  14:02:00       53.804      -64.932        4.958       69.936       86.729       67.576     4891.044     7521.975     4566.482        1.205        0.849       84.327       59.201        0.493      351.316       33.130      858.159
07/04/2013  14:03:00       41.578      -47.182       22.253       64.639       99.945       45.173     4178.222     9988.992     2040.640        1.033        0.810       62.888       40.900        0.423      351.482       33.420      858.168
07/04/2013  14:04:00      -13.073       18.692       58.758       34.278       45.650       27.980     1175.010     2083.943      782.906        0.401        0.202       22.810       19.356        0.720      351.803       33.983      858.145
07/04/2013  14:05:00        4.754       -9.560       41.261       43.115       44.650       38.182     1858.874     1993.625     1457.838        0.356        0.266       10.676       25.612        5.755      351.954       34.246      858.128
07/04/2013  14:06:00       30.727       25.205       24.114       45.549       28.127       27.544     2074.719      791.123      758.673        0.289        0.181       39.742       19.170        0.233      351.763       33.912      858.109
07/04/2013  14:07:00       73.209       45.146        7.207       65.245       42.200       31.559     4256.915     1780.809      995.950        0.724        0.352       86.010       15.906        0.034      351.589       33.610      858.075
07/04/2013  14:08:00      102.602       71.124       25.795       87.614       44.341       52.942     7676.219     1966.162     2802.853        1.435        0.622      124.843       36.471        0.085      351.743       33.875      858.051
07/04/2013  14:09:00      113.515       91.788       29.397       30.484       36.586       29.639      929.272     1338.531      878.454        1.266        0.157      145.982       11.360        0.006      351.177       32.889      858.025
07/04/2013  14:10:00       68.606       49.114       12.036       39.765       28.188       28.925     1581.257      794.542      836.679        0.524        0.161       84.374       19.362        0.053      351.137       32.821      858.016
07/04/2013  14:11:00       26.392       17.045       20.962       35.344       36.017       27.604     1249.177     1297.241      762.008        0.237        0.165       31.417        8.285        0.070      351.686       33.777      857.998
07/04/2013  14:12:00        6.595       43.904        8.410       16.131       21.963       24.542      260.202      482.393      602.317        0.169        0.067       44.396       18.346        0.171      351.691       33.787      857.987
07/04/2013  14:13:00       11.796       18.465       47.176       23.526       22.503       20.243      553.469      506.390      409.791        0.209        0.073       21.911       16.445        0.563      352.250       34.763      857.981
07/04/2013  14:14:00      -60.968       23.542       12.903       49.070       24.476       22.957     2407.886      599.053      527.010        0.399        0.177       65.356       30.660        0.220      351.934       34.211      857.968
07/04/2013  14:15:00      -36.926       -8.639       33.924       55.112       61.268       29.666     3037.317     3753.713      880.066        0.513        0.384       37.923       29.686        0.613      351.966       34.267      857.957
07/04/2013  14:16:00       -0.727      -87.602       17.414       65.501       52.330       40.618     4290.430     2738.408     1649.860        0.833        0.434       87.605       18.831        0.046      351.507       33.464      857.935
07/04/2013  14:17:00       37.523      -92.795      -14.941       49.320       33.232       27.009     2432.440     1104.399      729.493        0.725        0.213      100.094       19.714        0.039      351.112       32.777      857.922
07/04/2013  14:18:00       25.713      -42.694       19.572       37.160       36.376       31.281     1380.845     1323.203      978.487        0.327        0.184       49.839       11.287        0.051      351.545       33.532      857.923
07/04/2013  14:19:00       19.973       26.745        9.797       21.647       34.119       23.617      468.597     1164.135      557.782        0.170        0.110       33.380       23.477        0.495      352.025       34.371      857.921
07/04/2013  14:20:00      -67.117      -45.728       -1.021       53.873       52.372       27.897     2902.333     2742.790      778.266        0.651        0.321       81.214        6.227        0.006      351.292       33.091      857.913
07/04/2013  14:21:00      -27.792       -3.757        8.030       49.584       15.322       25.637     2458.530      234.778      657.262        0.210        0.168       28.045       30.247        1.163      352.244       34.753      857.896
07/04/2013  14:22:00      -29.553        5.627        3.172       33.866       32.969       23.770     1146.935     1086.932      565.022        0.186        0.140       30.084       17.698        0.346      351.934       34.212      857.881
07/04/2013  14:23:00       -1.328      -49.749      -10.835       29.719       38.492       22.856      883.246     1481.656      522.415        0.274        0.144       49.767       11.836        0.057      351.318       33.135      857.875
07/04/2013  14:24:00        0.188       31.488       13.787       22.576       31.706       35.211      509.654     1005.289     1239.847        0.197        0.138       31.488       13.033        0.171      352.193       34.665      857.860
07/04/2013  14:25:00        7.888        7.846       48.243       36.107       63.735       32.885     1303.741     4062.099     1081.400        0.445        0.322       11.125       41.241       13.742      351.953       34.244      857.854
07/04/2013  14:26:00       45.419      -61.995       28.240       62.404       87.643       45.447     3894.276     7681.362     2065.470        1.017        0.682       76.852       49.542        0.416      351.822       34.015      857.826
07/04/2013  14:27:00      109.380     -127.840      -39.929       66.602       72.121       45.299     4435.816     5201.395     2051.968        2.079        0.584      168.247       42.957        0.065      351.460       33.380      857.811
07/04/2013  14:28:00       89.016       81.797       79.305       97.755       66.921       64.095     9556.076     4478.456     4108.184        1.952        0.907      120.891       59.492        0.242      351.364       33.215      857.781
07/04/2013  14:29:00      162.334       93.721       46.422       60.055       41.938       51.819     3606.614     1758.823     2685.217        2.267        0.403      187.445       30.836        0.027      351.374       33.231      857.753
07/04/2013  14:30:00       44.402       16.170       58.659       67.001      103.495       68.234     4489.121    10711.123     4655.862        1.276        0.993       47.254       72.668        2.365      351.596       33.620      857.717
07/04/2013  14:31:00       75.560      -64.126       31.154       74.289      106.515       73.104     5518.899    11345.369     5344.134        1.650        1.110       99.103       79.414        0.642      351.778       33.935      857.683
07/04/2013  14:32:00      100.171     -107.255      -11.414       57.857       80.863       39.435     3347.446     6538.789     1555.102        1.655        0.572      146.758       50.229        0.117      351.558       33.552      857.659
07/04/2013  14:33:00       40.824       19.842       36.165       54.282       63.971       38.947     2946.573     4092.309     1516.905        0.596        0.428       45.390       17.664        0.151      351.875       34.106      857.634
07/04/2013  14:34:00       74.358      -38.273       55.224       94.527      106.001       59.784     8935.359    11236.197     3574.079        1.689        1.187       83.630       73.323        0.769      351.792       33.961      857.592
07/04/2013  14:35:00       27.320      153.255      133.163       58.638       86.199       99.475     3438.369     7430.187     9895.319        3.136        1.038      155.671       79.627        0.262      351.728       33.849      857.573
07/04/2013  14:36:00       46.197      -33.472       22.249       49.741       59.346       45.662     2474.133     3521.904     2085.031        0.591        0.404       57.049       41.183        0.521      351.744       33.879      857.560
07/04/2013  14:37:00       50.471       -5.747       14.727       56.443       71.838       42.721     3185.844     5160.734     1825.047        0.648        0.509       50.797       40.822        0.646      351.499       33.451      857.552
07/04/2013  14:38:00      -12.895     -115.470      -19.236       39.123       46.825       28.616     1530.635     2192.602      818.881        0.920        0.227      116.188       16.426        0.020      351.758       33.903      857.553
07/04/2013  14:39:00      -26.369      -70.981      -12.314       37.977       54.930       25.147     1442.260     3017.301      632.362        0.549        0.255       75.721       11.079        0.021      351.744       33.878      857.567
07/04/2013  14:40:00      -49.021       -4.998        9.522       39.512       52.309       25.765     1561.184     2736.192      663.820        0.374        0.248       49.275       22.686        0.212      352.020       34.362      857.577
07/04/2013  14:41:00      -85.713       -8.826        3.029       51.333       49.458       26.444     2635.049     2446.121      699.284        0.661        0.289       86.166       22.769        0.070      351.985       34.300      857.582
07/04/2013  14:42:00      -51.392      -50.352        0.465       35.306       37.668       23.880     1246.508     1418.888      570.274        0.421        0.162       71.948       12.578        0.031      351.669       33.749      857.591
07/04/2013  14:43:00     -122.142       25.969      -11.808       48.364       52.437       32.293     2339.105     2749.679     1042.837        1.093        0.307      124.872       25.451        0.042      352.082       34.469      857.660
07/04/2013  14:44:00     -101.778      152.169       -6.496       69.357       97.638       48.570     4810.381     9533.236     2359.079        2.513        0.835      183.069       57.412        0.098      352.277       34.807      857.774
07/04/2013  14:45:00     -144.308      293.290      -35.494      138.411      156.031       73.495    19157.561    24345.630     5401.552        7.849        2.445      326.870       83.463        0.065      351.415       33.303      857.878
07/04/2013  14:46:00     -126.570      304.084      -16.850      115.899      119.549       80.810    13432.598    14292.052     6530.309        7.151        1.713      329.374       74.069        0.051      351.389       33.256      857.777
07/04/2013  14:47:00     -134.682      152.472      -10.274      129.034      105.971       69.388    16649.740    11229.798     4814.735        3.709        1.635      203.438       77.400        0.145      351.496       33.443      857.746
07/04/2013  14:48:00     -132.980      144.709      -14.192      114.168      140.643       77.270    13034.289    19780.335     5970.612        3.880        1.939      196.531       54.406        0.077      351.135       32.815      857.720
07/04/2013  14:49:00     -392.234      153.791      -37.141      201.022      185.205      109.043    40409.803    34300.797    11890.352       13.272        4.330      421.307       90.792        0.046      350.854       32.323      857.721
07/04/2013  14:50:00     -282.867      199.622      -50.351      165.526      187.796       75.949    27398.823    35267.197     5768.211        9.540        3.422      346.212       57.638        0.028      350.733       32.111      857.724
07/04/2013  14:51:00     -290.575        3.330      -62.612      173.891      210.866       75.057    30238.220    44464.494     5633.621        8.433        4.017      290.594       60.139        0.043      350.786       32.206      857.678
07/04/2013  14:52:00     -242.903      100.623      -29.766      166.162      161.869       84.504    27609.745    26201.529     7140.880        6.547        3.048      262.920       86.141        0.107      350.885       32.377      857.714
07/04/2013  14:53:00     -262.123       82.522      -24.700      184.763      144.173       86.854    34137.334    20785.744     7543.542        6.928        3.123      274.806       84.184        0.094      350.674       32.010      857.757
07/04/2013  14:54:00     -199.361       35.775       -8.980      160.717      110.941       78.525    25830.007    12307.934     6166.215        4.270        2.215      202.546       88.618        0.191      350.644       31.958      857.772
07/04/2013  14:55:00     -172.822      112.174      -43.390      119.232      162.699       77.981    14216.378    26470.942     6081.062        4.554        2.338      206.035       84.238        0.167      350.556       31.805      857.798
07/04/2013  14:56:00     -139.598       78.323       -7.248      118.781      144.925       71.832    14108.952    21003.251     5159.875        3.297        2.014      160.069       66.083        0.170      350.784       32.201      857.796
07/04/2013  14:57:00     -259.951       37.243      -19.836      205.239      150.181       74.961    42123.116    22554.193     5619.182        6.981        3.515      262.605       93.707        0.127      350.595       31.872      857.810
07/04/2013  14:58:00     -310.347       80.695      -26.654      189.718      169.588       80.540    35992.959    28760.125     6486.771        8.737        3.562      320.666       97.209        0.092      350.539       31.775      857.826
07/04/2013  14:59:00     -122.456      423.612      -46.022      168.685      222.948       86.649    28454.784    49705.931     7508.074       14.110        4.283      440.956       92.564        0.044      350.462       31.640      857.863
07/04/2013  15:00:00     -295.315      308.178      -45.436      203.709      238.381      106.888    41497.215    56825.333    11424.970       14.698        5.487      426.831       99.444        0.054      350.175       31.141      857.864
07/04/2013  15:01:00     -381.183      409.314      -86.602      207.225      210.620      108.861    42942.278    44360.879    11850.761       20.973        4.958      559.320      124.567        0.050      349.734       30.377      857.881
07/04/2013  15:02:00     -222.093      306.440      -28.765      130.783      194.106       98.997    17104.228    37676.953     9800.347       10.431        3.229      378.459       97.722        0.067      349.920       30.700      857.819
07/04/2013  15:03:00     -205.577      430.683      -63.991      151.011      202.362       80.443    22804.207    40950.516     6471.097       15.102        3.511      477.231       84.699        0.031      349.739       30.385      857.830
07/04/2013  15:04:00     -244.720      369.648      -67.501      176.482      225.899      102.877    31145.721    51030.582    10583.780       14.690        4.638      443.314       95.199        0.046      349.545       30.048      857.819
07/04/2013  15:05:00     -335.480      341.904      -38.809      227.371      235.030      108.096    51697.516    55238.967    11684.765       17.476        5.931      479.004      132.498        0.077      349.370       29.745      857.788
07/04/2013  15:06:00     -125.537      388.657      -41.580      130.021      180.345       77.610    16905.369    32524.487     6023.324       11.199        2.773      408.429       88.000        0.046      349.394       29.786      857.768
07/04/2013  15:07:00     -179.004      250.661      -33.301      107.525      140.551       66.168    11561.692    19754.447     4378.188        6.583        1.785      308.015       53.006        0.030      349.469       29.915      857.734
07/04/2013  15:08:00     -252.723      337.536      -57.566      169.597      164.387       90.993    28763.086    27023.069     8279.675       12.258        3.203      421.662      104.347        0.061      349.365       29.737      857.715
07/04/2013  15:09:00     -235.569      376.710      -52.306      159.127      172.162       93.148    25321.503    29639.924     8676.515       13.188        3.182      444.301       88.307        0.040      349.284       29.596      857.703
07/04/2013  15:10:00     -318.427      416.310      -76.098      207.894      188.504       99.784    43219.903    35533.734     9956.776       18.459        4.436      524.128      119.667        0.052      349.413       29.820      857.687
07/04/2013  15:11:00     -196.763      422.938      -42.867      128.895      206.554       84.411    16613.958    42664.408     7125.186       14.290        3.320      466.468       82.921        0.032      349.486       29.945      857.701
07/04/2013  15:12:00     -213.971      585.542      -62.852      148.370      171.119       89.678    22013.612    29281.573     8042.179       22.595        2.967      623.412       86.590        0.019      349.302       29.625      857.710
07/04/2013  15:13:00     -119.588      248.949      -34.311      120.519      189.396       74.594    14524.718    35870.905     5564.332        6.670        2.798      276.183       70.669        0.065      349.560       30.073      857.712
07/04/2013  15:14:00     -107.943      313.512      -29.164      113.078      171.151       85.815    12786.538    29292.665     7364.268        8.011        2.472      331.574       80.163        0.058      349.722       30.355      857.702
07/04/2013  15:15:00     -121.435      363.499      -49.738       97.267      203.156       65.680     9460.846    41272.207     4313.875       10.219        2.752      383.246       78.614        0.042      349.659       30.245      857.714
07/04/2013  15:16:00     -145.906      248.624      -27.794      110.386      152.198       67.667    12185.102    23164.372     4578.783        6.189        1.996      288.275       71.540        0.062      349.804       30.498      857.693
07/04/2013  15:17:00     -114.661      385.738      -35.929      122.862      163.124       79.824    15095.017    26609.416     6371.863       10.564        2.404      402.418       79.440        0.039      349.751       30.404      857.680
07/04/2013  15:18:00     -127.285      359.094      -43.836      124.255      135.636       67.035    15439.410    18397.189     4493.644        9.269        1.917      380.986       64.333        0.029      349.834       30.550      857.625
07/04/2013  15:19:00     -150.368      447.526      -70.641      133.854      161.890       74.340    17917.001    26208.236     5526.441       13.876        2.483      472.113       69.718        0.022      349.848       30.573      857.589
07/04/2013  15:20:00     -136.154      389.555      -42.112       74.919      121.368       67.603     5612.811    14730.291     4570.162        9.848        1.246      412.664       63.524        0.024      350.036       30.900      857.569
07/04/2013  15:21:00     -250.981      368.241      -74.121       92.450      150.969       69.666     8547.064    22791.538     4853.350       12.013        1.810      445.637       55.003        0.015      350.136       31.073      857.577
07/04/2013  15:22:00     -245.717      274.555      -56.114      112.940      140.544       67.962    12755.333    19752.701     4618.876        8.801        1.856      368.453       71.201        0.037      350.174       31.141      857.595
07/04/2013  15:23:00     -158.371      296.997      -36.667       97.349      113.202       70.759     9476.920    12814.750     5006.891        7.096        1.365      336.584       63.590        0.036      350.229       31.236      857.606
07/04/2013  15:24:00      -97.394      186.621      -13.162       71.828      114.274       44.834     5159.240    13058.548     2010.052        3.235        1.011      210.506       52.190        0.061      350.272       31.313      857.588
07/04/2013  15:25:00     -122.702      193.286      -17.021      115.544      172.580       73.496    13350.313    29783.910     5401.732        5.061        2.427      228.944       78.789        0.118      350.254       31.280      857.593
07/04/2013  15:26:00     -175.303      338.878      -31.002      146.956      199.934       73.054    21596.013    39973.655     5336.819       10.671        3.345      381.535       93.526        0.060      349.951       30.753      857.571
07/04/2013  15:27:00     -176.136      368.039      -47.259      125.139      151.646       79.367    15659.764    22996.647     6299.073       10.682        2.248      408.016       77.334        0.036      349.867       30.608      857.542
07/04/2013  15:28:00     -124.983      241.577      -24.131      118.802      133.423       72.370    14113.950    17801.579     5237.365        5.585        1.858      271.993       59.733        0.048      350.079       30.975      857.510
07/04/2013  15:29:00     -114.488      322.284      -22.850       96.959      155.799       61.803     9401.137    24273.441     3819.646        7.749        1.875      342.015       68.069        0.040      350.182       31.155      857.484
07/04/2013  15:30:00     -107.522      217.141      -16.230      107.265      206.803       71.223    11505.762    42767.427     5072.725        5.915        2.967      242.304       77.622        0.103      350.498       31.704      857.422
07/04/2013  15:31:00     -218.403      262.469      -34.939      174.950      140.298       68.919    30607.449    19683.456     4749.849        8.641        2.752      341.453       73.320        0.046      350.259       31.289      857.410
07/04/2013  15:32:00     -303.415      256.261      -31.615      142.664      140.762       85.992    20352.929    19814.070     7394.603       10.314        2.378      397.153       78.039        0.039      350.343       31.433      857.382
07/04/2013  15:33:00     -204.074      255.378      -36.430      118.381      168.763       73.429    14014.030    28480.785     5391.798        7.803        2.394      326.901       81.063        0.061      350.414       31.557      857.366
07/04/2013  15:34:00      -94.734      325.925      -33.901       92.287      148.803       68.630     8516.960    22142.290     4710.123        7.585        1.768      339.414       77.496        0.052      350.581       31.848      857.327
07/04/2013  15:35:00      -95.985      394.690      -52.703      112.190      148.974       74.199    12586.634    22193.183     5505.533       10.402        2.014      406.194       75.759        0.035      350.624       31.922      857.300
07/04/2013  15:36:00     -110.305      415.951      -60.798       75.502      163.910       51.893     5700.488    26866.546     2692.903       11.206        1.763      430.328       62.706        0.021      350.559       31.808      857.279
07/04/2013  15:37:00      -82.835      232.059      -22.956       93.943      116.818       56.312     8825.254    13646.547     3171.067        4.344        1.282      246.400       59.477        0.058      350.815       32.255      857.250
07/04/2013  15:38:00      -91.725      154.670      -24.618       66.180      105.690       39.732     4379.760    11170.283     1578.600        2.503        0.856      179.823       22.017        0.015      350.954       32.499      857.233
07/04/2013  15:39:00     -136.792      292.173      -30.843       89.378      105.505       64.895     7988.515    11131.264     4211.340        6.418        1.167      322.610       51.932        0.026      350.969       32.525      857.207
07/04/2013  15:40:00      -97.779      236.765      -21.848       69.367       99.540       47.938     4811.777     9908.260     2298.087        4.155        0.851      256.161       48.588        0.036      351.098       32.748      857.164
07/04/2013  15:41:00      -97.297       65.207        2.864       82.419       67.306       38.174     6792.826     4530.087     1457.231        1.325        0.639      117.126       36.738        0.098      351.433       33.335      857.145
07/04/2013  15:42:00     -185.216      186.775      -15.471      120.193      130.730       71.079    14446.308    17090.220     5052.163        5.300        1.829      263.040       66.704        0.064      350.803       32.235      857.148
07/04/2013  15:43:00     -136.116      157.041      -19.232       98.846      109.659       58.403     9770.485    12024.990     3410.948        3.438        1.260      207.821       57.240        0.076      350.896       32.399      857.138
07/04/2013  15:44:00     -176.827      215.904      -46.669       94.514      126.923       57.993     8932.948    16109.511     3363.238        5.423        1.420      279.073       60.664        0.047      350.764       32.168      857.134
07/04/2013  15:45:00      -95.523      184.837       -8.967       53.111       82.103       49.943     2820.817     6740.861     2494.349        2.771        0.603      208.062       39.743        0.036      350.970       32.525      857.138
07/04/2013  15:46:00      -65.098      202.607      -21.446       88.319      137.427       57.665     7800.198    18886.208     3325.224        3.787        1.501      212.808       71.833        0.114      350.905       32.414      857.147
07/04/2013  15:47:00      -95.148      411.104      -45.779      108.036      115.693       65.528    11671.826    13384.870     4293.862       10.475        1.468      421.971       62.285        0.022      350.621       31.917      857.139
07/04/2013  15:48:00     -163.471      349.847      -44.836       96.777      141.132       66.315     9365.794    19918.132     4397.667        9.240        1.684      386.155       71.227        0.034      350.480       31.673      857.138
07/04/2013  15:49:00     -143.946      369.313      -44.559      119.900      115.532       60.117    14376.054    13347.627     3614.089        9.521        1.567      396.374       61.516        0.024      350.418       31.565      857.117
07/04/2013  15:50:00     -133.313      325.616      -37.473       88.726      121.676       65.774     7872.377    14805.002     4326.220        7.610        1.350      351.850       67.345        0.037      350.478       31.670      857.104
07/04/2013  15:51:00     -116.114      226.936      -16.142      115.669      121.161       55.202    13379.413    14679.869     3047.233        4.817        1.555      254.917       67.171        0.069      350.593       31.870      857.097
07/04/2013  15:52:00     -130.171      240.364      -35.392       87.457      100.435       47.857     7648.727    10087.272     2290.320        4.800        1.001      273.348       41.959        0.024      350.662       31.989      857.091
07/04/2013  15:53:00     -256.259      258.760      -53.215      110.668      127.784       63.494    12247.445    16328.655     4031.473        8.403        1.630      364.178       54.398        0.022      350.392       31.519      857.103
07/04/2013  15:54:00      -51.630      308.393      -25.062       88.752      116.447       58.705     7876.975    13559.892     3446.322        6.164        1.244      312.685       61.788        0.039      350.500       31.707      857.064
07/04/2013  15:55:00      -80.054      196.568       -7.703       78.366      102.134       52.536     6141.194    10431.390     2760.064        3.222        0.967      212.244       60.298        0.081      350.652       31.974      857.024
07/04/2013  15:56:00       21.838      193.096       -6.827       63.071      132.359       61.207     3977.969    17518.805     3746.263        3.152        1.262      194.327       64.687        0.111      350.673       32.010      856.991
07/04/2013  15:57:00      -66.934      247.616      -11.689       73.406      121.103       57.744     5388.510    14665.825     3334.329        4.465        1.169      256.503       67.096        0.068      350.510       31.725      856.992
07/04/2013  15:58:00     -138.922      145.715      -23.250      122.134       85.438       46.114    14916.784     7299.630     2126.470        3.270        1.217      201.326       47.682        0.056      350.488       31.687      857.019
07/04/2013  15:59:00      -20.380      327.529      -37.585       68.510      104.928       55.162     4693.583    11009.859     3042.819        6.392        0.937      328.163       55.814        0.029      350.378       31.495      857.050
07/04/2013  16:00:00      -78.043      111.894      -12.436       91.994       96.849       46.959     8462.933     9379.702     2205.125        1.940        1.002      136.422       45.769        0.113      350.643       31.958      857.047
07/04/2013  16:01:00     -150.997      253.895      -47.892      107.107      116.884       63.842    11471.833    13661.770     4075.852        5.938        1.460      295.402       74.340        0.063      350.441       31.607      857.055
07/04/2013  16:02:00     -117.393      244.096      -25.725       73.752       90.468       50.597     5439.397     8184.440     2560.081        4.510        0.809      270.858       44.148        0.027      350.521       31.743      857.049
07/04/2013  16:03:00     -222.869      319.346      -63.865      153.984      135.614       73.165    23711.204    18391.030     5353.169       10.158        2.373      389.426       79.860        0.042      350.401       31.534      857.077
07/04/2013  16:04:00     -190.214      370.252      -48.013      145.774      163.765       68.154    21250.019    26819.057     4645.034       11.413        2.636      416.255       52.745        0.016      350.366       31.474      857.089
07/04/2013  16:05:00     -124.297      263.141      -33.212       97.531      107.280       57.846     9512.375    11508.947     3346.102        5.508        1.218      291.020       65.509        0.051      350.461       31.639      857.096
07/04/2013  16:06:00      -90.615      207.384      -20.555       74.260      107.951       52.722     5514.564    11653.361     2779.625        3.579        0.997      226.316       50.523        0.050      350.660       31.987      857.092
07/04/2013  16:07:00      -72.834      230.630      -19.309       88.825      102.801       57.412     7889.824    10568.078     3296.178        4.031        1.088      241.857       55.041        0.052      350.546       31.786      857.084
07/04/2013  16:08:00       -6.591      288.521      -17.494       76.501      114.414       57.567     5852.419    13090.587     3313.950        5.292        1.113      288.596       59.778        0.043      350.399       31.530      857.048
07/04/2013  16:09:00      -25.128      422.464      -52.936       61.610      110.328       50.247     3795.742    12172.202     2524.804       10.020        0.925      423.210       52.370        0.015      350.221       31.220      857.025
07/04/2013  16:10:00      -63.698      162.913       -9.650      102.643       69.516       49.993    10535.561     4832.460     2499.265        2.428        0.893      174.923       44.209        0.064      350.434       31.592      856.998
07/04/2013  16:11:00       50.195      245.760      -32.245       51.088       93.021       51.550     2609.956     8652.981     2657.365        3.894        0.696      250.834       48.374        0.037      350.350       31.445      856.998
07/04/2013  16:12:00       50.890       50.830       21.227       73.837       49.383       50.728     5451.887     2438.719     2573.351        0.804        0.523       71.927       33.907        0.222      350.550       31.796      856.996
07/04/2013  16:13:00      -28.428       17.805       12.275       58.111       21.214       23.851     3376.903      450.024      568.872        0.283        0.220       33.544       27.223        0.659      350.726       32.105      856.985
07/04/2013  16:14:00      -71.011       -6.067      -16.109      107.575      153.914       57.673    11572.433    23689.366     3326.219        2.196        1.929       71.270       43.388        0.371      350.685       32.031      856.944
07/04/2013  16:15:00       32.720       48.694       23.527       56.558       59.756       37.225     3198.845     3570.774     1385.715        0.607        0.408       58.666       19.503        0.111      350.668       32.003      856.933
07/04/2013  16:16:00       24.319      123.012       17.574       81.861      100.175       55.400     6701.158    10035.082     3069.135        1.791        0.990      125.393       57.728        0.212      350.519       31.743      856.925
07/04/2013  16:17:00       -0.156      105.470       19.102       67.146       80.875       40.394     4508.588     6540.730     1631.698        1.208        0.634      105.470       45.674        0.188      350.451       31.624      856.889
07/04/2013  16:18:00      -73.579      132.165      -25.942       81.605      103.879       43.878     6659.452    10790.781     1925.308        2.146        0.969      151.266       46.619        0.095      350.445       31.614      856.863
07/04/2013  16:19:00      -32.851       53.470       10.390       62.274       54.020       48.546     3878.113     2918.133     2356.693        0.660        0.458       62.756       43.340        0.477      350.751       32.147      856.832
07/04/2013  16:20:00      -16.162      159.656      -22.637       39.644       46.988       22.556     1571.686     2207.883      508.763        1.528        0.214      160.472       18.128        0.013      350.406       31.546      856.814
07/04/2013  16:21:00      -10.741       61.662      -28.084       22.359       86.733       14.898      499.928     7522.647      221.950        0.647        0.412       62.591       26.215        0.175      350.387       31.514      856.822
07/04/2013  16:22:00       19.996       85.214      -12.886       76.721       88.591       40.906     5886.148     7848.314     1673.289        1.161        0.770       87.529       35.867        0.168      350.394       31.526      856.841
07/04/2013  16:23:00       50.246       79.226       36.341       91.579       75.644       50.233     8386.769     5722.010     2523.380        1.337        0.832       93.816       37.639        0.161      350.492       31.695      856.813
07/04/2013  16:24:00      132.439      156.933       -9.590       89.036       70.349       63.083     7927.395     4948.956     3979.478        2.955        0.843      205.348       45.656        0.049      350.409       31.551      856.824
07/04/2013  16:25:00      152.839      145.785        3.319      127.858       71.347       67.451    16347.695     5090.426     4549.607        3.530        1.299      211.218       39.497        0.035      350.327       31.406      856.802
07/04/2013  16:26:00       79.909      148.175       21.574       87.682       88.772       66.164     7688.062     7880.533     4377.640        2.437        0.997      168.348       61.312        0.133      350.410       31.550      856.811
07/04/2013  16:27:00       30.423      135.496      -13.282      118.108       50.019       49.686    13949.382     2501.901     2468.703        1.919        0.946      138.869       57.880        0.174      350.322       31.399      856.794
07/04/2013  16:28:00     -103.033      124.607       -8.525       97.832       96.203       61.324     9571.088     9254.992     3760.680        2.440        1.129      161.687       54.897        0.115      350.588       31.861      856.800
07/04/2013  16:29:00       53.966      191.710       -7.798       80.861       91.767       63.729     6538.560     8421.148     4061.385        2.937        0.951      199.161       57.820        0.084      350.574       31.836      856.794
07/04/2013  16:30:00       -4.517      138.871        5.389       64.270      113.005       50.598     4130.633    12770.215     2560.149        1.939        0.973      138.945       61.986        0.199      350.662       31.992      856.787
07/04/2013  16:31:00       62.218       56.560       11.747       49.749       29.552       27.180     2474.926      873.294      738.736        0.565        0.204       84.084       18.192        0.047      350.597       31.880      856.747
07/04/2013  16:32:00      -57.537      259.000      -31.846       76.319       96.058       45.475     5824.574     9227.057     2067.999        4.426        0.856      265.314       41.042        0.024      350.567       31.823      856.768
07/04/2013  16:33:00       29.105      190.374      -21.781       61.223       93.627       50.554     3748.218     8766.013     2555.715        2.631        0.753      192.586       46.965        0.059      350.582       31.851      856.736
07/04/2013  16:34:00      113.236      121.848        2.285      110.546       79.107       52.437    12220.327     6257.975     2749.642        2.445        1.061      166.341       52.197        0.098      350.646       31.963      856.701
07/04/2013  16:35:00      -86.443      193.954      -34.897      104.530      115.460       54.086    10926.427    13331.077     2925.291        3.674        1.359      212.346       57.811        0.074      350.799       32.229      856.717
07/04/2013  16:36:00       60.703       63.180       35.395       77.391       65.486       42.438     5989.349     4288.413     1801.021        1.050        0.604       87.616       25.368        0.084      351.012       32.600      856.678
07/04/2013  16:37:00       98.278      148.615       14.577      158.316      118.671       87.377    25063.874    14082.749     7634.658        3.936        2.339      178.171       77.075        0.187      350.855       32.326      856.629
07/04/2013  16:38:00      -86.270      127.185       -2.627      111.733      123.272       69.204    12484.272    15195.936     4789.136        2.804        1.623      153.683       80.581        0.275      350.989       32.560      856.649
07/04/2013  16:39:00      -21.771      256.558      -25.259      101.152      109.679       63.618    10231.702    12029.443     4047.241        4.662        1.315      257.480       59.747        0.054      350.933       32.463      856.649
07/04/2013  16:40:00      -64.503      150.369       -7.381       83.140      125.485       62.584     6912.204    15746.367     3916.730        2.670        1.329      163.620       57.812        0.125      351.235       32.986      856.624
07/04/2013  16:41:00      -60.334      173.220        0.748       91.013      130.186       69.309     8283.398    16948.498     4803.672        3.183        1.502      183.427       55.758        0.092      351.166       32.869      856.601
07/04/2013  16:42:00      -62.477      130.074        1.575       98.540      122.568       65.365     9710.187    15023.030     4272.553        2.491        1.450      144.301       70.009        0.235      351.308       33.116      856.588
07/04/2013  16:43:00      -60.595      414.258      -33.139      104.014      131.925       67.297    10818.973    17404.090     4528.889       10.456        1.638      418.666       62.495        0.022      351.013       32.600      856.586
07/04/2013  16:44:00      -89.399      247.472      -32.005      117.109      110.130       56.387    13714.622    12128.679     3179.440        4.964        1.451      263.125       50.676        0.037      351.143       32.828      856.566
07/04/2013  16:45:00     -123.466       69.625       -8.379       92.907       72.476       44.703     8631.693     5252.727     1998.387        1.802        0.794      141.744       41.365        0.085      351.520       33.486      856.570
07/04/2013  16:46:00      -60.154       82.077       -4.310       79.730       58.639       49.299     6356.815     3438.574     2430.403        1.130        0.611      101.760       53.777        0.279      351.578       33.588      856.564
07/04/2013  16:47:00     -106.115       37.395      -17.797      101.257      137.272       48.272    10253.026    18843.663     2330.192        2.219        1.571      112.511       49.438        0.193      351.446       33.356      856.550
07/04/2013  16:48:00     -181.391      -11.402        8.651      122.041      108.530       65.363    14894.096    11778.665     4272.329        3.202        1.547      181.749       53.737        0.087      351.472       33.401      856.550
07/04/2013  16:49:00     -278.037       74.141      -40.624      102.389      105.681       56.924    10483.515    11168.475     3240.298        5.467        1.245      287.753       55.086        0.037      351.450       33.362      856.573
07/04/2013  16:50:00     -295.564       15.211      -23.513      141.783      181.086       70.714    20102.554    32792.163     5000.403        7.301        2.895      295.955       67.329        0.052      351.664       33.735      856.563
07/04/2013  16:51:00     -326.063       23.658      -34.392       72.018       80.862       42.475     5186.621     6538.706     1804.166        6.079        0.676      326.920       31.689        0.009      351.697       33.794      856.585
07/04/2013  16:52:00     -303.456       -6.697      -15.678      150.320      118.265       56.399    22596.040    13986.630     3180.798        6.606        1.988      303.529       43.993        0.021      351.965       34.259      856.562
07/04/2013  16:53:00     -595.186      -55.887      -59.765      260.519      122.104       85.493    67870.225    14909.412     7309.116       22.550        4.504      597.804      113.548        0.036      351.907       34.159      856.543
07/04/2013  16:54:00     -492.066      130.306      -28.937      162.506      143.296       83.160    26408.205    20533.716     6915.574       15.689        2.693      509.027       74.960        0.022      351.845       34.050      856.541
07/04/2013  16:55:00     -557.838       38.711      -46.376      179.529      140.177       72.207    32230.592    19649.730     5213.828       18.595        2.855      559.180       85.102        0.023      351.903       34.151      856.523
07/04/2013  16:56:00     -372.965     -147.483        1.621      224.715      192.779       96.873    50496.918    37163.822     9384.353       12.893        4.852      401.066      124.344        0.096      351.955       34.242      856.527
07/04/2013  16:57:00     -368.548      -74.999       -2.856      161.133      113.179       70.782    25963.762    12809.470     5010.157        9.261        2.189      376.101       80.472        0.046      352.082       34.464      856.547
07/04/2013  16:58:00     -305.676      -57.322       -6.863      142.418       86.184       51.187    20282.758     7427.742     2620.092        6.354        1.517      311.004       57.026        0.034      351.837       34.037      856.500
07/04/2013  16:59:00     -317.819      -73.948       -1.817      148.923      110.844       68.464    22178.015    12286.395     4687.381        7.281        1.958      326.309       70.338        0.046      352.093       34.484      856.502
07/04/2013  17:00:00     -221.443       -2.330       -4.817      109.793      101.418       64.778    12054.509    10285.586     4196.168        3.780        1.327      221.455       61.222        0.076      352.191       34.657      856.511
07/04/2013  17:01:00     -424.737     -185.176      -11.043      232.335      150.160       93.868    53979.321    22548.093     8811.293       15.006        4.267      463.349      108.162        0.054      352.083       34.466      856.523
07/04/2013  17:02:00     -312.387     -145.413        6.022      186.532      175.316       90.360    34794.347    30735.848     8164.879        9.622        3.685      344.573       94.430        0.075      352.031       34.375      856.556
07/04/2013  17:03:00     -348.784      -95.773       -4.178      188.943      146.101       87.925    35699.494    21345.537     7730.884        9.779        3.239      361.694       89.694        0.061      351.978       34.282      856.590
07/04/2013  17:04:00     -302.805     -166.313       -3.981      161.871      130.099       71.167    26202.249    16925.840     5064.787        8.377        2.410      345.472       72.480        0.044      351.900       34.146      856.588
07/04/2013  17:05:00     -225.294     -160.478        8.992      178.180      139.422       76.059    31748.053    19438.494     5784.971        6.677        2.849      276.606       69.814        0.064      351.906       34.155      856.577
07/04/2013  17:06:00     -223.036     -186.356        0.104      156.138      141.921       71.996    24379.148    20141.711     5183.433        6.708        2.485      290.643       79.363        0.075      351.820       34.007      856.560
07/04/2013  17:07:00     -256.933      -63.451       -4.843      171.894      122.688       62.029    29547.468    15052.443     3847.644        5.925        2.422      264.652       79.656        0.091      351.982       34.291      856.563
07/04/2013  17:08:00     -402.459      -78.687      -22.949      131.239      103.641       61.614    17223.657    10741.492     3796.243       10.022        1.588      410.079       55.060        0.018      351.855       34.068      856.564
07/04/2013  17:09:00     -439.683        4.848      -39.668      133.854      106.183       63.701    17916.849    11274.735     4057.808       11.408        1.662      439.710       70.463        0.026      351.964       34.257      856.549
07/04/2013  17:10:00     -216.008      -17.668       -0.924      148.777      110.089       66.267    22134.603    12119.486     4391.319        4.280        1.932      216.730       62.375        0.083      352.221       34.707      856.547
07/04/2013  17:11:00     -542.054      -33.421      -53.404      177.420      128.627       70.143    31477.847    16544.860     4920.050       17.536        2.647      543.083       71.878        0.018      351.987       34.297      856.533
07/04/2013  17:12:00     -433.398      -69.714      -31.816      122.850      154.229       65.406    15092.084    23786.521     4277.932       11.842        2.158      438.969       53.373        0.015      351.989       34.301      856.538
07/04/2013  17:13:00     -572.184       91.291      -50.454      197.541      162.273       79.321    39022.520    26332.473     6291.825       20.495        3.582      579.421       71.799        0.015      351.876       34.106      856.523
07/04/2013  17:14:00     -381.893      -73.476      -13.019      197.000      156.348       88.672    38809.135    24444.826     7862.737       11.125        3.556      388.897       96.675        0.062      351.972       34.271      856.524
07/04/2013  17:15:00     -279.258      -90.096      -13.782      113.650      100.427       66.064    12916.425    10085.565     4364.452        5.682        1.368      293.432       64.256        0.048      352.152       34.587      856.539
07/04/2013  17:16:00     -446.826     -225.538      -14.527      228.320      145.711       98.443    52129.868    21231.675     9691.089       16.688        4.153      500.521      107.781        0.046      351.889       34.128      856.507
07/04/2013  17:17:00     -126.112      -16.760       39.912      187.125      112.159       76.895    35015.699    12579.699     5912.798        3.563        2.675      127.221       85.364        0.450      352.097       34.492      856.535
07/04/2013  17:18:00     -203.507     -145.607       20.216      183.838      169.615       95.307    33796.401    28769.084     9083.474        6.732        3.582      250.233      107.204        0.184      352.006       34.332      856.533
07/04/2013  17:19:00     -175.100     -135.807       21.710      205.395      125.200       83.803    42187.037    15675.015     7022.950        5.722        3.244      221.593      100.628        0.206      352.070       34.443      856.540
07/04/2013  17:20:00     -391.522       99.342      -28.803      123.135      112.442       66.617    15162.253    12643.098     4437.823        9.811        1.612      403.929       47.005        0.014      351.948       34.229      856.543
07/04/2013  17:21:00     -340.208      -73.961      -18.584      157.589      114.971       69.140    24834.357    13218.242     4780.355        8.219        2.142      348.154       68.097        0.038      352.030       34.373      856.544
07/04/2013  17:22:00     -312.717     -122.276       -4.217      143.917      147.551       64.517    20712.149    21771.313     4162.434        7.969        2.332      335.773       69.679        0.043      352.049       34.405      856.543
07/04/2013  17:23:00     -360.869     -105.299       -8.253      144.317      120.773       56.210    20827.402    14586.125     3159.553        8.997        1.929      375.918       51.077        0.018      351.966       34.263      856.523
07/04/2013  17:24:00     -308.726     -178.438       -3.370      183.406      181.969       88.330    33637.806    33112.650     7802.122       10.084        3.728      356.583       84.881        0.057      351.889       34.129      856.557
07/04/2013  17:25:00     -332.378     -192.885      -14.335      172.010      181.671       75.030    29587.411    33004.314     5629.454       10.804        3.411      384.292       91.468        0.057      351.792       33.958      856.537
07/04/2013  17:26:00     -371.003     -119.143       -5.712      185.657      154.771       86.413    34468.542    23953.946     7467.254       10.887        3.294      389.665       83.439        0.046      351.811       33.991      856.513
07/04/2013  17:27:00     -415.956     -302.612       -3.065      218.848      218.334      116.372    47894.403    47669.559    13542.336       18.683        5.455      514.387      116.424        0.051      351.755       33.894      856.537
07/04/2013  17:28:00     -345.030     -143.447       -7.561      196.920      184.164       93.534    38777.357    33916.342     8748.586       11.054        4.072      373.661      100.916        0.073      351.765       33.910      856.561
07/04/2013  17:29:00     -335.491     -222.584      -13.675      174.532      125.846       77.478    30461.364    15837.209     6002.895       10.728        2.615      402.613       80.199        0.040      351.744       33.875      856.551
07/04/2013  17:30:00     -296.279     -215.271        4.684      211.526      178.149       95.924    44743.356    31737.130     9201.347       10.990        4.284      366.228      104.765        0.082      351.765       33.912      856.532
07/04/2013  17:31:00     -373.461     -216.356      -10.360      212.511      157.672       91.243    45160.879    24860.484     8325.277       13.235        3.917      431.605      112.474        0.068      351.600       33.625      856.518
07/04/2013  17:32:00     -235.429      -72.038      -19.670      117.652      110.137       50.987    13841.996    12130.098     2599.719        4.478        1.429      246.203       44.177        0.032      351.802       33.977      856.531
07/04/2013  17:33:00     -268.619      -99.773       -3.390      172.588      118.548       69.164    29786.568    14053.514     4783.647        6.536        2.431      286.550       81.206        0.080      351.942       34.220      856.541
07/04/2013  17:34:00     -278.725      -42.915      -17.173      157.034      123.796       67.688    24659.738    15325.404     4581.616        6.219        2.228      282.009       63.121        0.050      351.920       34.181      856.528
07/04/2013  17:35:00     -308.247     -170.077       -6.010      183.904      142.739       68.887    33820.647    20374.423     4745.407        9.145        2.947      352.055       78.485        0.050      351.676       33.757      856.514
07/04/2013  17:36:00     -212.390      -72.631       -1.556      117.873      118.583       58.638    13894.043    14062.030     3438.409        4.088        1.570      224.465       59.157        0.069      351.817       34.004      856.523
07/04/2013  17:37:00     -271.427      -86.392      -20.779      100.326      108.530       50.856    10065.347    11778.776     2586.329        5.299        1.222      284.844       26.938        0.009      351.896       34.141      856.510
07/04/2013  17:38:00     -108.691      -29.415       14.583      113.002       88.183       52.807    12769.350     7776.247     2788.535        1.811        1.167      112.601       39.446        0.123      352.133       34.555      856.506
07/04/2013  17:39:00     -135.128      -54.314        5.565      127.441      107.458       40.681    16241.296    11547.228     1654.934        2.534        1.472      145.635       23.422        0.026      352.016       34.351      856.509
07/04/2013  17:40:00     -191.682     -129.736        6.087      149.779      116.030       70.649    22433.617    13463.041     4991.238        4.724        2.044      231.459       76.329        0.109      351.922       34.186      856.497
07/04/2013  17:41:00     -100.167      -48.324        6.766      100.934       64.198       50.326    10187.712     4121.362     2532.671        1.462        0.842      111.215       52.847        0.226      352.092       34.485      856.497
07/04/2013  17:42:00     -245.112      -40.086        6.789      133.695      142.866       63.379    17874.474    20410.616     4016.859        5.201        2.115      248.368       53.029        0.046      351.935       34.207      856.503
07/04/2013  17:43:00     -280.409      -71.040      -12.789      161.870      118.831       72.737    26202.003    14120.818     5290.617        6.472        2.281      289.268       85.211        0.087      351.826       34.018      856.479
07/04/2013  17:44:00     -390.676     -207.441      -10.205      223.053      164.037      104.540    49752.838    26908.282    10928.566       14.166        4.379      442.334      117.463        0.071      351.628       33.673      856.474
07/04/2013  17:45:00     -237.667     -148.697        3.825      158.011      122.199       90.508    24967.483    14932.481     8191.707        6.334        2.405      280.350       77.834        0.077      351.686       33.773      856.502
07/04/2013  17:46:00     -228.683     -137.237       -6.969      170.314      107.576       77.453    29006.872    11572.523     5999.004        5.887        2.329      266.702       86.954        0.106      351.767       33.916      856.501
07/04/2013  17:47:00     -375.151     -241.097      -12.747      163.090      199.429       77.278    26598.205    39771.762     5971.870       13.567        3.617      445.944       81.180        0.033      351.711       33.818      856.479
07/04/2013  17:48:00     -269.337      -80.614        8.344      188.332      146.559       80.076    35469.097    21479.419     6412.148        7.122        3.168      281.143       85.771        0.093      351.761       33.905      856.478
07/04/2013  17:49:00     -311.177      -32.061      -12.344      185.098      124.431       74.832    34261.393    15483.141     5599.850        7.667        2.767      312.824       69.126        0.049      351.790       33.956      856.489
07/04/2013  17:50:00     -270.941      -71.127       11.723      152.545      146.150       76.734    23270.121    21359.747     5888.162        6.455        2.526      280.121       75.043        0.072      351.814       33.997      856.478
07/04/2013  17:51:00     -257.028      -78.283       -9.086      132.836      101.736       60.041    17645.509    10350.230     3604.951        5.193        1.580      268.685       54.461        0.041      351.816       34.001      856.477
07/04/2013  17:52:00     -486.498       10.443      -35.711      254.951      260.624      104.317    65000.126    67925.043    10881.958       19.091        7.190      486.610      115.723        0.057      351.696       33.792      856.456
07/04/2013  17:53:00     -205.932      -11.169        5.426      178.359      151.404       66.060    31812.005    22923.058     4363.895        5.082        2.955      206.234       82.752        0.161      351.818       34.005      856.476
07/04/2013  17:54:00     -237.444      -45.863        0.513      208.065      173.236       81.252    43290.976    30010.812     6601.807        6.918        3.995      241.833      104.934        0.188      351.750       33.886      856.493
07/04/2013  17:55:00     -520.419     -100.050      -30.024      199.071      118.158       85.062    39629.306    13961.363     7235.562       17.127        3.041      529.949       83.746        0.025      351.444       33.353      856.497
07/04/2013  17:56:00     -452.295     -150.710      -27.675      199.645      200.314       98.832    39858.075    40125.631     9767.770       15.888        4.488      476.743       95.867        0.040      351.496       33.441      856.461
07/04/2013  17:57:00     -550.688      -58.815      -37.515      197.473      171.753       91.600    38995.536    29499.045     8390.638       19.249        3.844      553.820      107.410        0.038      351.516       33.478      856.463
07/04/2013  17:58:00     -267.362     -101.525       -2.727      155.345      133.005       62.501    24132.152    17690.447     3906.390        6.375        2.286      285.989       59.169        0.043      351.674       33.753      856.462
07/04/2013  17:59:00     -498.332     -138.414      -34.645      174.939      156.007       83.808    30603.726    24338.067     7023.717       16.532        3.098      517.198       87.566        0.029      351.547       33.531      856.490
07/04/2013  18:00:00     -450.271     -126.628      -23.865      208.961      147.735       86.169    43664.843    21825.677     7425.150       14.612        3.646      467.738      100.876        0.047      351.529       33.500      856.508
07/04/2013  18:01:00     -324.870      -82.287       -7.468      165.689      126.301       67.903    27452.778    15951.976     4610.866        8.018        2.401      335.130       68.101        0.041      351.566       33.565      856.508
07/04/2013  18:02:00     -395.751      -31.788      -12.579      151.324      141.326       77.704    22898.985    19973.122     6037.924       10.334        2.446      397.025       77.681        0.038      351.600       33.624      856.536
07/04/2013  18:03:00     -344.315      -32.119      -25.273      157.135      157.988       82.409    24691.445    24960.211     6791.213        8.832        2.822      345.810       76.888        0.049      351.561       33.556      856.526
07/04/2013  18:04:00     -351.670     -184.985       11.643      205.323      137.816       85.578    42157.513    18993.243     7323.569       11.324        3.424      397.356      103.946        0.068      351.450       33.364      856.521
07/04/2013  18:05:00     -256.912     -179.444       17.530      162.133      149.709       73.177    26286.993    22412.927     5354.857        7.627        2.703      313.375       79.950        0.065      351.489       33.432      856.503
07/04/2013  18:06:00     -377.194     -128.743      -22.525      169.045      152.835       71.414    28576.265    23358.606     5099.940       10.818        2.852      398.560       77.127        0.037      351.476       33.409      856.513
07/04/2013  18:07:00     -349.270     -166.888      -13.820      189.187      166.016       87.276    35791.774    27561.197     7617.039       11.049        3.549      387.093       90.152        0.054      351.432       33.331      856.502
07/04/2013  18:08:00     -217.245     -218.529       12.916      198.395      164.622       95.745    39360.559    27100.260     9167.053        8.536        3.781      308.141      102.610        0.111      351.432       33.331      856.472
07/04/2013  18:09:00     -455.160     -124.858      -15.683      196.641      170.176       93.767    38667.717    28959.738     8792.250       14.970        3.821      471.975       94.357        0.040      351.450       33.363      856.497
07/04/2013  18:10:00     -208.043     -145.638       -1.065      163.752      149.425       79.572    26814.557    22327.788     6331.651        5.997        2.774      253.954       78.112        0.095      351.526       33.496      856.515
07/04/2013  18:11:00     -223.687     -101.407        5.169      170.168      134.641       74.908    28957.207    18128.070     5611.206        5.651        2.635      245.600       83.881        0.117      351.568       33.568      856.516
07/04/2013  18:12:00     -158.763      -32.522       28.134      192.798       87.499       65.601    37170.918     7656.116     4303.519        3.808        2.457      162.060      103.216        0.406      351.565       33.566      856.495
07/04/2013  18:13:00     -207.449     -144.310        3.837      179.796      140.779       76.206    32326.664    19818.804     5807.288        6.090        2.898      252.706       84.952        0.113      351.521       33.487      856.490
07/04/2013  18:14:00     -238.566     -120.078        5.330      120.252      130.604       62.473    14460.585    17057.301     3902.889        5.338        1.771      267.082       59.869        0.050      351.540       33.519      856.477
07/04/2013  18:15:00     -286.174      -82.018      -12.052      168.817      109.171       61.408    28499.223    11918.301     3770.901        6.647        2.209      297.696       66.922        0.051      351.595       33.616      856.480
07/04/2013  18:16:00     -373.090     -145.957      -14.202      197.459      141.492       76.455    38990.032    20020.019     5845.408       11.277        3.243      400.625       93.172        0.054      351.409       33.292      856.472
07/04/2013  18:17:00     -298.146     -173.465        1.394      146.491      118.864       72.958    21459.580    14128.564     5322.876        7.994        2.046      344.936       77.876        0.051      351.392       33.262      856.461
07/04/2013  18:18:00     -332.156      -16.001      -14.253      115.192      149.524       54.006    13269.191    22357.318     2916.666        7.466        1.927      332.541       46.617        0.020      351.507       33.461      856.472
07/04/2013  18:19:00     -403.639      -76.866      -25.757      186.631      155.230       80.848    34830.992    24096.256     6536.383       11.747        3.273      410.892       88.153        0.046      351.546       33.529      856.474
07/04/2013  18:20:00     -557.913     -128.561      -36.040      199.798      170.823       86.347    39919.141    29180.458     7455.864       20.281        3.828      572.534       93.228        0.027      351.322       33.140      856.499
07/04/2013  18:21:00     -276.434      -83.548       10.369      187.793      140.221       83.811    35266.385    19661.834     7024.256        7.272        3.098      288.784      102.308        0.126      351.360       33.206      856.496
07/04/2013  18:22:00     -399.563     -172.619      -12.041      193.867      216.404       96.583    37584.359    46830.718     9328.339       14.165        4.687      435.256      104.432        0.058      351.339       33.169      856.489
07/04/2013  18:23:00     -361.649     -286.544      -23.286      171.787      152.021       87.080    29510.854    23110.489     7582.894       13.681        3.010      461.408       84.410        0.033      351.318       33.132      856.491
07/04/2013  18:24:00     -307.433     -173.407        0.290      210.442      173.983       84.566    44285.630    30269.946     7151.426       10.313        4.085      352.966       90.550        0.066      351.340       33.169      856.503
07/04/2013  18:25:00     -215.304     -122.483       -5.374      132.745      104.107       65.103    17621.307    10838.285     4238.437        4.704        1.635      247.705       56.956        0.053      351.432       33.332      856.541
07/04/2013  18:26:00     -169.248      -56.579       20.748      194.414      153.882       81.339    37796.995    23679.812     6616.011        5.017        3.405      178.455       90.005        0.254      351.438       33.342      856.554
07/04/2013  18:27:00     -176.974     -139.043      -17.931      134.406      129.946       71.011    18064.928    16886.052     5042.503        4.548        2.000      225.062       74.064        0.108      351.422       33.314      856.561
07/04/2013  18:28:00     -163.819       13.923       11.787      135.265      104.816       62.152    18296.529    10986.444     3862.919        3.015        1.657      164.410       63.838        0.151      351.416       33.304      856.565
07/04/2013  18:29:00     -458.083       24.632      -30.037      175.428      124.937       74.849    30774.857    15609.366     5602.339       13.166        2.599      458.745       79.178        0.030      351.333       33.157      856.549
07/04/2013  18:30:00     -263.913        1.647        4.345      197.267      160.138       99.306    38914.384    25644.111     9861.675        7.203        3.721      263.919      106.985        0.164      351.370       33.224      856.535
07/04/2013  18:31:00     -289.981      -68.097      -14.906      154.037      105.131       60.821    23727.344    11052.599     3699.177        6.371        1.924      297.870       66.974        0.051      351.439       33.344      856.535
07/04/2013  18:32:00     -291.261      -62.941       -5.381      126.813      105.520       62.919    16081.638    11134.370     3958.838        5.999        1.559      297.984       64.571        0.047      351.456       33.373      856.539
07/04/2013  18:33:00     -285.112      -70.849        0.857      166.951      150.677       77.175    27872.752    22703.609     5955.974        7.141        2.827      293.783       74.953        0.065      351.403       33.279      856.540
07/04/2013  18:34:00     -339.025      -13.504      -23.388      139.905      135.367       66.359    19573.503    18324.164     4403.465        7.898        2.115      339.294       58.191        0.029      351.267       33.043      856.565
07/04/2013  18:35:00     -361.922      -70.644      -23.063      139.343      115.878       66.906    19416.597    13427.722     4476.402        8.691        1.866      368.752       70.097        0.036      351.347       33.181      856.561
07/04/2013  18:36:00     -378.244      -97.594      -21.743      131.636      131.405       61.885    17328.057    17267.316     3829.742        9.574        1.921      390.632       62.073        0.025      351.317       33.129      856.558
07/04/2013  18:37:00     -376.277     -103.535      -21.730      168.805      177.339       73.110    28495.145    31448.994     5345.063       10.902        3.264      390.261       67.486        0.030      351.331       33.154      856.580
07/04/2013  18:38:00     -395.723     -121.541      -15.293      172.106      144.343       79.914    29620.363    20834.972     6386.196       11.421        2.842      413.967       85.921        0.043      351.315       33.127      856.588
07/04/2013  18:39:00     -432.129      -73.823      -27.851      137.401       98.743       61.806    18879.138     9750.190     3820.037       11.270        1.622      438.389       55.789        0.016      351.255       33.022      856.609
07/04/2013  18:40:00     -285.743      -92.688      -10.406      127.796      106.535       57.431    16331.802    11349.620     3298.269        6.066        1.549      300.400       57.175        0.036      351.315       33.126      856.610
07/04/2013  18:41:00     -400.170      -41.147      -32.618      126.694      134.110       62.727    16051.276    17985.538     3934.652       10.042        1.899      402.280       57.838        0.021      351.284       33.071      856.626
07/04/2013  18:42:00     -523.163      -61.843      -54.484      164.304      144.032       83.776    26995.854    20745.342     7018.484       16.762        2.738      526.805       92.366        0.031      351.203       32.929      856.605
07/04/2013  18:43:00     -365.483     -110.989      -17.480      116.804      135.391       73.581    13643.220    18330.858     5414.133        9.179        1.869      381.964       67.152        0.031      351.268       33.043      856.606
07/04/2013  18:44:00     -278.466      -57.990       13.056      150.029      111.551       66.711    22508.677    12443.593     4450.315        6.023        1.970      284.440       71.447        0.063      351.323       33.142      856.623
07/04/2013  18:45:00     -447.673      -63.290      -31.453      150.196      172.021       79.542    22558.947    29591.221     6326.908       13.193        2.924      452.124       67.622        0.022      351.240       32.995      856.628
07/04/2013  18:46:00     -292.866      -20.262       -6.145      153.565      104.629       71.793    23582.278    10947.307     5154.289        6.294        1.984      293.566       67.943        0.054      351.234       32.985      856.635
07/04/2013  18:47:00     -272.148      -22.361       -7.985       85.077      119.503       47.165     7238.086    14281.018     2224.572        4.918        1.187      273.065       35.352        0.017      351.303       33.104      856.648
07/04/2013  18:48:00     -298.795     -100.690       -7.848      126.412      105.331       53.579    15980.083    11094.701     2870.744        6.471        1.497      315.304       46.025        0.021      351.302       33.104      856.664
07/04/2013  18:49:00     -333.804     -115.785      -16.435      201.338      120.761       82.610    40536.809    14583.162     6824.440        9.351        3.097      353.315      100.006        0.080      351.274       33.053      856.679
07/04/2013  18:50:00     -349.025      -26.566      -10.376      186.745      126.521       87.503    34873.510    16007.512     7656.794        9.057        2.927      350.034      108.771        0.097      351.164       32.864      856.699
07/04/2013  18:51:00     -161.126     -114.928       22.186      149.300      131.937       77.789    22290.635    17407.245     6051.069        4.270        2.287      197.914       73.594        0.138      351.241       32.997      856.719
07/04/2013  18:52:00     -394.835     -219.953      -18.984      233.099      161.696       78.359    54335.327    26145.756     6140.170       14.561        4.331      451.967       86.257        0.036      351.062       32.685      856.725
07/04/2013  18:53:00     -491.485     -173.106      -27.717      208.472      173.815       89.018    43460.660    30211.707     7924.267       17.693        4.080      521.078       83.880        0.026      350.983       32.548      856.721
07/04/2013  18:54:00     -180.050      -56.282       10.901      133.951      110.393       65.317    17942.921    12186.630     4266.254        3.504        1.720      188.641       60.951        0.104      351.113       32.773      856.750
07/04/2013  18:55:00     -290.656     -190.302       -0.411      209.921      155.926       87.545    44066.994    24312.991     7664.167        9.835        3.802      347.413       98.013        0.080      351.083       32.721      856.770
07/04/2013  18:56:00     -256.846      -26.831       -8.993      126.917      127.257       67.359    16107.800    16194.217     4537.246        5.180        1.842      258.243       61.126        0.056      351.124       32.791      856.782
07/04/2013  18:57:00     -293.466      -92.956      -10.119      166.738      159.257       74.956    27801.491    25362.873     5618.384        7.681        2.939      307.836       82.671        0.072      351.085       32.724      856.832
07/04/2013  18:58:00     -216.125      -96.705       17.534      203.221      113.298       83.120    41298.887    12836.532     6908.903        5.869        3.052      236.774       89.893        0.144      351.088       32.730      856.851
07/04/2013  18:59:00     -251.271      -54.180       -2.781      163.244      111.329       62.264    26648.568    12394.116     3876.834        5.449        2.146      257.045       76.872        0.089      351.082       32.720      856.886
07/04/2013  19:00:00     -348.289      -24.107      -20.547      127.609      124.757       71.213    16283.989    15564.325     5071.319        7.961        1.846      349.122       69.324        0.039      351.047       32.660      856.912
07/04/2013  19:01:00     -382.257      -75.067      -16.557      138.509      129.793       61.528    19184.670    16846.108     3785.751        9.591        1.991      389.558       47.191        0.015      351.038       32.643      856.920
07/04/2013  19:02:00     -428.696      -74.822      -23.469      146.194      133.323       70.536    21372.652    17775.070     4975.276       11.702        2.206      435.177       73.447        0.028      351.015       32.604      856.942
07/04/2013  19:03:00     -369.392     -150.090      -17.445      168.072      138.516       82.858    28248.215    19186.808     6865.478       10.678        2.715      398.720       87.087        0.048      350.986       32.553      856.938
07/04/2013  19:04:00     -313.791      -59.879      -11.591      136.607      140.748       60.864    18661.594    19810.067     3704.478        7.217        2.109      319.453       57.211        0.032      351.021       32.613      856.957
07/04/2013  19:05:00     -389.207     -125.280       -6.361      138.193      118.700       76.788    19097.252    14089.773     5896.377       10.314        1.954      408.873       73.984        0.033      351.010       32.594      856.981
07/04/2013  19:06:00     -530.869     -152.541      -24.853      162.122      152.294       84.229    26283.568    23193.378     7094.486       18.113        2.829      552.350       61.790        0.013      350.967       32.522      856.984
07/04/2013  19:07:00     -496.042     -132.264       -4.305      160.087      105.533       68.123    25627.956    11137.232     4640.754       15.248        2.070      513.373       71.999        0.020      350.927       32.452      856.998
07/04/2013  19:08:00     -382.424      -53.249      -16.618      126.624      132.664       63.463    16033.533    17599.829     4027.583        9.350        1.883      386.114       57.167        0.022      350.984       32.550      857.028
07/04/2013  19:09:00     -212.094      -34.156       -1.447      126.917      107.195       65.823    16107.798    11490.705     4332.711        3.904        1.597      214.827       69.206        0.104      351.021       32.613      857.050
07/04/2013  19:10:00     -154.160     -104.668        4.113      122.649       79.277       47.534    15042.670     6284.842     2259.434        2.916        1.179      186.335       59.766        0.103      350.961       32.510      857.062
07/04/2013  19:11:00     -197.179      -79.912       -4.488       86.834       56.901       34.995     7540.202     3237.671     1224.635        2.864        0.600      212.757       39.872        0.035      351.041       32.650      857.084
07/04/2013  19:12:00     -314.023     -146.544       -2.318      130.572      115.481       67.783    17049.142    13335.768     4594.509        7.753        1.749      346.534       67.106        0.037      350.942       32.476      857.085
07/04/2013  19:13:00     -335.835     -134.176       -9.802      148.653      128.402       58.234    22097.833    16487.094     3391.143        8.642        2.099      361.647       67.670        0.035      350.894       32.395      857.089
07/04/2013  19:14:00     -274.237      -58.840      -11.216       79.106      106.854       52.795     6257.801    11417.867     2787.287        4.962        1.023      280.479       45.195        0.026      350.943       32.479      857.086
07/04/2013  19:15:00     -110.075      -44.093        1.291       96.492       57.057       40.558     9310.752     3255.486     1644.930        1.413        0.711      118.578       49.441        0.174      351.033       32.637      857.084
07/04/2013  19:16:00      -91.658      -43.890        8.435      131.745       73.254       48.513    17356.808     5366.200     2353.521        1.773        1.254      101.625       72.558        0.510      351.003       32.586      857.078
07/04/2013  19:17:00     -176.772      -84.744       -2.060      128.563      104.107       67.840    16528.373    10838.212     4602.268        3.520        1.598      196.035       62.315        0.101      350.973       32.531      857.082
07/04/2013  19:18:00     -155.821     -113.451       12.505      145.498      105.623       61.551    21169.707    11156.115     3788.582        3.670        1.806      192.747       73.889        0.147      350.888       32.383      857.091
07/04/2013  19:19:00     -135.662      -40.487        6.506      102.435       83.820       43.791    10492.949     7025.790     1917.671        1.976        0.972      141.575       45.193        0.102      350.950       32.493      857.106
07/04/2013  19:20:00     -365.333     -127.244       -0.865      113.534      108.984       55.030    12890.034    11877.510     3028.327        8.872        1.390      386.859       56.009        0.021      350.830       32.282      857.117
07/04/2013  19:21:00     -315.184        3.330      -35.401      168.760      109.543       63.056    28479.848    11999.576     3975.999        7.252        2.223      315.202       71.656        0.052      350.834       32.289      857.121
07/04/2013  19:22:00     -151.115      -83.893       11.893       84.167       93.710       55.018     7084.143     8781.644     3026.997        2.445        0.945      172.840       52.760        0.093      350.884       32.378      857.122
07/04/2013  19:23:00     -278.190      -19.360       -8.837      144.648       92.181       63.891    20922.955     8497.289     4082.102        5.567        1.675      278.863       74.430        0.071      350.807       32.242      857.139
07/04/2013  19:24:00     -161.422      -63.734        7.480      143.056       93.516       61.301    20465.095     8745.247     3757.819        3.157        1.648      173.549       75.748        0.191      350.856       32.329      857.143
07/04/2013  19:25:00     -134.548      -45.464       -0.160      147.113      108.637       58.710    21642.256    11802.051     3446.867        2.852        1.845      142.022       80.402        0.321      350.844       32.309      857.143
07/04/2013  19:26:00     -211.747      -97.591       -3.925      141.943      128.426       57.079    20147.689    16493.233     3258.046        4.713        1.995      233.154       60.637        0.068      350.817       32.259      857.152
07/04/2013  19:27:00     -298.757     -161.219      -18.024      141.816      112.393       67.236    20111.744    12632.251     4520.624        7.641        1.863      339.481       74.902        0.049      350.738       32.122      857.162
07/04/2013  19:28:00     -346.896      -66.169      -22.639      148.143      107.323       59.666    21946.360    11518.165     3560.052        8.112        1.851      353.151       69.266        0.038      350.751       32.144      857.177
07/04/2013  19:29:00     -453.615     -192.820      -27.773      150.924      138.456       71.574    22778.006    19170.028     5122.820       14.538        2.354      492.896       67.733        0.019      350.670       32.004      857.176
07/04/2013  19:30:00     -290.054      -94.729      -14.371      153.037      124.662       72.040    23420.347    15540.571     5189.730        6.872        2.208      305.131       69.699        0.052      350.707       32.068      857.171
07/04/2013  19:31:00     -415.614     -105.466      -21.403      152.566      143.675       60.283    23276.398    20642.586     3634.052       11.592        2.378      428.786       58.840        0.019      350.709       32.071      857.186
07/04/2013  19:32:00     -274.488      -32.098      -13.791      154.326       85.935       47.572    23816.507     7384.796     2263.059        5.501        1.673      276.358       58.572        0.045      350.721       32.093      857.204
07/04/2013  19:33:00     -197.693       -7.756      -11.435       89.810       83.062       47.748     8065.800     6899.360     2279.837        2.826        0.862      197.845       42.040        0.045      350.745       32.134      857.227
07/04/2013  19:34:00     -184.816        2.031       13.548      145.002      109.579       68.969    21025.528    12007.587     4756.680        3.606        1.889      184.827       84.669        0.210      350.708       32.069      857.237
07/04/2013  19:35:00     -260.139      -82.120        0.555      194.177      136.895       58.284    37704.567    18740.114     3397.010        6.712        2.992      272.793       76.971        0.080      350.732       32.113      857.251
07/04/2013  19:36:00     -291.877      -70.484       10.658      175.784      137.153       73.977    30900.187    18811.029     5472.534        7.272        2.759      300.267       87.917        0.086      350.659       31.984      857.240
07/04/2013  19:37:00     -308.684      -53.327      -13.715      130.055      130.734       59.465    16914.324    17091.428     3536.130        6.792        1.877      313.256       55.128        0.031      350.635       31.942      857.260
07/04/2013  19:38:00     -256.697      -81.120       22.055      175.013      113.122       71.459    30629.432    12796.697     5106.420        6.074        2.427      269.209       78.925        0.086      350.592       31.868      857.259
07/04/2013  19:39:00     -169.572      -13.135        5.364      109.546       84.020       57.235    12000.382     7059.396     3275.819        2.564        1.117      170.080       61.962        0.133      350.601       31.884      857.263
07/04/2013  19:40:00     -232.466      -64.739      -14.629      104.416       88.416       51.021    10902.705     7817.411     2603.101        3.988        1.066      241.313       48.418        0.040      350.607       31.892      857.290
07/04/2013  19:41:00     -232.844      -43.283       -7.157      118.223      104.357       58.357    13976.700    10890.395     3405.497        4.220        1.414      236.833       59.768        0.064      350.573       31.834      857.286
07/04/2013  19:42:00     -273.151       -0.085       -0.457      113.883      106.036       59.571    12969.436    11243.545     3548.757        5.118        1.388      273.151       62.987        0.053      350.571       31.829      857.292
07/04/2013  19:43:00     -252.886      -31.593      -11.999       72.490       71.366       40.631     5254.862     5093.126     1650.870        3.854        0.600      254.852       34.670        0.019      350.560       31.810      857.295
07/04/2013  19:44:00     -402.569     -124.142      -22.740      151.520      125.753       62.986    22958.198    15813.696     3967.295       11.036        2.137      421.275       63.773        0.023      350.539       31.773      857.289
07/04/2013  19:45:00     -288.680     -120.228      -10.547      154.454      101.716       54.274    23856.043    10346.181     2945.712        6.752        1.857      312.715       63.370        0.041      350.512       31.728      857.290
07/04/2013  19:46:00     -373.163       -5.041      -26.181      121.000       92.137       60.577    14640.919     8489.161     3669.545        8.338        1.340      373.197       43.647        0.014      350.513       31.727      857.304
07/04/2013  19:47:00     -342.215      -58.967      -26.976      102.373      104.436       54.198    10480.191    10906.891     2937.463        7.282        1.216      347.258       43.673        0.016      350.488       31.684      857.300
07/04/2013  19:48:00     -273.600      -31.861       -7.286      131.270      111.509       51.673    17231.864    12434.253     2670.049        5.412        1.617      275.449       51.560        0.035      350.514       31.731      857.298
07/04/2013  19:49:00     -220.135      -26.250       -9.959      119.343      100.438       54.464    14242.836    10087.849     2966.286        3.827        1.365      221.695       53.046        0.057      350.468       31.651      857.307
07/04/2013  19:50:00     -196.118      -19.155      -12.937      102.299       65.427       52.804    10465.126     4280.689     2788.230        2.826        0.877      197.051       49.326        0.063      350.493       31.696      857.323
07/04/2013  19:51:00     -174.915       15.002       -6.148      104.422       71.969       40.878    10903.968     5179.578     1671.022        2.430        0.888      175.557       41.639        0.056      350.474       31.662      857.352
07/04/2013  19:52:00     -275.986      -39.323      -18.092       95.293       79.274       47.111     9080.801     6284.322     2219.417        4.781        0.879      278.773       40.074        0.021      350.427       31.581      857.365
07/04/2013  19:53:00     -204.556      -85.268        6.957      131.139      109.308       68.461    17197.469    11948.153     4686.862        4.149        1.692      221.617       74.499        0.113      350.425       31.577      857.379
07/04/2013  19:54:00     -345.040       51.413      -25.530       75.986       79.956       51.037     5773.843     6392.909     2604.790        6.856        0.739      348.849       36.313        0.011      350.395       31.528      857.403
07/04/2013  19:55:00     -236.958       -9.360      -20.810       79.744       81.670       42.423     6359.038     6669.917     1799.683        3.575        0.741      237.143       33.434        0.020      350.414       31.559      857.426
07/04/2013  19:56:00     -329.835        6.233      -26.136       95.699       93.935       51.724     9158.315     8823.875     2675.383        6.508        1.033      329.893       47.600        0.021      350.369       31.479      857.456
07/04/2013  19:57:00     -221.422       56.337      -19.556      100.083       72.564       37.973    10016.662     5265.477     1441.916        3.465        0.836      228.477       29.540        0.017      350.358       31.460      857.484
07/04/2013  19:58:00     -104.677        1.676       -8.014      101.130       50.948       38.091    10227.213     2595.718     1450.940        1.265        0.714      104.690       45.626        0.190      350.352       31.452      857.520
07/04/2013  19:59:00      -12.470      114.401       14.549       50.844       92.605       42.264     2585.151     8575.747     1786.260        1.320        0.647      115.078       46.588        0.164      350.226       31.230      857.573
07/04/2013  20:00:00      -13.406      227.119      -30.895       46.283       63.953       31.087     2142.091     4090.011      966.415        2.996        0.360      227.514       31.792        0.020      350.216       31.213      857.633
07/04/2013  20:01:00        7.432      246.224      -38.560       41.359       89.711       38.348     1710.608     8048.025     1470.557        3.670        0.561      246.336       45.605        0.034      350.207       31.197      857.679
07/04/2013  20:02:00       14.464      173.266       -9.122       57.055       94.100       54.388     3255.269     8854.716     2958.030        2.269        0.753      173.869       52.606        0.092      350.041       30.909      857.698
07/04/2013  20:03:00       36.784      102.097       -0.791       61.135       63.461       36.982     3737.502     4027.304     1367.655        1.045        0.457      108.521       34.543        0.101      349.928       30.716      857.728
07/04/2013  20:04:00       51.901       58.375       13.903       39.847       36.044       35.184     1587.744     1299.157     1237.948        0.521        0.206       78.111       29.493        0.143      349.867       30.612      857.739
07/04/2013  20:05:00       49.342       61.018       56.834       59.311       43.997       33.754     3517.763     1935.724     1139.352        0.799        0.330       78.472       31.100        0.157      349.660       30.250      857.736
07/04/2013  20:06:00      137.118       72.667       18.709       57.999       41.108       36.848     3363.828     1689.842     1357.768        1.542        0.321      155.183       23.130        0.022      349.715       30.345      857.747
07/04/2013  20:07:00       58.914       81.141        6.977       47.592       62.132       43.777     2265.028     3860.431     1916.397        0.907        0.402      100.274       41.226        0.169      349.681       30.287      857.762
07/04/2013  20:08:00       89.051       97.640       22.322       78.944       58.536       55.582     6232.107     3426.410     3089.384        1.535        0.637      132.150       32.217        0.059      349.568       30.089      857.757
07/04/2013  20:09:00      181.804      118.592       52.423      131.732       95.423       68.755    17353.213     9105.588     4727.306        4.052        1.559      217.064       50.499        0.054      349.445       29.877      857.748
07/04/2013  20:10:00      234.766      177.517       26.781      126.483       85.973       59.004    15997.839     7391.383     3481.470        5.710        1.344      294.326       55.694        0.036      349.430       29.849      857.744
07/04/2013  20:11:00      169.459      151.853       15.302      104.240       71.717       63.750    10865.997     5143.366     4064.060        3.604        1.004      227.542       33.607        0.022      349.415       29.824      857.734
07/04/2013  20:12:00       45.628       76.497        4.826       57.694       60.063       41.774     3328.562     3607.616     1745.107        0.832        0.434       89.072       35.919        0.163      349.409       29.816      857.715
07/04/2013  20:13:00      100.432      164.274        2.178      111.306       82.881       61.383    12388.971     6869.262     3767.928        3.005        1.151      192.542       53.598        0.077      349.385       29.771      857.708
07/04/2013  20:14:00      209.370      133.563       25.242       76.984       62.395       57.360     5926.555     3893.140     3290.215        3.771        0.655      248.344       37.716        0.023      349.330       29.673      857.713
07/04/2013  20:15:00      238.734      141.348       34.130      105.510       90.183       66.039    11132.387     8132.980     4361.191        5.088        1.181      277.440       53.002        0.036      349.345       29.698      857.698
07/04/2013  20:16:00      286.981      169.513       26.127       91.625       84.246       69.751     8395.155     7097.438     4865.149        6.606        1.018      333.306       51.802        0.024      349.389       29.776      857.692
07/04/2013  20:17:00      346.540      214.844       31.042      111.356       93.458       70.750    12400.222     8734.371     5005.524        9.667        1.307      407.735       42.109        0.011      349.320       29.656      857.678
07/04/2013  20:18:00      352.090      199.724       33.980      125.635      118.157       90.680    15784.275    13961.033     8222.882       10.148        1.898      404.793       50.652        0.016      349.230       29.503      857.661
07/04/2013  20:19:00      358.072      222.322       44.214      126.750       98.171       91.481    16065.517     9637.509     8368.713       10.683        1.704      421.477       59.406        0.020      349.206       29.461      857.655
07/04/2013  20:20:00      381.416      223.542       27.554      152.411      134.986       84.803    23229.004    18221.339     7191.568       12.242        2.432      442.097       59.711        0.018      349.180       29.416      857.614
07/04/2013  20:21:00      252.601      171.813       64.472      134.919      117.341       96.060    18203.114    13768.932     9227.572        6.933        2.060      305.495       73.527        0.058      349.158       29.378      857.620
07/04/2013  20:22:00      248.582      190.600      106.695      137.313       87.844       91.854    18854.796     7716.503     8437.226        7.225        1.750      313.244       69.931        0.050      349.076       29.236      857.626
07/04/2013  20:23:00      195.952      159.784      110.300      109.590       80.586       78.454    12010.025     6494.096     6155.040        5.037        1.233      252.840       38.979        0.024      349.051       29.192      857.628
07/04/2013  20:24:00      214.605      206.575      187.233      167.982      156.434      126.162    28217.894    24471.662    15916.836        9.618        3.430      297.873      116.607        0.153      349.050       29.190      857.616
07/04/2013  20:25:00      238.766      224.349      182.164      175.963      160.268      118.323    30962.874    25685.749    14000.274       10.557        3.532      327.631      110.109        0.113      349.011       29.122      857.611
07/04/2013  20:26:00      186.184      176.864      190.963      148.944      129.519       94.921    22184.251    16775.111     9010.043        7.518        2.398      256.798       89.160        0.121      349.065       29.216      857.657
07/04/2013  20:27:00      278.424      143.530      108.134      143.503      126.272       80.224    20593.101    15944.607     6435.870        7.639        2.149      313.243       74.023        0.056      349.078       29.237      857.688
07/04/2013  20:28:00      220.051      146.294      114.793      122.504      106.690       91.566    15007.149    11382.824     8384.373        5.888        1.739      264.243       76.464        0.084      348.942       29.003      857.678
07/04/2013  20:29:00      134.011      129.261      130.211       93.113       85.228       80.342     8670.074     7263.791     6454.843        3.700        1.119      186.192       53.796        0.083      348.811       28.776      857.692
07/04/2013  20:30:00      128.936       79.743       97.438       91.839       63.666       62.844     8434.359     4053.298     3949.339        2.445        0.822      151.603       57.497        0.144      348.891       28.916      857.702
07/04/2013  20:31:00      134.285       81.897       77.336       72.311       80.595       39.691     5228.898     6495.634     1575.375        2.201        0.665      157.288       35.593        0.051      349.104       29.285      857.714
07/04/2013  20:32:00       80.575       75.079       81.558       78.838       74.631       48.125     6215.442     5569.844     2316.037        1.644        0.705      110.133       25.142        0.052      349.361       29.732      857.709
07/04/2013  20:33:00      190.001      159.384       79.678       89.115       77.407       65.469     7941.500     5991.841     4286.224        4.303        0.911      248.000       33.627        0.018      349.092       29.263      857.728
07/04/2013  20:34:00      127.104      108.686       81.380      109.063       76.364       81.991    11894.832     5831.491     6722.449        2.951        1.222      167.236       62.756        0.141      349.011       29.123      857.739
07/04/2013  20:35:00      198.728      108.199       31.738      102.730       75.540       64.829    10553.555     5706.247     4202.755        3.633        1.023      226.274       33.125        0.021      349.127       29.325      857.743
07/04/2013  20:36:00      176.553      119.897       70.776      120.919       84.380       70.259    14621.329     7119.958     4936.314        3.861        1.334      213.415       60.616        0.081      348.967       29.048      857.748
07/04/2013  20:37:00      242.315      150.520       83.755      121.318       82.102       80.926    14717.997     6740.733     6548.964        5.819        1.400      285.260       65.060        0.052      349.195       29.442      857.757
07/04/2013  20:38:00      167.606      181.746      159.841      119.053       96.632       84.545    14173.711     9337.798     7147.818        5.866        1.533      247.231       81.957        0.110      348.881       28.896      857.771
07/04/2013  20:39:00       30.277      108.598      134.536       94.186      109.261       83.742     8871.038    11937.997     7012.730        2.931        1.391      112.739       71.904        0.407      348.787       28.737      857.757
07/04/2013  20:40:00       88.612      -59.561       13.746       93.122       98.962       67.802     8671.713     9793.530     4597.119        1.732        1.153      106.770       71.952        0.454      349.054       29.198      857.761
07/04/2013  20:41:00       29.601       16.014       40.340       45.590       52.829       43.343     2078.452     2790.856     1878.587        0.475        0.337       33.655       39.261        1.361      348.898       28.929      857.767
07/04/2013  20:42:00       70.446      -44.408       16.639       57.798       80.325       52.427     3340.661     6452.185     2748.547        0.987        0.627       83.275       51.395        0.381      349.037       29.170      857.773
07/04/2013  20:43:00       45.703      -65.646        0.568       46.036       43.423       29.006     2119.274     1885.597      841.320        0.562        0.242       79.989       12.846        0.026      349.231       29.507      857.785
07/04/2013  20:44:00       47.154        8.087       31.756       50.980       50.521       27.608     2598.965     2552.393      762.213        0.460        0.296       47.842       31.646        0.438      348.925       28.976      857.808
07/04/2013  20:45:00        5.523      121.351       -7.482       34.401       61.334       35.368     1183.403     3761.798     1250.873        1.050        0.310      121.477       38.487        0.100      348.985       29.079      857.863
07/04/2013  20:46:00     -123.223      207.707      -37.676       83.257       99.113       48.640     6931.673     9823.380     2365.823        3.943        0.956      241.508       46.533        0.037      348.994       29.093      857.869
07/04/2013  20:47:00      -17.928      102.853       -1.815       48.360       71.322       36.729     2338.666     5086.876     1349.014        0.984        0.439      104.403       37.948        0.132      348.924       28.973      857.866
07/04/2013  20:48:00       89.450      120.370       11.227       76.741       71.900       59.385     5889.140     5169.650     3526.581        1.860        0.729      149.968       48.275        0.104      348.933       28.989      857.845
07/04/2013  20:49:00      177.316      139.021       15.225       91.673       77.669       65.247     8403.977     6032.402     4257.178        3.484        0.935      225.317       43.307        0.037      348.970       29.053      857.830
07/04/2013  20:50:00      150.320       78.801       10.307       71.124       60.591       46.902     5058.586     3671.328     2199.798        1.992        0.546      169.723       21.058        0.015      348.916       28.959      857.829
07/04/2013  20:51:00       92.439       86.262       32.276       55.074       51.466       42.207     3033.103     2648.701     1781.452        1.224        0.373      126.436       20.809        0.027      348.886       28.908      857.844
07/04/2013  20:52:00      -34.816       65.539      -10.378       28.359       38.851       25.037      804.261     1509.413      626.859        0.428        0.147       74.213       17.928        0.058      348.871       28.884      857.881
07/04/2013  20:53:00      -79.647        4.594      -12.274       46.664       27.105       22.870     2177.515      734.693      523.036        0.497        0.172       79.780       17.052        0.046      348.855       28.854      857.927
07/04/2013  20:54:00     -121.674      -43.442        1.696       56.517       42.579       27.606     3194.128     1813.000      762.118        1.123        0.288      129.197       26.547        0.042      348.876       28.891      857.946
07/04/2013  20:55:00      -97.445       24.308        5.422       70.259       50.542       40.474     4936.270     2554.465     1638.156        0.962        0.456      100.431       31.882        0.101      348.785       28.733      857.946
07/04/2013  20:56:00      -51.596       22.783      -10.017       45.893       30.122       31.076     2106.134      907.332      965.736        0.363        0.199       56.402       26.033        0.213      348.701       28.588      857.938
07/04/2013  20:57:00     -103.062       -3.323      -16.707       53.179       72.085       29.266     2828.034     5196.259      856.503        0.989        0.444      103.116       15.059        0.021      348.870       28.881      857.929
07/04/2013  20:58:00      -82.235      -12.373      -16.023       63.709       70.157       33.015     4058.811     4922.018     1089.979        0.862        0.504       83.161       34.795        0.175      348.871       28.882      857.914
07/04/2013  20:59:00     -118.548       48.846       -9.652       78.157       56.472       35.274     6108.507     3189.038     1244.283        1.354        0.527      128.217       32.560        0.064      348.836       28.822      857.908
07/04/2013  21:00:00     -123.037      151.294      -20.749       56.727       54.436       34.970     3217.954     2963.293     1222.885        2.293        0.370      195.008       33.118        0.029      348.833       28.817      857.900
07/04/2013  21:01:00      -47.138       34.506       -9.531       24.681       37.254       14.663      609.143     1387.861      215.003        0.286        0.111       58.418       13.800        0.056      348.905       28.943      857.882
07/04/2013  21:02:00      -26.177      156.468      -15.115       28.888       32.777       16.340      834.522     1074.362      266.991        1.379        0.109      158.642       15.025        0.009      348.952       29.023      857.853
07/04/2013  21:03:00      -15.999      161.074      -17.055       44.140       44.149       19.896     1948.376     1949.172      395.869        1.539        0.215      161.866       22.664        0.020      348.843       28.835      857.841
07/04/2013  21:04:00       38.317      150.110      -12.861       50.113       57.648       40.308     2511.277     3323.276     1624.728        1.581        0.373      154.923       42.625        0.076      348.739       28.654      857.815
07/04/2013  21:05:00       26.090      220.750      -25.038       48.284       91.359       44.257     2331.366     8346.451     1958.643        3.133        0.632      222.287       51.553        0.054      348.798       28.754      857.815
07/04/2013  21:06:00       13.883      133.719       -9.072       50.736       49.386       32.257     2574.104     2438.950     1040.541        1.210        0.303      134.438       27.189        0.041      348.704       28.593      857.819
07/04/2013  21:07:00      -13.424      164.531      -20.365       40.104       45.726       24.728     1608.344     2090.863      611.497        1.599        0.216      165.078       23.190        0.020      348.711       28.603      857.831
07/04/2013  21:08:00       28.939      192.705      -33.604       34.606       54.559       28.547     1197.574     2976.668      814.953        2.204        0.249      194.866       28.166        0.021      348.675       28.542      857.836
07/04/2013  21:09:00       -7.460      156.185      -17.068       43.660       49.609       25.940     1906.208     2461.039      672.887        1.489        0.252      156.363       29.115        0.035      348.628       28.463      857.864
07/04/2013  21:10:00      -69.236      140.766      -22.519       26.994       50.484       23.917      728.656     2548.615      572.014        1.448        0.192      156.872       15.965        0.010      348.651       28.501      857.866
07/04/2013  21:11:00       14.626       68.035       -1.903       41.797       33.390       21.465     1746.965     1114.920      460.742        0.408        0.166       69.589       21.023        0.091      348.587       28.392      857.873
07/04/2013  21:12:00       40.798       54.393        0.509       23.077       25.385       26.114      532.535      644.381      681.921        0.324        0.093       67.993       16.868        0.062      348.572       28.366      857.870
07/04/2013  21:13:00       48.966      106.018       -8.118       53.810       47.370       29.400     2895.494     2243.892      864.355        0.985        0.300      116.780       28.632        0.060      348.598       28.412      857.876
07/04/2013  21:14:00       24.196       68.337       -5.280       35.076       40.246       26.796     1230.344     1619.704      718.038        0.442        0.178       72.494       24.880        0.118      348.563       28.349      857.892
07/04/2013  21:15:00      -90.765       42.969      -11.386       30.979       27.623       12.850      959.720      763.014      165.114        0.605        0.094      100.422        3.821        0.001      348.473       28.195      857.900
07/04/2013  21:16:00     -147.092        5.752      -19.363       48.717       32.343       19.808     2373.311     1046.075      392.375        1.293        0.191      147.204        8.495        0.003      348.498       28.238      857.922
07/04/2013  21:17:00     -171.590       16.951      -13.943       58.713       38.495       26.001     3447.189     1481.889      676.075        1.776        0.280      172.425       19.208        0.012      348.608       28.428      857.931
07/04/2013  21:18:00     -148.364        0.374      -13.974       53.300       59.270       30.093     2840.884     3512.963      905.600        1.473        0.363      148.365       18.139        0.015      348.605       28.423      857.946
07/04/2013  21:19:00     -133.992      -18.029      -12.717       59.965       48.579       29.786     3595.744     2359.907      887.186        1.264        0.342      135.199       31.762        0.055      348.565       28.352      857.961
07/04/2013  21:20:00      -69.668      -12.877       10.203       50.505       39.580       29.348     2550.745     1566.545      861.285        0.505        0.249       70.848       31.062        0.192      348.511       28.258      857.961
07/04/2013  21:21:00      -92.916       36.006      -11.428       41.341       34.202       19.398     1709.102     1169.811      376.274        0.666        0.163       99.648       20.415        0.042      348.475       28.199      857.974
07/04/2013  21:22:00     -105.908      107.422      -22.878       29.718       40.818       17.967      883.160     1666.094      322.824        1.308        0.144      150.851       13.531        0.008      348.574       28.368      857.971
07/04/2013  21:23:00      -70.362      126.446      -16.367       43.795       40.293       16.537     1917.998     1623.529      273.464        1.251        0.191      144.705       21.332        0.022      348.548       28.323      857.977
07/04/2013  21:24:00      -30.877      109.879      -16.588       37.962       33.854       17.658     1441.094     1146.069      311.814        0.810        0.145      114.135       10.757        0.009      348.543       28.317      857.987
07/04/2013  21:25:00       12.377      128.951      -11.688       26.827       34.840       20.620      719.694     1213.800      425.168        0.964        0.118      129.544       21.194        0.027      348.634       28.474      857.985
07/04/2013  21:26:00       13.182       68.211       -3.461       32.343       48.736       24.048     1046.062     2375.182      578.308        0.442        0.200       69.473       26.915        0.150      348.591       28.399      857.998
07/04/2013  21:27:00      -31.173      121.888       -8.333       29.281       30.257       20.893      857.364      915.485      436.502        0.905        0.110      125.811       18.682        0.022      348.443       28.142      857.997
07/04/2013  21:28:00      -12.466      152.138      -20.479       27.217       26.798       15.876      740.770      718.131      252.057        1.272        0.086      152.648       17.302        0.013      348.541       28.312      857.996
07/04/2013  21:29:00       20.692      106.669      -20.542       22.729       30.546       15.027      516.617      933.056      225.818        0.695        0.084      108.658       15.140        0.019      348.483       28.212      858.009
07/04/2013  21:30:00      -28.690      115.673      -18.072       25.359       45.919       14.319      643.073     2108.523      205.043        0.874        0.148      119.178       16.665        0.020      348.456       28.165      858.010
07/04/2013  21:31:00      -49.559      130.168      -17.422       23.098       42.769       24.221      533.522     1829.211      586.676        1.133        0.147      139.283       21.916        0.025      348.346       27.974      858.024
07/04/2013  21:32:00      -26.416      110.253       -9.740       22.433       33.182       15.073      503.251     1101.061      227.192        0.739        0.092      113.374       14.657        0.017      348.460       28.170      858.029
07/04/2013  21:33:00      -32.478       87.164      -16.400       24.868       43.870       13.628      618.424     1924.550      185.731        0.582        0.136       93.018       11.447        0.015      348.459       28.171      858.038
07/04/2013  21:34:00       -2.257       58.185        1.536       34.668       27.196       20.566     1201.867      739.620      422.975        0.288        0.118       58.229       17.877        0.094      348.311       27.915      858.052
07/04/2013  21:35:00       11.475      105.602      -13.303       29.929       42.537       27.391      895.722     1809.436      750.260        0.746        0.173      106.224       27.157        0.065      348.439       28.136      858.057
07/04/2013  21:36:00       20.739       86.859       -2.263       28.916       50.882       23.306      836.149     2589.012      543.155        0.597        0.198       89.300       25.253        0.080      348.493       28.229      858.058
07/04/2013  21:37:00       91.536       57.854       17.445       42.756       30.941       27.808     1828.104      957.330      773.307        0.779        0.178      108.286       13.396        0.015      348.546       28.320      858.060
07/04/2013  21:38:00      120.243       73.002       28.140       41.683       30.402       39.453     1737.455      924.288     1556.552        1.240        0.211      140.668       23.198        0.027      348.543       28.316      858.042
07/04/2013  21:39:00      149.259       91.910       35.338       49.461       36.184       36.892     2446.415     1309.282     1361.039        1.854        0.256      175.287       25.191        0.021      348.518       28.272      858.029
07/04/2013  21:40:00      179.981       98.805       14.949       50.596       46.709       43.249     2559.935     2181.692     1870.515        2.449        0.331      205.318       24.595        0.014      348.519       28.271      858.038
07/04/2013  21:41:00      123.616       79.536       -5.936       59.888       37.460       34.402     3586.514     1403.242     1183.470        1.391        0.309      146.993       25.146        0.029      348.572       28.366      858.038
07/04/2013  21:42:00       94.700       45.015        2.574       66.701       37.571       27.320     4448.964     1411.579      746.377        0.880        0.330      104.855       20.487        0.038      348.643       28.489      858.047
07/04/2013  21:43:00        5.381       37.852        1.728       46.299       30.169       25.360     2143.620      910.190      643.142        0.258        0.185       38.233       21.638        0.320      348.486       28.217      858.064
07/04/2013  21:44:00      -84.036       15.170      -10.093       46.876       28.320       17.228     2197.337      802.049      296.806        0.534        0.165       85.394       16.230        0.036      348.221       27.761      858.085
07/04/2013  21:45:00     -138.854       46.438      -11.261       50.887       53.315       28.397     2589.449     2842.515      806.375        1.390        0.312      146.414       22.870        0.024      348.395       28.059      858.103
07/04/2013  21:46:00     -197.813      -95.797       -4.214       69.018       62.802       33.701     4763.489     3944.093     1135.736        2.908        0.492      219.789       19.446        0.008      348.367       28.009      858.115
07/04/2013  21:47:00     -238.386      -91.296      -13.881       73.093       55.500       31.110     5342.652     3080.249      967.836        3.737        0.470      255.270       24.034        0.009      348.082       27.514      858.120
07/04/2013  21:48:00     -185.185      -33.361      -15.869       75.469       59.899       36.685     5695.640     3587.901     1345.768        2.314        0.531      188.166       34.086        0.033      348.181       27.687      858.135
07/04/2013  21:49:00     -111.432       97.620      -17.193       57.508       78.358       34.293     3307.217     6139.922     1176.011        1.643        0.531      148.145       24.654        0.028      348.299       27.892      858.115
07/04/2013  21:50:00      -12.437      264.388      -35.055       36.623       55.281       21.813     1341.214     3056.002      475.811        3.808        0.244      264.681       15.294        0.003      348.484       28.210      858.068
07/04/2013  21:51:00       32.884      150.401      -14.942       42.816       72.741       41.106     1833.168     5291.239     1689.685        1.637        0.441      153.953       45.324        0.087      348.241       27.791      858.037
07/04/2013  21:52:00       23.806      172.245      -15.725       40.458       72.019       41.549     1636.836     5186.684     1726.299        1.951        0.427      173.882       41.941        0.058      348.299       27.892      858.031
07/04/2013  21:53:00        0.003      163.962      -26.693       45.422       52.052       27.569     2063.167     2709.459      760.035        1.656        0.277      163.962       18.311        0.012      348.332       27.950      858.025
07/04/2013  21:54:00        1.305      240.696      -30.014       38.716       47.377       26.958     1498.920     2244.545      726.741        3.165        0.224      240.699       28.753        0.014      348.388       28.045      858.049
07/04/2013  21:55:00        0.541      191.537      -22.747       40.441       43.933       31.350     1635.449     1930.110      982.845        2.088        0.227      191.538       32.003        0.028      348.311       27.912      858.052
07/04/2013  21:56:00      -50.827       61.200      -12.664       30.564       66.118       17.539      934.160     4371.531      307.604        0.605        0.281       79.554       19.821        0.062      348.228       27.772      858.047
07/04/2013  21:57:00      -86.162       20.953      -23.450       22.436       31.271       16.081      503.359      977.880      258.602        0.508        0.087       88.674       13.424        0.023      348.120       27.584      858.051
07/04/2013  21:58:00     -146.237      -75.109       -0.650       70.160       41.989       36.290     4922.455     1763.064     1316.955        1.751        0.400      164.397       29.625        0.032      348.040       27.445      858.046
07/04/2013  21:59:00     -135.498      -57.050        1.343       48.565       36.177       28.203     2358.579     1308.798      795.382        1.304        0.223      147.019       25.567        0.030      348.018       27.407      858.051
07/04/2013  22:00:00     -152.988      -21.552      -12.226       41.794       29.469       23.046     1746.700      868.430      531.112        1.358        0.157      154.499       19.643        0.016      348.146       27.630      858.062
07/04/2013  22:01:00     -139.255      -13.571      -17.678       34.220       31.019       17.503     1171.006      962.186      306.368        1.116        0.122      139.915       12.971        0.009      348.077       27.509      858.061
07/04/2013  22:02:00     -124.064       59.483      -17.172       65.603       48.428       33.043     4303.709     2345.302     1091.833        1.348        0.387      137.587       28.244        0.042      348.067       27.491      858.065
07/04/2013  22:03:00      -94.372       98.573      -19.299       38.062       37.727       23.873     1448.680     1423.354      569.916        1.122        0.172      136.465       20.277        0.022      348.057       27.474      858.065
07/04/2013  22:04:00      -23.850      124.386       -6.341       27.593       35.851       18.981      761.392     1285.279      360.284        0.924        0.120      126.652       16.059        0.016      348.102       27.552      858.032
07/04/2013  22:05:00        6.320      147.451       -3.487       38.395       68.695       37.222     1474.188     4719.013     1385.463        1.468        0.379      147.586       39.797        0.073      348.060       27.479      858.011
07/04/2013  22:06:00       38.386      168.655      -13.831       41.161       82.272       41.359     1694.233     6768.681     1710.595        2.014        0.509      172.968       45.045        0.068      348.304       27.899      858.004
07/04/2013  22:07:00       49.989       54.571       15.337       45.159       51.577       34.477     2039.330     2660.191     1188.691        0.580        0.294       74.006       23.575        0.101      348.222       27.761      857.986
07/04/2013  22:08:00       78.829       63.278       10.393       53.628       43.573       38.663     2875.909     1898.600     1494.819        0.830        0.313      101.085       29.408        0.085      348.301       27.897      857.988
07/04/2013  22:09:00       52.400       66.591        1.001       47.180       41.296       30.161     2225.957     1705.378      909.681        0.601        0.242       84.735       25.813        0.093      348.285       27.868      857.995
07/04/2013  22:10:00      135.817       87.153       26.282       41.188       33.774       30.373     1696.430     1140.695      922.493        1.525        0.188      161.375       20.215        0.016      348.268       27.839      857.974
07/04/2013  22:11:00       99.875       86.585        9.676       58.700       45.306       33.314     3445.682     2052.643     1109.809        1.209        0.330      132.181        7.832        0.004      348.177       27.682      857.978
07/04/2013  22:12:00       98.450       51.869        6.340       31.130       25.598       23.148      969.100      655.258      535.809        0.729        0.108      111.278       11.128        0.010      348.150       27.635      857.973
07/04/2013  22:13:00       45.327       37.218       10.522       45.919       39.090       20.490     2108.545     1528.047      419.826        0.380        0.203       58.649       19.322        0.109      348.111       27.568      857.985
07/04/2013  22:14:00      -48.738        6.813      -11.755       35.066       28.659       21.485     1229.600      821.340      461.618        0.254        0.126       49.212       15.572        0.100      347.951       27.290      858.009
07/04/2013  22:15:00     -176.414       29.162      -19.944       52.418       37.638       26.242     2747.628     1416.597      688.627        1.861        0.243      178.808       24.554        0.019      347.925       27.246      857.999
07/04/2013  22:16:00     -129.908       21.551       -6.570       47.853       38.949       21.217     2289.918     1517.041      450.169        1.082        0.213      131.683       23.777        0.033      347.924       27.245      857.990
07/04/2013  22:17:00      -93.616       23.170       -4.997       50.015       26.178       16.923     2501.517      685.275      286.391        0.640        0.174       96.441       16.878        0.031      347.897       27.197      857.988
07/04/2013  22:18:00      -66.733       49.128       -6.885       35.502       50.222       24.440     1260.400     2522.286      597.311        0.565        0.219       82.867       29.272        0.125      347.923       27.245      857.992
07/04/2013  22:19:00      -77.021       81.210      -20.157       18.170       20.048       14.095      330.148      401.934      198.659        0.693        0.047      111.926        7.944        0.005      348.074       27.504      857.998
07/04/2013  22:20:00      -23.093       55.835       -6.340       27.614       29.217       13.131      762.515      853.656      172.424        0.274        0.089       60.422       10.584        0.031      348.028       27.424      858.002
07/04/2013  22:21:00      -24.655       93.509       -7.396       21.038       47.076       20.015      442.601     2216.107      400.595        0.623        0.153       96.705       24.263        0.063      348.106       27.561      858.003
07/04/2013  22:22:00      -34.061        8.457      -10.954       34.435       32.336       11.409     1185.738     1045.616      130.165        0.186        0.118       35.095       13.393        0.146      348.123       27.590      858.008
07/04/2013  22:23:00      -36.603        9.860       -8.334       19.286       15.424        7.865      371.934      237.898       61.863        0.109        0.034       37.908        8.769        0.054      348.012       27.397      858.023
07/04/2013  22:24:00       -8.909       36.412       -8.717       19.331       14.034       12.105      373.705      196.967      146.531        0.110        0.036       37.486       11.994        0.102      347.992       27.363      858.023
07/04/2013  22:25:00        5.327       66.665       -7.430       26.906       29.468       10.641      723.929      868.342      113.236        0.312        0.085       66.877       15.080        0.051      348.211       27.744      858.020
07/04/2013  22:26:00       12.980       55.044       -8.819       13.666       15.485        8.687      186.755      239.770       75.471        0.189        0.025       56.554        8.577        0.023      348.259       27.825      858.028
07/04/2013  22:27:00       20.070       24.814        0.008        9.892       11.641       10.125       97.854      135.507      102.507        0.068        0.017       31.914        8.670        0.074      348.107       27.562      858.024
07/04/2013  22:28:00       45.851       33.629        0.017       21.131       15.984       12.501      446.521      255.474      156.267        0.205        0.043       56.861       10.484        0.034      348.094       27.540      858.019
07/04/2013  22:29:00       48.840       39.558        0.237       26.747       22.358       12.207      715.404      499.898      149.010        0.266        0.068       62.850       10.654        0.029      348.025       27.420      858.005
07/04/2013  22:30:00      112.497       40.439       15.109       32.028       23.550       25.310     1025.773      554.591      640.598        0.837        0.111      119.544        8.919        0.006      348.003       27.382      858.001
07/04/2013  22:31:00      119.137       54.751       20.417       44.500       33.176       33.110     1980.238     1100.668     1096.249        1.089        0.209      131.116       25.038        0.036      348.016       27.404      857.995
07/04/2013  22:32:00       91.734       32.467       12.927       39.698       31.518       31.315     1575.933      993.357      980.650        0.659        0.177       97.310       19.828        0.042      348.040       27.445      858.003
07/04/2013  22:33:00       88.181       40.278       25.188       37.310       23.718       25.787     1392.028      562.543      664.947        0.633        0.131       96.944       21.234        0.048      347.969       27.322      858.006
07/04/2013  22:34:00       42.151       20.897       39.101       36.195       26.774       18.963     1310.113      716.837      359.593        0.306        0.119       47.046       11.021        0.055      347.901       27.206      858.016
07/04/2013  22:35:00       28.231       18.246       12.389       21.549       21.000       13.742      464.371      441.009      188.853        0.119        0.055       33.614       13.125        0.152      347.950       27.290      858.024
07/04/2013  22:36:00       29.841       13.477        6.121       16.044       10.405        7.679      257.424      108.274       58.966        0.077        0.021       32.743        8.516        0.068      347.972       27.328      858.027
07/04/2013  22:37:00       24.821       11.928        6.495       15.996       11.686       13.057      255.881      136.563      170.477        0.068        0.028       27.538        4.920        0.032      347.941       27.277      858.028
07/04/2013  22:38:00       -3.669       -2.015       12.628       32.902       25.965       18.054     1082.540      674.178      325.950        0.113        0.104        4.186       24.006       32.890      347.873       27.157      858.043
07/04/2013  22:39:00      -35.320        6.871       -1.238       32.125       12.110       10.946     1031.991      146.664      119.819        0.130        0.065       35.982       16.916        0.221      347.748       26.944      858.047
07/04/2013  22:40:00     -100.022      -37.903       -7.196       20.865       19.631       10.992      435.330      385.360      120.833        0.622        0.047      106.962        5.452        0.003      347.796       27.025      858.053
07/04/2013  22:41:00      -74.045      -46.868        2.199       30.329       25.887       18.350      919.862      670.113      336.724        0.480        0.096       87.631       16.087        0.034      347.734       26.917      858.065
07/04/2013  22:42:00      -99.595      -30.439       -3.672       23.167       22.054       12.473      536.715      486.399      155.586        0.602        0.059      104.143       11.528        0.012      347.747       26.941      858.092
07/04/2013  22:43:00      -81.959      -25.670       -2.233       23.477       14.633       11.488      551.192      214.131      131.979        0.414        0.045       85.885       11.767        0.019      347.801       27.033      858.100
07/04/2013  22:44:00      -69.443      -17.381       -0.102       25.736       21.203       11.282      662.354      449.555      127.289        0.318        0.062       71.585        9.129        0.016      347.775       26.990      858.102
07/04/2013  22:45:00      -71.186       -8.291       -1.901       13.924       11.436       11.260      193.891      130.780      126.781        0.280        0.023       71.667        9.410        0.017      347.917       27.233      858.098
07/04/2013  22:46:00      -78.347       -6.679       -4.209       12.931       12.811        6.922      167.223      164.134       47.911        0.329        0.019       78.632        5.782        0.005      348.031       27.430      858.089
07/04/2013  22:47:00      -48.189      -15.518       -2.079       18.316       16.758        9.549      335.490      280.821       91.176        0.164        0.035       50.626        8.400        0.028      348.012       27.398      858.075
07/04/2013  22:48:00      -28.703       10.763       -5.891       17.555       23.057       14.578      308.183      531.619      212.516        0.101        0.053       30.654        7.867        0.066      348.192       27.708      858.051
07/04/2013  22:49:00        2.265       21.796       -0.837       11.302        8.811        5.683      127.740       77.631       32.291        0.036        0.012       21.913        5.902        0.073      348.311       27.912      858.035
07/04/2013  22:50:00       56.632       40.687       10.841       15.310       18.276       15.588      234.402      333.997      242.982        0.290        0.041       69.733       13.409        0.037      348.229       27.771      858.016
07/04/2013  22:51:00      106.384       60.583       25.787       18.927       28.012       18.445      358.216      784.664      340.216        0.857        0.074      122.425       13.987        0.013      348.212       27.743      858.001
07/04/2013  22:52:00       92.822       52.262        8.301       35.752       27.158       28.047     1278.187      737.573      786.619        0.711        0.140      106.523       12.230        0.013      348.147       27.630      857.980
07/04/2013  22:53:00       74.277       40.536       21.816       48.384       25.323       24.224     2341.013      641.263      586.780        0.560        0.178       84.618       20.214        0.057      348.118       27.580      857.970
07/04/2013  22:54:00       58.401       62.010       44.790       24.724       18.358       21.072      611.294      337.025      444.021        0.533        0.070       85.182       11.487        0.018      347.960       27.308      857.965
07/04/2013  22:55:00       43.388       26.130       35.791       23.896       28.502       24.878      571.040      812.336      618.926        0.292        0.100       50.649       21.499        0.180      347.896       27.197      857.972
07/04/2013  22:56:00       15.413       23.910       55.811       36.784       30.449       24.754     1353.097      927.169      612.759        0.341        0.145       28.447       21.761        0.585      348.074       27.504      857.974
07/04/2013  22:57:00        8.530       15.969       42.435       27.464       27.471       19.575      754.265      754.680      383.184        0.201        0.095       18.104       17.070        0.889      347.777       26.994      857.968
07/04/2013  22:58:00        9.097       22.717       52.761       22.024       26.567       17.678      485.059      705.787      312.516        0.244        0.075       24.471       16.503        0.455      347.925       27.247      857.965
07/04/2013  22:59:00       11.013      -10.058       29.433       18.527       23.129       16.703      343.256      534.943      278.996        0.112        0.058       14.915        9.933        0.444      347.964       27.314      857.978
07/04/2013  23:00:00       11.159       -1.133       22.231       23.442       34.484       20.213      549.531     1189.140      408.556        0.138        0.107       11.216       19.410        2.995      348.022       27.413      857.975
07/04/2013  23:01:00        7.622      -12.711       22.979       15.570       31.644       16.210      242.414     1001.346      262.780        0.113        0.075       14.821       17.230        1.352      347.991       27.360      857.962
07/04/2013  23:02:00       56.111       14.781       41.721       48.271       29.854       23.417     2330.116      891.252      548.359        0.444        0.188       58.025       21.082        0.132      347.912       27.224      857.955
07/04/2013  23:03:00       98.658       42.150       72.440       75.054       58.761       45.759     5633.047     3452.865     2093.878        1.397        0.559      107.285       30.967        0.083      348.037       27.440      857.952
07/04/2013  23:04:00       66.529        4.215       34.848       70.121       49.802       34.863     4916.958     2480.209     1215.447        0.713        0.431       66.662       35.049        0.276      348.042       27.450      857.951
07/04/2013  23:05:00       92.086       14.628       66.556       53.945       70.693       45.226     2910.054     4997.459     2045.365        1.154        0.498       93.240       47.364        0.258      348.107       27.562      857.944
07/04/2013  23:06:00       38.186     -102.712        2.561       34.453       31.310       21.400     1186.996      980.298      457.942        0.732        0.131      109.580       10.671        0.009      348.108       27.564      857.944
07/04/2013  23:07:00       63.730      -99.417       -0.162       28.391       31.532       20.803      806.073      994.282      432.751        0.809        0.112      118.090       14.527        0.015      348.107       27.562      857.951
07/04/2013  23:08:00       16.452      -63.798        5.697       40.767       31.359       23.061     1661.952      983.386      531.793        0.377        0.159       65.885       26.258        0.159      348.044       27.453      857.945
07/04/2013  23:09:00      -28.133      -26.157       -3.535       43.111       23.468       19.694     1858.528      550.755      387.842        0.214        0.140       38.414       15.855        0.170      347.943       27.277      857.939
07/04/2013  23:10:00      -70.206      -25.680       -4.333       23.570       21.513       11.971      555.545      462.810      143.300        0.338        0.058       74.756       11.898        0.025      347.874       27.159      857.940
07/04/2013  23:11:00      -84.970      -26.806      -20.254       14.643       19.134       13.606      214.407      366.096      185.133        0.456        0.038       89.098        8.295        0.009      347.945       27.283      857.927
07/04/2013  23:12:00      -94.145        2.665       -9.055       14.584       21.136        9.709      212.705      446.731       94.264        0.485        0.038       94.183        9.901        0.011      347.861       27.138      857.907
07/04/2013  23:13:00      -73.507       38.376      -10.754       18.269       31.871       13.438      333.756     1015.729      180.580        0.426        0.077       82.922       12.320        0.022      347.635       26.747      857.895
07/04/2013  23:14:00      -99.383       88.018      -18.595       30.108       35.417       22.319      906.489     1254.335      498.135        1.031        0.133      132.755       20.792        0.025      347.566       26.627      857.881
07/04/2013  23:15:00     -103.860       75.308      -20.803       30.382       42.734       23.543      923.076     1826.194      554.271        1.010        0.165      128.290       28.625        0.050      347.712       26.882      857.865
07/04/2013  23:16:00      -79.965       29.413      -11.041       27.878       17.932       13.205      777.181      321.561      174.364        0.433        0.064       85.203       12.379        0.021      347.674       26.815      857.848
07/04/2013  23:17:00      -69.414       15.971       -3.566       23.972       17.801       12.264      574.640      316.870      150.417        0.306        0.052       71.228       11.443        0.026      347.691       26.844      857.827
07/04/2013  23:18:00      -88.974       29.690       -8.495       33.403       18.975       15.616     1115.732      360.061      243.868        0.529        0.086       93.797       12.470        0.018      347.769       26.977      857.807
07/04/2013  23:19:00      -53.971       12.779       -5.171       17.735       16.556       11.340      314.543      274.103      128.604        0.191        0.036       55.463        9.163        0.027      347.760       26.964      857.800
07/04/2013  23:20:00      -39.174       -5.114       -8.312       12.193       16.934        8.277      148.658      286.744       68.511        0.107        0.025       39.507        6.329        0.026      347.730       26.911      857.800
07/04/2013  23:21:00      -62.643        4.736       -5.927       24.966       15.852        9.955      623.314      251.274       99.109        0.248        0.049       62.822        9.366        0.022      347.688       26.840      857.793
07/04/2013  23:22:00      -59.343       -1.236      -10.197       14.942       13.961        9.323      223.255      194.901       86.924        0.207        0.025       59.356        6.070        0.010      347.676       26.818      857.784
07/04/2013  23:23:00      -57.855       -4.869       -8.585       12.193       10.268        7.387      148.665      105.436       54.571        0.188        0.015       58.060        4.630        0.006      347.599       26.686      857.768
07/04/2013  23:24:00      -60.815        0.679      -10.145       18.530       13.531       11.468      343.349      183.084      131.523        0.223        0.033       60.818        6.136        0.010      347.577       26.648      857.762
07/04/2013  23:25:00      -67.144        9.881      -10.651       19.241       16.917       12.741      370.221      286.169      162.330        0.277        0.041       67.867       11.855        0.031      347.615       26.712      857.752
07/04/2013  23:26:00      -64.929       18.591       -7.147       22.217       17.545       14.614      493.608      307.844      213.581        0.281        0.051       67.538        8.772        0.017      347.617       26.715      857.749
07/04/2013  23:27:00      -49.305       27.513        0.953       27.570       20.327       19.188      760.101      413.182      368.161        0.236        0.077       56.462        7.103        0.016      347.642       26.757      857.736
07/04/2013  23:28:00      -63.627       33.563       -3.293       29.100       22.181       15.982      846.791      492.001      255.424        0.339        0.080       71.937       11.449        0.025      347.606       26.698      857.722
07/04/2013  23:29:00      -68.722       35.903       -7.612       25.534       19.900       15.764      652.002      396.019      248.499        0.368        0.065       77.535       14.309        0.034      347.616       26.715      857.717
07/04/2013  23:30:00      -72.996       17.499       -7.082       18.950       21.393       13.969      359.095      457.647      195.133        0.335        0.051       75.064       10.807        0.021      347.593       26.673      857.716
07/04/2013  23:31:00      -69.498      -14.860      -10.395       32.357       13.843        9.702     1047.006      191.632       94.134        0.325        0.067       71.068        8.067        0.013      347.288       26.148      857.722
07/04/2013  23:32:00      -93.959        2.119       -7.482       43.333       36.183       19.523     1877.736     1309.205      381.140        0.623        0.178       93.983       19.202        0.042      347.241       26.069      857.719
07/04/2013  23:33:00      -98.297       12.370      -13.877       22.214       27.143       16.493      493.459      736.726      272.034        0.575        0.075       99.072       10.500        0.011      347.243       26.074      857.713
07/04/2013  23:34:00      -76.635        3.143       -8.059       21.473       27.056       18.673      461.098      732.052      348.699        0.374        0.077       76.699       12.235        0.025      347.233       26.053      857.712
07/04/2013  23:35:00      -63.823        0.303      -11.894       22.731       16.386       14.936      516.712      268.491      223.093        0.261        0.050       63.823        6.862        0.012      347.190       25.979      857.710
07/04/2013  23:36:00      -56.982       -1.387      -13.281       12.185       13.617        8.885      148.477      185.410       78.951        0.192        0.021       56.999        5.173        0.008      347.146       25.905      857.710
07/04/2013  23:37:00      -79.382       -2.635      -14.533       18.843       13.827       11.445      355.058      191.186      130.984        0.360        0.034       79.425        4.553        0.003      346.904       25.487      857.719
07/04/2013  23:38:00     -129.620       -4.795      -13.277       39.965       23.645       23.221     1597.184      559.091      539.220        0.985        0.135      129.709       23.553        0.033      346.632       25.020      857.718
07/04/2013  23:39:00      -84.940       -3.727       -4.563       47.110       22.342       20.478     2219.332      499.160      419.366        0.519        0.157       85.022       23.457        0.076      346.538       24.857      857.731
07/04/2013  23:40:00      -54.564        5.498       -1.286       52.369       34.443       25.744     2742.536     1186.294      662.756        0.380        0.230       54.840       24.135        0.194      346.628       25.012      857.737
07/04/2013  23:41:00      -96.035       20.754       -2.273       40.445       37.019       21.491     1635.769     1370.422      461.880        0.656        0.173       98.252       20.326        0.043      346.998       25.650      857.746
07/04/2013  23:42:00      -97.752       -4.388       -5.281       46.667       25.198       22.011     2177.787      634.947      484.490        0.645        0.165       97.850       24.521        0.063      346.698       25.133      857.748
07/04/2013  23:43:00      -94.229       23.683      -14.228       27.179       22.859       15.414      738.701      522.533      237.599        0.557        0.075       97.159       12.023        0.015      346.833       25.364      857.734
07/04/2013  23:44:00     -116.510        3.815      -12.186       21.364       14.462       11.972      456.410      209.137      143.322        0.727        0.040      116.572        8.943        0.006      346.751       25.222      857.729
07/04/2013  23:45:00     -118.927        6.329      -12.485       22.887       17.105       12.935      523.829      292.569      167.303        0.766        0.049      119.096        5.997        0.003      346.673       25.089      857.730
07/04/2013  23:46:00      -76.600       14.987       -6.313       27.366       18.650       13.745      748.921      347.825      188.918        0.371        0.064       78.052       10.465        0.018      346.732       25.191      857.736
07/04/2013  23:47:00      -74.036       17.229      -12.250       16.135       17.981       12.977      260.339      323.307      168.398        0.334        0.038       76.015        9.704        0.016      346.888       25.460      857.728
07/04/2013  23:48:00      -85.975       42.201      -11.754       26.498       19.995       17.587      702.164      399.810      309.308        0.536        0.071       95.774       15.067        0.025      347.028       25.702      857.721
07/04/2013  23:49:00      -49.762       42.157       -4.854       18.285       23.111       14.412      334.325      534.125      207.718        0.268        0.054       65.219       11.891        0.033      347.171       25.945      857.711
07/04/2013  23:50:00      -47.049       73.801      -13.618       13.646       14.643        9.158      186.217      214.426       83.877        0.416        0.024       87.523        6.036        0.005      347.356       26.264      857.698
07/04/2013  23:51:00      -15.643      121.898      -16.794       18.332       20.401        9.373      336.059      416.185       87.856        0.811        0.042      122.898        6.994        0.003      347.780       26.998      857.682
07/04/2013  23:52:00       16.572      135.128      -21.524       19.127       20.808       17.356      365.855      432.989      301.235        1.005        0.055      136.140       14.022        0.011      347.875       27.161      857.673
07/04/2013  23:53:00        2.676      123.543      -17.533       13.598       19.791        9.332      184.915      391.699       87.091        0.812        0.033      123.572        7.808        0.004      347.938       27.270      857.663
07/04/2013  23:54:00      -13.606      103.176      -12.131       16.593       16.169        9.008      275.326      261.431       81.144        0.580        0.031      104.069        4.767        0.002      347.715       26.887      857.653
07/04/2013  23:55:00      -27.913      -13.402       -2.430       19.819       26.162       10.677      392.777      684.445      113.997        0.108        0.060       30.963       11.169        0.130      347.114       25.849      857.649
07/04/2013  23:56:00      -41.389      -13.125       -2.585       14.844       18.665       13.771      220.351      348.379      189.645        0.133        0.038       43.421       11.835        0.074      346.670       25.085      857.648
07/04/2013  23:57:00      -62.609      -12.662       -5.299       24.090       15.195       13.609      580.329      230.874      185.198        0.255        0.050       63.877        5.800        0.008      346.616       24.992      857.642
07/04/2013  23:58:00      -78.313      -17.797      -11.434        8.599       12.420        8.492       73.951      154.264       72.112        0.344        0.015       80.310        1.666        0.000      346.536       24.853      857.633
07/04/2013  23:59:00      -77.044      -19.419       -9.126       16.857       17.667       11.726      284.165      312.132      137.488        0.356        0.037       79.453       10.105        0.016      346.530       24.844      857.648
